Date StartTime U_cm/s V_cm/s W_cm/s Ustd_cm/s Vstd_cm/s Wstd_cm/s Uvar_(cm/s)^2 Vvar_(cm/s)^2 Wvar_(cm/s)^2 KE_(m/s)^2 TurbulentKE_(m/s)^2 HorizWindSpeed_cm/s FrictionSpeec_cm/s DragCoef SpeedOfSound_m/s SonicTemperature_C Pressure_mb 
04/27/2014  00:00:00     -416.344     -102.751      -36.994      139.019      121.523       63.918    19326.189    14767.790     4085.537       11.172        1.909      428.836       60.022        0.020      335.379        5.970      857.327
04/27/2014  00:01:00     -196.389      -10.272       -6.268      188.144      113.723       83.912    35398.300    12932.944     7041.255        4.703        2.769      196.657      104.699        0.283      335.372        5.959      857.382
04/27/2014  00:02:00     -290.265      -30.053      -11.409      159.953      164.737       85.852    25584.933    27138.175     7370.498        7.268        3.005      291.817       89.171        0.093      335.380        5.972      857.364
04/27/2014  00:03:00     -220.057      -28.964       -7.717      239.772       91.313       69.793    57490.607     8338.145     4871.082        6.000        3.535      221.955       99.614        0.201      335.364        5.947      857.370
04/27/2014  00:04:00     -343.018       11.157      -43.889      111.800      110.391       62.021    12499.250    12186.124     3846.644        7.412        1.427      343.199       43.264        0.016      335.354        5.926      857.375
04/27/2014  00:05:00     -304.894      -70.609      -14.685      178.364      155.734       57.291    31813.820    24252.927     3282.313        7.874        2.967      312.964       85.463        0.075      335.344        5.912      857.359
04/27/2014  00:06:00     -346.487      -78.339       -5.342      190.910      136.253       75.826    36446.485    18564.773     5749.550        9.348        3.038      355.233       86.924        0.060      335.306        5.849      857.326
04/27/2014  00:07:00     -259.494      -60.659      -16.529      135.205      122.225       73.466    18280.383    14938.957     5397.286        5.495        1.931      266.489       81.015        0.092      335.291        5.821      857.298
04/27/2014  00:08:00     -225.950      -92.090      -11.325      136.452      111.437       61.020    18619.188    12418.283     3723.411        4.720        1.738      243.996       44.618        0.033      335.287        5.816      857.327
04/27/2014  00:09:00     -319.074       36.288      -16.688      169.660      119.323       61.604    28784.603    14238.042     3795.064        7.510        2.341      321.131       77.595        0.058      335.257        5.768      857.292
04/27/2014  00:10:00     -275.813      -38.123      -10.522      156.455      129.573       64.339    24478.171    16789.100     4139.478        6.151        2.270      278.436       66.634        0.057      335.256        5.764      857.269
04/27/2014  00:11:00     -335.059      -90.960        6.690      212.507      137.738       98.179    45159.211    18971.692     9639.043        9.716        3.688      347.186      116.805        0.113      335.295        5.831      857.230
04/27/2014  00:12:00     -438.087       12.714      -25.485      211.762      144.099       84.964    44843.290    20764.605     7218.951       13.276        3.641      438.271       91.652        0.044      335.311        5.857      857.257
04/27/2014  00:13:00     -496.957      -27.329      -37.844      186.284      153.423       89.502    34701.563    23538.558     8010.647       15.768        3.313      497.708       91.650        0.034      335.365        5.947      857.228
04/27/2014  00:14:00     -340.053      -82.127      -16.654      231.985      137.914       83.314    53817.068    19020.199     6941.152       10.120        3.989      349.830       92.160        0.069      335.358        5.937      857.251
04/27/2014  00:15:00     -591.923     -120.591      -47.699      300.151      202.000       91.097    90090.875    40804.024     8298.719       25.316        6.960      604.082       84.793        0.020      335.361        5.941      857.270
04/27/2014  00:16:00     -646.448       15.677      -61.348      195.976      197.868       87.734    38406.741    39151.641     7697.305       25.356        4.263      646.638       83.567        0.017      335.352        5.927      857.278
04/27/2014  00:17:00     -382.008      -48.353      -23.223      207.125      156.378       91.345    42900.703    24454.180     8343.827       11.224        3.785      385.056       84.190        0.048      335.358        5.936      857.240
04/27/2014  00:18:00     -378.977     -148.350        9.112      205.535      149.261      106.921    42244.669    22278.956    11432.052       12.082        3.798      406.978      111.914        0.076      335.366        5.948      857.239
04/27/2014  00:19:00     -360.774       30.941      -15.236      197.498      139.878       77.077    39005.560    19565.751     5940.877        9.792        3.226      362.098       87.639        0.059      335.362        5.943      857.271
04/27/2014  00:20:00     -652.253       -7.374      -40.979      237.175      174.085      101.818    56251.895    30305.596    10366.954       26.203        4.846      652.295      123.996        0.036      335.347        5.915      857.321
04/27/2014  00:21:00     -612.278     -212.951      -24.421      249.185      221.269      118.271    62092.982    48959.917    13988.051       27.291        6.252      648.253      118.354        0.033      335.330        5.889      857.357
04/27/2014  00:22:00     -586.698     -209.742      -31.521      252.197      235.074      121.272    63603.166    55259.696    14706.814       26.136        6.678      623.062      131.641        0.045      335.355        5.929      857.428
04/27/2014  00:23:00     -590.776     -127.623      -36.432      211.601      152.841       88.810    44775.098    23360.249     7887.161       22.131        3.801      604.403       84.066        0.019      335.352        5.926      857.508
04/27/2014  00:24:00     -555.446      -81.140      -54.377      190.098      145.903       86.874    36137.352    21287.592     7547.083       19.150        3.249      561.341       81.597        0.021      335.331        5.891      857.576
04/27/2014  00:25:00     -646.393      -64.006      -34.314      276.169      220.767      105.208    76269.542    48738.221    11068.668       27.956        6.804      649.554      116.701        0.032      335.349        5.919      857.592
04/27/2014  00:26:00     -576.533      -61.100      -43.054      237.235      192.923      114.847    56280.412    37219.112    13189.923       22.231        5.334      579.762      121.037        0.044      335.354        5.929      857.632
04/27/2014  00:27:00     -463.329      -98.427      -44.558      203.589      134.041       80.515    41448.287    17967.016     6482.651       14.611        3.295      473.668       79.936        0.028      335.364        5.944      857.618
04/27/2014  00:28:00     -630.189     -101.455      -46.349      272.675      181.967       92.100    74351.764    33111.896     8482.359       26.274        5.797      638.303      103.527        0.026      335.357        5.934      857.567
04/27/2014  00:29:00     -667.706     -122.300      -33.814      306.806      191.879      110.751    94130.177    36817.563    12265.684       30.254        7.161      678.815      126.651        0.035      335.351        5.923      857.539
04/27/2014  00:30:00     -610.087      -69.587      -43.959      173.454      170.623       87.832    30086.430    29112.304     7714.398       22.293        3.346      614.043       93.278        0.023      335.335        5.896      857.552
04/27/2014  00:31:00     -485.986       18.980      -21.989      297.422      152.038       88.673    88459.773    23115.682     7862.819       17.821        5.972      486.357      129.861        0.071      335.363        5.944      857.494
04/27/2014  00:32:00     -519.540     -133.415      -34.902      199.569      172.081       78.045    39827.724    29611.723     6091.054       18.222        3.777      536.397       90.884        0.029      335.353        5.925      857.451
04/27/2014  00:33:00     -439.666      -62.417      -17.771      175.873      183.532       87.338    30931.431    33684.120     7627.938       13.487        3.612      444.075       87.183        0.039      335.317        5.866      857.453
04/27/2014  00:34:00     -319.802       16.765      -11.854      207.380      138.982       82.218    43006.333    19315.985     6759.720        8.587        3.454      320.242       96.192        0.090      335.340        5.905      857.428
04/27/2014  00:35:00     -506.503     -137.828      -33.281      192.427      157.951       89.356    37028.143    24948.574     7984.445       17.329        3.498      524.921       77.590        0.022      335.339        5.903      857.382
04/27/2014  00:36:00     -497.247     -125.211      -23.788      199.783      150.568       89.763    39913.349    22670.710     8057.480       16.706        3.532      512.769       96.158        0.035      335.329        5.888      857.372
04/27/2014  00:37:00     -499.431      -44.130      -28.631      247.458      187.702       93.993    61235.630    35232.168     8834.767       17.873        5.265      501.377      104.612        0.044      335.328        5.886      857.356
04/27/2014  00:38:00     -359.210      -37.232       -0.333      203.756      144.736       88.460    41516.330    20948.492     7825.088       10.034        3.514      361.135      102.760        0.081      335.309        5.852      857.362
04/27/2014  00:39:00     -298.806     -106.277       -7.691      182.705      164.419       79.186    33381.202    27033.516     6270.463        8.365        3.334      317.143       90.593        0.082      335.295        5.830      857.342
04/27/2014  00:40:00     -467.154     -112.866      -20.969      240.071      205.837       97.945    57633.987    42368.810     9593.267       17.048        5.480      480.595      104.365        0.047      335.261        5.774      857.327
04/27/2014  00:41:00     -521.495     -116.412      -18.143      243.241      173.461       96.266    59166.278    30088.687     9267.074       19.216        4.926      534.330      106.338        0.040      335.254        5.761      857.375
04/27/2014  00:42:00     -691.766     -123.740      -55.382      215.195      209.631       95.295    46308.732    43945.066     9081.211       29.811        4.967      702.746       97.736        0.019      335.273        5.794      857.398
04/27/2014  00:43:00     -563.453     -174.356      -16.436      205.835      170.988       93.176    42368.068    29236.750     8681.815       21.420        4.014      589.813       93.372        0.025      335.257        5.766      857.399
04/27/2014  00:44:00     -586.182     -130.174      -40.908      241.978      213.462      107.242    58553.116    45565.917    11500.810       23.890        5.781      600.461      104.888        0.031      335.247        5.751      857.411
04/27/2014  00:45:00     -697.829     -155.120      -42.671      215.524      242.116       87.919    46450.718    58619.983     7729.721       31.280        5.640      714.862       77.150        0.012      335.259        5.770      857.393
04/27/2014  00:46:00     -702.737     -162.720      -32.383      219.063      155.243      100.051    47988.707    24100.481    10010.139       30.172        4.105      721.330      104.224        0.021      335.231        5.725      857.382
04/27/2014  00:47:00     -535.445      -70.333       -8.209      239.426      199.276      105.824    57324.829    39710.805    11198.724       19.995        5.412      540.044      111.871        0.043      335.236        5.732      857.384
04/27/2014  00:48:00     -561.653       -7.471      -36.473      235.198      151.563       99.220    55318.320    22971.209     9844.654       20.247        4.407      561.702      120.292        0.046      335.247        5.750      857.343
04/27/2014  00:49:00     -556.764      -47.499      -39.420      238.997      173.875      101.178    57119.667    30232.609    10237.061       20.567        4.879      558.786       98.997        0.031      335.248        5.752      857.335
04/27/2014  00:50:00     -395.048      -85.681      -13.301      198.185      125.922       76.617    39277.325    15856.325     5870.155       11.228        3.050      404.233       79.704        0.039      335.233        5.727      857.409
04/27/2014  00:51:00     -328.706       -7.705       -7.388      191.861      145.099       80.177    36810.543    21053.647     6428.366        8.621        3.215      328.796       85.914        0.068      335.215        5.698      857.467
04/27/2014  00:52:00     -276.467      -61.577        3.753      150.656      106.118       64.667    22697.335    11260.929     4181.856        5.918        1.907      283.242       57.903        0.042      335.204        5.678      857.512
04/27/2014  00:53:00     -439.067        4.462      -27.503      199.572      151.590       74.558    39829.018    22979.426     5558.873       13.095        3.418      439.089       83.251        0.036      335.217        5.701      857.545
04/27/2014  00:54:00     -420.291      -47.598      -20.077      173.303      161.262       78.353    30034.083    26005.387     6139.151       12.073        3.109      422.977       84.106        0.040      335.190        5.657      857.554
04/27/2014  00:55:00     -378.831      -48.057       -7.519      191.903      161.020       88.573    36826.580    25927.346     7845.256       10.822        3.530      381.867       94.595        0.061      335.230        5.721      857.510
04/27/2014  00:56:00     -304.831      -94.366        0.549      179.207      152.744       75.575    32115.150    23330.652     5711.623        8.148        3.058      319.103       90.153        0.080      335.224        5.712      857.487
04/27/2014  00:57:00     -482.201     -115.051      -32.815      214.150      177.356       92.697    45860.394    31455.325     8592.648       16.635        4.295      495.736       96.628        0.038      335.292        5.825      857.389
04/27/2014  00:58:00     -606.579     -134.689      -39.471      180.718      160.220       84.780    32659.132    25670.434     7187.653       22.656        3.276      621.353       87.670        0.020      335.329        5.887      857.366
04/27/2014  00:59:00     -436.167     -136.405      -18.513      199.006      170.659       81.868    39603.478    29124.651     6702.358       14.230        3.772      456.999       80.968        0.031      335.279        5.803      857.369
04/27/2014  01:00:00     -643.201      -57.244      -27.179      189.415      173.815       89.957    35878.134    30211.674     8092.218       24.594        3.709      645.743       77.333        0.014      335.349        5.921      857.348
04/27/2014  01:01:00     -555.165     -128.461      -35.184      226.376      184.370      105.244    51246.039    33992.118    11076.307       21.111        4.816      569.834      110.327        0.037      335.326        5.881      857.326
04/27/2014  01:02:00     -527.453     -142.692      -24.316      255.925      181.518       95.783    65497.621    32948.671     9174.363       20.337        5.381      546.413      111.427        0.042      335.345        5.914      857.327
04/27/2014  01:03:00     -464.129     -101.320      -26.891      225.994      148.778       78.698    51073.128    22134.996     6193.351       15.289        3.970      475.059       99.086        0.044      335.322        5.876      857.322
04/27/2014  01:04:00     -496.915     -109.424      -26.371      169.918      157.759       90.204    28872.008    24888.036     8136.683       16.073        3.095      508.820       92.035        0.033      335.295        5.830      857.367
04/27/2014  01:05:00     -390.784      -90.888       -3.013      196.229      155.244       88.233    38505.915    24100.781     7785.013       11.567        3.520      401.214       97.863        0.059      335.270        5.790      857.379
04/27/2014  01:06:00     -407.523     -177.702      -13.751      185.263      134.604       71.322    34322.360    18118.210     5086.813       12.767        2.876      444.582       68.742        0.024      335.227        5.717      857.398
04/27/2014  01:07:00     -441.349     -120.446       -0.629      190.876      127.323       86.655    36433.498    16211.035     7509.060       13.471        3.008      457.489       98.384        0.046      335.210        5.688      857.400
04/27/2014  01:08:00     -452.903      -75.775      -11.694      234.870      156.567       91.105    55163.734    24513.294     8300.041       14.947        4.399      459.198      113.142        0.061      335.204        5.679      857.409
04/27/2014  01:09:00     -451.972      -66.083      -10.904      181.654      132.132       98.223    32998.283    17458.947     9647.735       13.442        3.005      456.778      100.634        0.049      335.164        5.614      857.425
04/27/2014  01:10:00     -477.197     -184.084      -15.610      206.476      152.427       93.199    42632.242    23234.021     8685.985       16.819        3.728      511.472       96.931        0.036      335.159        5.604      857.416
04/27/2014  01:11:00     -332.021      -31.681       -3.749      170.323      156.853       81.210    29010.044    24602.998     6595.007        8.572        3.010      333.529       77.577        0.054      335.150        5.591      857.390
04/27/2014  01:12:00     -381.387       -3.144      -26.466      175.882      136.088       75.845    30934.480    18519.934     5752.389       10.068        2.760      381.400       80.650        0.045      335.153        5.596      857.364
04/27/2014  01:13:00     -337.004      -84.171        1.536      216.316      141.545       82.988    46792.533    20035.051     6887.021        9.717        3.686      347.356      102.475        0.087      335.161        5.610      857.357
04/27/2014  01:14:00     -250.728     -130.132        0.610      154.054      137.871       79.530    23732.702    19008.322     6325.099        6.442        2.453      282.486       86.162        0.093      335.179        5.640      857.332
04/27/2014  01:15:00     -242.940      -12.534        3.554      205.862       92.828       79.172    42379.260     8617.062     6268.273        5.822        2.863      243.263      100.026        0.169      335.165        5.616      857.336
04/27/2014  01:16:00     -443.931      -87.276      -26.983      187.184      118.083       70.779    35037.961    13943.508     5009.720       12.969        2.700      452.428       76.442        0.029      335.153        5.596      857.349
04/27/2014  01:17:00     -470.832     -111.492      -24.899      194.776      143.624       65.275    37937.591    20627.856     4260.808       14.877        3.141      483.852       79.847        0.027      335.178        5.636      857.310
04/27/2014  01:18:00     -376.507      -97.810      -11.582      140.452      114.740       60.901    19726.852    13165.363     3708.917        9.402        1.830      389.004       66.953        0.030      335.148        5.588      857.302
04/27/2014  01:19:00     -350.500      -61.129      -14.303      160.734      130.292       71.361    25835.281    16975.958     5092.378        8.734        2.395      355.790       71.155        0.040      335.136        5.569      857.295
04/27/2014  01:20:00     -426.754     -116.984      -14.250      173.342      160.767       81.046    30047.492    25846.038     6568.481       12.922        3.123      442.498       88.623        0.040      335.158        5.604      857.274
04/27/2014  01:21:00     -434.810     -147.229      -22.823      154.022      135.258       80.924    23722.642    18294.669     6548.759       12.990        2.428      459.061       67.306        0.021      335.167        5.619      857.276
04/27/2014  01:22:00     -224.654      -42.042        4.827      177.975      111.035       72.629    31675.013    12328.807     5274.973        5.076        2.464      228.554       68.190        0.089      335.172        5.627      857.295
04/27/2014  01:23:00     -379.314     -129.273      -30.383      187.024      156.877       76.612    34978.079    24610.379     5869.470       11.347        3.273      400.738       81.667        0.042      335.202        5.675      857.315
04/27/2014  01:24:00     -399.022     -135.435      -14.569      198.563      127.509       78.456    39427.071    16258.585     6155.412       11.979        3.092      421.380       89.346        0.045      335.204        5.679      857.358
04/27/2014  01:25:00     -376.383     -137.485      -12.632      182.639      154.456       77.679    33357.125    23856.675     6034.039       11.197        3.162      400.707       88.805        0.049      335.202        5.677      857.403
04/27/2014  01:26:00     -218.108     -123.317       14.642      214.644      115.717       80.992    46072.107    13390.436     6559.729        6.449        3.301      250.555      108.238        0.187      335.228        5.720      857.399
04/27/2014  01:27:00     -326.471     -222.132      -10.709      146.175      125.465       66.486    21367.202    15741.567     4420.330        9.878        2.076      394.875       67.188        0.029      335.262        5.776      857.350
04/27/2014  01:28:00     -342.129     -188.817      -13.068      147.996      123.345       64.832    21902.881    15213.918     4203.145        9.709        2.066      390.774       65.070        0.028      335.248        5.752      857.318
04/27/2014  01:29:00     -132.519     -144.293        6.626      133.377      124.420       63.835    17789.530    15480.345     4074.876        3.788        1.867      195.913       76.930        0.154      335.258        5.770      857.295
04/27/2014  01:30:00     -267.313     -166.834       -6.088      161.288      158.237       75.129    26013.743    25039.036     5644.360        7.800        2.835      315.102       80.192        0.065      335.255        5.764      857.288
04/27/2014  01:31:00     -133.512     -143.407        7.847      103.839       92.614       52.102    10782.547     8577.340     2714.635        3.026        1.104      195.937       45.499        0.054      335.258        5.770      857.303
04/27/2014  01:32:00     -299.399     -147.204        1.738      164.943      142.448       65.883    27206.097    20291.374     4340.568        8.156        2.592      333.630       78.190        0.055      335.196        5.665      857.321
04/27/2014  01:33:00     -202.272     -156.765       -4.085      123.145       96.267       50.503    15164.603     9267.297     2550.569        4.624        1.349      255.909       51.863        0.041      335.193        5.661      857.372
04/27/2014  01:34:00     -265.216     -180.998       -4.780      169.556      112.068       62.238    28749.269    12559.215     3873.550        7.414        2.259      321.092       77.063        0.058      335.207        5.683      857.396
04/27/2014  01:35:00     -253.943     -200.750       -6.223      119.894       87.525       62.100    14374.465     7660.553     3856.468        6.535        1.295      323.709       64.427        0.040      335.174        5.630      857.408
04/27/2014  01:36:00     -121.885     -121.034        4.778      105.807       95.785       46.283    11195.115     9174.793     2142.156        2.602        1.126      171.771       60.541        0.124      335.191        5.659      857.401
04/27/2014  01:37:00     -109.307     -184.239       -0.575       87.715      102.179       41.566     7693.937    10440.508     1727.697        3.287        0.993      214.224       37.936        0.031      335.207        5.683      857.366
04/27/2014  01:38:00      -58.172      -99.742       14.509       98.612      113.333       52.694     9724.425    12844.293     2776.608        1.944        1.267      115.466       46.914        0.165      335.236        5.733      857.302
04/27/2014  01:39:00     -101.692     -242.633        9.529       80.206       59.870       45.897     6432.929     3584.429     2106.565        4.071        0.606      263.082       32.632        0.015      335.267        5.782      857.219
04/27/2014  01:40:00     -143.937     -165.456       -6.482      132.543       80.367       58.110    17567.767     6458.805     3376.721        3.776        1.370      219.302       59.430        0.073      335.323        5.878      857.187
04/27/2014  01:41:00     -192.651      -64.171       14.451      117.262       78.555       49.926    13750.264     6170.839     2492.650        3.192        1.121      203.057       62.765        0.096      335.269        5.788      857.201
04/27/2014  01:42:00     -207.061     -121.229      -10.073      100.068      105.751       54.158    10013.694    11183.339     2933.095        4.090        1.207      239.939       50.040        0.043      335.252        5.758      857.248
04/27/2014  01:43:00     -288.592     -135.678       -0.740      127.673       68.356       56.296    16300.479     4672.542     3169.279        6.291        1.207      318.894       43.188        0.018      335.296        5.832      857.270
04/27/2014  01:44:00     -218.634     -196.767        7.300      168.404      162.155       71.079    28359.900    26294.274     5052.259        7.313        2.985      294.139       97.298        0.109      335.309        5.854      857.279
04/27/2014  01:45:00     -333.356     -221.543       -5.443      162.614      120.337       71.454    26443.385    14481.113     5105.624       10.312        2.302      400.259       73.175        0.033      335.299        5.836      857.223
04/27/2014  01:46:00     -338.469     -243.700       -8.224      157.269      128.629       73.224    24733.606    16545.500     5361.698       11.032        2.332      417.075       76.143        0.033      335.304        5.846      857.146
04/27/2014  01:47:00     -177.735     -185.173       16.908      155.782      125.637       62.366    24268.170    15784.714     3889.539        5.504        2.197      256.668       57.655        0.050      335.292        5.825      857.115
04/27/2014  01:48:00     -180.069     -141.460       32.269      150.090      116.804       70.318    22527.012    13643.059     4944.637        4.729        2.056      228.988       84.157        0.135      335.298        5.836      857.097
04/27/2014  01:49:00     -235.018     -132.449       -2.589      109.692       93.525       59.643    12032.358     8746.980     3557.236        4.855        1.217      269.771       53.418        0.039      335.278        5.802      857.140
04/27/2014  01:50:00     -267.834     -130.157       -5.035      136.221      142.871       63.878    18556.206    20412.121     4080.387        6.587        2.152      297.785       70.392        0.056      335.275        5.796      857.204
04/27/2014  01:51:00     -128.910     -102.032        4.853      114.037       82.858       52.691    13004.482     6865.471     2776.382        2.484        1.132      164.403       56.295        0.117      335.283        5.813      857.207
04/27/2014  01:52:00     -158.150     -141.164       -1.262      137.047       77.843       57.438    18781.785     6059.483     3299.075        3.653        1.407      211.987       65.002        0.094      335.320        5.871      857.219
04/27/2014  01:53:00     -155.446     -105.039       14.646      130.688      103.924       68.904    17079.320    10800.191     4747.738        3.401        1.631      187.608       80.926        0.186      335.292        5.826      857.206
04/27/2014  01:54:00     -283.121     -208.683      -14.293      142.579      113.867       67.803    20328.691    12965.771     4597.262        8.089        1.895      351.719       68.511        0.038      335.299        5.836      857.185
04/27/2014  01:55:00     -115.961     -114.411       12.678      129.879       83.402       63.896    16868.481     6955.909     4082.732        2.730        1.395      162.901       69.100        0.180      335.318        5.869      857.194
04/27/2014  01:56:00     -324.346     -154.677       -4.886      201.033      131.372       74.441    40414.455    17258.631     5541.525        9.617        3.161      359.340       86.835        0.058      335.304        5.847      857.211
04/27/2014  01:57:00     -342.114     -194.500      -10.441      208.135      188.500       92.554    43320.121    35532.333     8566.322       12.118        4.371      393.538      110.932        0.079      335.342        5.907      857.232
04/27/2014  01:58:00     -192.623      -47.411       -4.978      135.053       83.330       64.260    18239.243     6943.815     4129.305        3.434        1.466      198.372       69.003        0.121      335.360        5.939      857.234
04/27/2014  01:59:00     -360.123      -79.735      -23.232      199.851      147.844       67.864    39940.366    21857.742     4605.575       10.148        3.320      368.845       73.839        0.040      335.365        5.947      857.235
04/27/2014  02:00:00     -281.249      -44.290       -3.592      146.604      169.245       66.004    21492.862    28643.873     4356.462        6.777        2.725      284.715       68.604        0.058      335.381        5.973      857.223
04/27/2014  02:01:00     -194.428     -112.450       12.186      150.061      114.674       67.253    22518.379    13150.098     4523.020        4.539        2.010      224.604       66.871        0.089      335.418        6.035      857.200
04/27/2014  02:02:00     -292.068     -163.957       -8.983      175.324      154.320       80.419    30738.490    23814.774     6467.238        8.663        3.051      334.941       84.304        0.063      335.406        6.017      857.177
04/27/2014  02:03:00     -296.700     -166.479       -2.647      217.691      152.296       85.900    47389.530    23194.190     7378.760        9.684        3.898      340.215       91.025        0.072      335.388        5.985      857.163
04/27/2014  02:04:00     -137.105     -114.337       17.187      170.525      142.177       79.403    29078.768    20214.239     6304.860        4.387        2.780      178.524       86.631        0.235      335.393        5.995      857.119
04/27/2014  02:05:00     -181.571      -71.170        8.848      156.401      124.390       70.037    24461.321    15472.809     4905.146        4.147        2.242      195.021       74.528        0.146      335.389        5.987      857.108
04/27/2014  02:06:00     -357.673     -105.948       -3.624      254.889      156.519       88.142    64968.241    24498.301     7769.094       11.818        4.862      373.035      101.489        0.074      335.378        5.968      857.104
04/27/2014  02:07:00     -175.204      -84.222       17.787      162.403      136.470       70.944    26374.643    18624.037     5033.032        4.406        2.502      194.396       88.793        0.209      335.404        6.012      857.107
04/27/2014  02:08:00     -242.245     -111.123      -13.153      148.477      117.422       83.349    22045.288    13787.953     6947.019        5.698        2.139      266.516       81.682        0.094      335.401        6.006      857.110
04/27/2014  02:09:00     -251.844     -121.043        9.030      223.480      151.021       81.202    49943.401    22807.462     6593.694        7.874        3.967      279.423       91.433        0.107      335.451        6.090      857.090
04/27/2014  02:10:00     -387.444     -132.495      -21.506      266.387      131.875       86.097    70961.906    17390.989     7412.757       13.193        4.788      409.473      107.799        0.069      335.457        6.100      857.032
04/27/2014  02:11:00     -331.386     -144.064       -4.191      193.989      159.351       92.112    37631.718    25392.679     8484.570       10.103        3.575      361.347       93.547        0.067      335.458        6.103      856.959
04/27/2014  02:12:00     -170.876      -82.766        6.660      144.928      119.726       82.853    21004.201    14334.413     6864.575        3.914        2.110      189.865       79.631        0.176      335.471        6.123      856.937
04/27/2014  02:13:00     -376.410      -92.421       -5.842      199.607      135.329       85.656    39842.995    18313.861     7337.018       10.786        3.275      387.590      100.214        0.067      335.408        6.018      856.950
04/27/2014  02:14:00     -382.002     -128.463       -8.779      207.561      172.801       98.688    43081.597    29860.312     9739.239       12.258        4.134      403.024      106.221        0.069      335.401        6.007      856.978
04/27/2014  02:15:00     -309.565     -113.593       -7.501      202.097      138.172       86.939    40843.290    19091.496     7558.306        8.813        3.375      329.748       88.887        0.073      335.397        6.000      857.036
04/27/2014  02:16:00     -477.859     -221.052      -17.196      235.970      204.985      122.762    55681.881    42018.873    15070.439       19.512        5.639      526.511      131.107        0.062      335.395        5.996      857.049
04/27/2014  02:17:00     -439.264     -258.460       -8.020      181.302      178.137       91.063    32870.442    31732.623     8292.502       16.634        3.645      509.661      103.270        0.041      335.391        5.991      857.042
04/27/2014  02:18:00     -427.688     -164.873      -32.907      277.056      162.987      106.295    76760.170    26564.874    11298.593       16.288        5.731      458.367      123.021        0.072      335.394        5.996      857.060
04/27/2014  02:19:00     -576.787     -104.615      -37.487      250.804      173.609       94.682    62902.793    30140.089     8964.680       22.350        5.100      586.198      110.547        0.036      335.393        5.993      857.135
04/27/2014  02:20:00     -453.298      -66.934       -2.781      236.639      191.209      106.139    55997.874    36561.056    11265.452       15.687        5.191      458.213      123.144        0.072      335.381        5.973      857.131
04/27/2014  02:21:00     -484.399      -85.119      -16.347      200.934      165.061       98.068    40374.510    27245.198     9617.318       15.968        3.862      491.821      102.066        0.043      335.362        5.942      857.117
04/27/2014  02:22:00     -279.642      -92.274        0.878      214.642      196.594      101.548    46071.083    38649.051    10311.925        9.085        4.752      294.472      103.617        0.124      335.375        5.962      857.121
04/27/2014  02:23:00     -276.661     -126.299       12.060      300.813      197.566      109.912    90488.309    39032.243    12080.726       11.709        7.080      304.127      153.364        0.254      335.298        5.836      857.155
04/27/2014  02:24:00     -209.017     -107.282       -6.267      188.165      143.298       81.875    35406.152    20534.421     6703.486        5.893        3.132      234.942       70.786        0.091      335.281        5.807      857.166
04/27/2014  02:25:00     -320.917      -99.141        8.143      213.371      155.729       88.206    45527.143    24251.517     7780.298        9.521        3.878      335.882       93.325        0.077      335.271        5.791      857.221
04/27/2014  02:26:00     -374.573     -185.678      -13.739      167.274      173.852       81.405    27980.469    30224.539     6626.764       11.989        3.242      418.068       86.874        0.043      335.265        5.780      857.256
04/27/2014  02:27:00     -346.139      -96.167      -24.083      228.479      147.790       95.302    52202.673    21841.900     9082.480       10.637        4.156      359.250      115.198        0.103      335.296        5.832      857.228
04/27/2014  02:28:00     -475.326      -85.804      -12.266      211.457      130.577       72.531    44713.893    17050.369     5260.777       15.022        3.351      483.009       91.057        0.036      335.316        5.865      857.243
04/27/2014  02:29:00     -398.745      -85.750       -2.753      189.190      139.859       91.862    35792.896    19560.572     8438.668       11.506        3.190      407.861       88.156        0.047      335.324        5.879      857.234
04/27/2014  02:30:00     -438.789      -79.470      -10.900      215.543      143.021       86.965    46458.596    20455.049     7562.960       13.671        3.724      445.927      103.403        0.054      335.346        5.915      857.241
04/27/2014  02:31:00     -541.410     -172.545      -28.607      211.926      144.181       75.619    44912.611    20788.208     5718.269       19.755        3.571      568.240       85.258        0.023      335.314        5.863      857.222
04/27/2014  02:32:00     -507.688      -85.860      -20.127      188.180      127.850       77.501    35411.834    16345.635     6006.375       16.163        2.888      514.897       85.260        0.027      335.348        5.919      857.153
04/27/2014  02:33:00     -410.952      -98.233      -26.358      182.212       92.393       61.838    33201.381     8536.494     3823.905       11.238        2.278      422.529       75.061        0.032      335.342        5.908      857.113
04/27/2014  02:34:00     -272.073      -70.463       -3.157      141.103       87.905       54.938    19909.984     7727.289     3018.186        5.482        1.533      281.049       71.560        0.065      335.341        5.906      857.091
04/27/2014  02:35:00     -257.606      -53.783       -2.454       95.413       89.369       51.066     9103.547     7986.885     2607.765        4.448        0.985      263.161       49.594        0.036      335.315        5.865      857.075
04/27/2014  02:36:00     -504.740      -61.936      -42.506      211.267      134.953       77.657    44633.657    18212.304     6030.587       16.463        3.444      508.526      100.747        0.039      335.270        5.788      857.047
04/27/2014  02:37:00     -329.555     -137.943      -12.971      166.203      150.227       72.428    27623.532    22568.097     5245.866        9.161        2.772      357.260       77.531        0.047      335.270        5.789      857.031
04/27/2014  02:38:00     -267.118      -90.785      -11.389      177.014      122.916       65.962    31333.933    15108.362     4350.958        6.525        2.540      282.124       81.951        0.084      335.294        5.829      857.005
04/27/2014  02:39:00     -335.279       13.794       -5.587      167.381       96.879       73.786    28016.447     9385.551     5444.326        7.773        2.142      335.562       74.624        0.049      335.239        5.736      856.966
04/27/2014  02:40:00     -242.924      -47.148        2.440      163.860      123.653       69.000    26850.086    15289.997     4760.971        5.406        2.345      247.457       78.238        0.100      335.274        5.796      856.934
04/27/2014  02:41:00     -349.563     -103.474        1.438      191.530      137.732       70.312    36683.661    18970.191     4943.838        9.674        3.030      364.556       83.668        0.053      335.251        5.759      856.938
04/27/2014  02:42:00     -342.956      -23.190      -16.646      162.048      106.572       76.181    26259.710    11357.667     5803.531        8.092        2.171      343.739       86.831        0.064      335.223        5.711      856.950
04/27/2014  02:43:00     -270.545        7.320        7.084      140.421      108.744       66.291    19718.186    11825.162     4394.513        5.461        1.797      270.644       66.224        0.060      335.218        5.701      856.936
04/27/2014  02:44:00     -228.340      -12.265        6.345      137.155       87.229       62.092    18811.607     7608.940     3855.436        4.130        1.514      228.669       65.283        0.082      335.220        5.705      856.918
04/27/2014  02:45:00     -184.962     -138.233        1.448      132.502      129.815       64.011    17556.911    16851.817     4097.464        4.591        1.925      230.910       72.081        0.097      335.248        5.752      856.892
04/27/2014  02:46:00     -292.563      -99.436       -8.172      204.543      148.486       78.583    41838.002    22048.196     6175.298        8.279        3.503      309.000       94.907        0.094      335.260        5.771      856.823
04/27/2014  02:47:00     -297.642      -98.779       -7.231      210.441      156.150       86.129    44285.533    24382.885     7418.168        8.723        3.804      313.604       98.112        0.098      335.262        5.776      856.800
04/27/2014  02:48:00     -269.324     -128.485       -5.595      164.977      136.704       84.692    27217.353    18688.109     7172.730        7.107        2.654      298.402       94.322        0.100      335.279        5.804      856.786
04/27/2014  02:49:00     -312.348     -105.691       -3.638      144.392      159.289       72.098    20848.945    25373.083     5198.066        8.007        2.571      329.745       73.398        0.050      335.282        5.809      856.769
04/27/2014  02:50:00     -317.937      -34.822      -10.565      145.684      128.669       83.611    21223.857    16555.703     6990.857        7.358        2.239      319.839       67.742        0.045      335.322        5.876      856.781
04/27/2014  02:51:00     -304.642      -83.446        1.225      192.144      156.907       79.511    36919.229    24619.682     6322.067        8.380        3.393      315.864       96.617        0.094      335.319        5.870      856.832
04/27/2014  02:52:00     -380.218     -127.711      -18.282      222.986      173.577       75.621    49722.886    30129.113     5718.509       12.337        4.279      401.094       83.989        0.044      335.292        5.825      856.869
04/27/2014  02:53:00     -409.655     -135.480       -8.033      164.084      107.913       71.020    26923.646    11645.201     5043.781       11.492        2.181      431.476       70.316        0.027      335.263        5.777      856.879
04/27/2014  02:54:00     -332.160     -194.087      -15.765      133.727      123.178       60.513    17882.792    15172.725     3661.867        9.248        1.836      384.708       62.784        0.027      335.282        5.810      856.862
04/27/2014  02:55:00     -374.967     -210.187      -13.274      186.662      130.539       80.124    34842.829    17040.536     6419.910       12.162        2.915      429.859       92.384        0.046      335.276        5.799      856.802
04/27/2014  02:56:00     -349.246     -250.787      -22.599      129.902      113.231       66.303    16874.648    12821.349     4396.147       10.973        1.705      429.962       71.380        0.028      335.265        5.780      856.815
04/27/2014  02:57:00     -236.237     -146.081       -0.143      118.933      100.782       59.628    14145.032    10157.071     3555.451        5.250        1.393      277.754       63.795        0.053      335.300        5.839      856.840
04/27/2014  02:58:00     -241.340     -128.286        1.282      147.285       87.041       61.166    21692.996     7576.128     3741.274        5.385        1.651      273.317       74.364        0.074      335.345        5.913      856.811
04/27/2014  02:59:00     -245.921     -215.142        1.675      134.221       97.505       62.067    18015.201     9507.155     3852.334        6.906        1.569      326.747       51.048        0.024      335.329        5.888      856.780
04/27/2014  03:00:00     -271.389     -187.429       -2.556      121.657      114.495       64.919    14800.337    13109.041     4214.505        7.045        1.606      329.821       63.910        0.038      335.282        5.807      856.792
04/27/2014  03:01:00     -265.810     -207.647       -8.952      133.638      133.197       71.105    17859.211    17741.418     5055.964        7.725        2.033      337.301       67.078        0.040      335.285        5.814      856.767
04/27/2014  03:02:00     -265.590     -167.284       -3.612      145.565      119.011       60.970    21189.026    14163.673     3717.336        6.879        1.954      313.882       61.355        0.038      335.317        5.867      856.736
04/27/2014  03:03:00     -211.327     -129.826        0.491      129.500      110.703       57.175    16770.178    12255.225     3269.022        4.690        1.615      248.020       65.406        0.070      335.328        5.885      856.736
04/27/2014  03:04:00     -146.945     -180.245       10.874      108.127      128.088       54.295    11691.449    16406.544     2947.990        4.262        1.552      232.553       47.517        0.042      335.317        5.867      856.743
04/27/2014  03:05:00     -149.226      -81.724       -0.839       75.458       78.021       41.135     5693.915     6087.345     1692.091        2.121        0.674      170.139       37.463        0.048      335.317        5.867      856.753
04/27/2014  03:06:00     -207.692      -94.999       10.281      122.189      128.425       57.354    14930.212    16493.039     3289.448        4.348        1.736      228.387       63.018        0.076      335.322        5.876      856.738
04/27/2014  03:07:00     -210.099      -40.057        1.468       94.816       65.463       45.319     8990.164     4285.391     2053.795        3.054        0.766      213.883       48.511        0.051      335.321        5.873      856.735
04/27/2014  03:08:00     -185.251     -117.221        1.821      130.078      107.015       68.255    16920.258    11452.142     4658.732        4.054        1.652      219.223       70.333        0.103      335.343        5.911      856.749
04/27/2014  03:09:00     -279.316     -119.267      -25.030      183.173      112.694       69.039    33552.197    12699.842     4766.346        7.193        2.551      303.714       84.273        0.077      335.349        5.920      856.720
04/27/2014  03:10:00     -250.449      -90.038        5.502      149.953      142.953       73.852    22485.923    20435.418     5454.076        5.961        2.419      266.142       66.275        0.062      335.342        5.909      856.715
04/27/2014  03:11:00     -148.064      -49.097       12.152      118.199      116.390       64.503    13970.987    13546.610     4160.593        2.807        1.584      155.991       53.884        0.119      335.371        5.956      856.704
04/27/2014  03:12:00     -406.569     -102.878      -20.533      189.518      136.514       75.134    35916.960    18636.130     5645.047       11.824        3.010      419.384       91.092        0.047      335.335        5.897      856.713
04/27/2014  03:13:00     -314.024      -29.623      -19.339      140.890      105.630       58.547    19850.126    11157.708     3427.714        6.714        1.722      315.418       63.326        0.040      335.334        5.896      856.704
04/27/2014  03:14:00     -534.660      -51.520      -25.551      191.386      154.472       70.168    36628.526    23861.726     4923.538       17.728        3.271      537.137       79.985        0.022      335.289        5.820      856.708
04/27/2014  03:15:00     -283.843     -152.658      -18.705      150.380      119.832       64.580    22614.050    14359.590     4170.535        7.267        2.057      322.291       72.696        0.051      335.306        5.848      856.711
04/27/2014  03:16:00     -208.703      -83.597       -7.341      178.207      116.993       74.907    31757.659    13687.359     5611.039        5.082        2.553      224.823       74.090        0.109      335.343        5.911      856.694
04/27/2014  03:17:00     -260.333      -60.389       -4.506      165.506      106.931       73.549    27392.112    11434.273     5409.522        5.783        2.212      267.245       86.960        0.106      335.297        5.834      856.707
04/27/2014  03:18:00     -335.986      -91.294      -44.794      186.208      128.187       68.856    34673.390    16431.975     4741.137        8.953        2.792      348.168       70.989        0.042      335.291        5.824      856.718
04/27/2014  03:19:00     -158.170      -13.934       -1.664      107.631       79.336       45.329    11584.480     6294.187     2054.743        2.257        0.997      158.783       46.571        0.086      335.289        5.819      856.718
04/27/2014  03:20:00     -303.446     -175.097      -11.992      145.965      153.066       65.366    21305.874    23429.126     4272.692        8.594        2.450      350.341       66.033        0.036      335.272        5.792      856.704
04/27/2014  03:21:00     -345.972     -175.271      -18.435      161.145      152.053       82.809    25967.570    23120.018     6857.366       10.334        2.797      387.836       69.435        0.032      335.252        5.757      856.699
04/27/2014  03:22:00     -298.347     -107.163      -19.034      151.748      115.168       68.513    23027.497    13263.767     4694.048        7.091        2.049      317.009       68.068        0.046      335.251        5.756      856.712
04/27/2014  03:23:00     -256.684      -72.226        6.816      180.983      159.895       68.643    32754.931    25566.312     4711.830        6.708        3.152      266.652       72.404        0.074      335.221        5.707      856.732
04/27/2014  03:24:00     -475.508     -110.086      -24.867      203.266      144.262       72.184    41317.034    20811.515     5210.467       15.308        3.367      488.084       73.569        0.023      335.190        5.656      856.769
04/27/2014  03:25:00     -346.528      -49.817       -5.326      164.442      112.588       73.408    27041.240    12676.148     5388.668        8.384        2.255      350.090       80.916        0.053      335.188        5.652      856.806
04/27/2014  03:26:00     -399.881      -99.482       -5.097      159.456      132.885       78.789    25426.105    17658.328     6207.737       10.955        2.465      412.070       82.812        0.040      335.154        5.599      856.845
04/27/2014  03:27:00     -496.806     -121.469      -20.355      152.254      217.087       85.697    23181.388    47126.557     7343.893       16.980        3.883      511.440       84.755        0.027      335.150        5.591      856.878
04/27/2014  03:28:00     -357.326     -208.139       -8.680      162.710      130.598       78.860    26474.386    17055.710     6218.832       11.040        2.487      413.526       75.717        0.034      335.132        5.562      856.901
04/27/2014  03:29:00     -264.232     -107.258      -11.235      160.205      116.241       57.907    25665.664    13511.927     3353.230        6.198        2.127      285.172       77.542        0.074      335.147        5.588      856.935
04/27/2014  03:30:00     -197.788      -96.817       -9.486      128.763       95.648       67.228    16579.881     9148.502     4519.589        3.941        1.512      220.213       56.795        0.067      335.153        5.597      856.936
04/27/2014  03:31:00     -148.178      -26.247        9.973      134.419       97.586       52.053    18068.570     9522.979     2709.488        2.652        1.515      150.485       63.786        0.180      335.189        5.657      856.932
04/27/2014  03:32:00     -168.455      -27.322        0.768      119.221       67.269       43.475    14213.668     4525.113     1890.087        2.487        1.031      170.656       46.706        0.075      335.150        5.591      856.939
04/27/2014  03:33:00     -217.442      -35.176       -3.200      110.195       76.268       46.066    12143.027     5816.773     2122.046        3.430        1.004      220.269       51.103        0.054      335.118        5.539      856.982
04/27/2014  03:34:00     -278.362      -89.546      -21.473      191.941       86.245       57.910    36841.196     7438.139     3353.541        6.679        2.382      292.411       79.141        0.073      335.157        5.604      856.982
04/27/2014  03:35:00     -248.783      -28.226      -13.550       89.548       88.286       42.688     8018.856     7794.362     1822.280        4.025        0.882      250.379       39.769        0.025      335.145        5.583      857.002
04/27/2014  03:36:00     -164.404      -46.583       -0.882      100.056       65.078       46.149    10011.157     4235.152     2129.709        2.278        0.819      170.876       53.419        0.098      335.164        5.615      857.039
04/27/2014  03:37:00     -274.447      -56.512       -2.779      152.209      117.655       74.499    23167.490    13842.611     5550.144        6.053        2.128      280.205       80.411        0.082      335.154        5.597      857.090
04/27/2014  03:38:00     -195.552      -74.237        6.444      135.904      110.468       60.224    18470.007    12203.140     3626.944        3.904        1.715      209.169       66.345        0.101      335.142        5.579      857.111
04/27/2014  03:39:00     -379.017       19.955      -25.151      117.518       94.747       58.074    13810.492     8977.000     3372.569        8.542        1.308      379.542       63.586        0.028      335.160        5.608      857.088
04/27/2014  03:40:00     -256.464      -67.331      -15.310       97.772      117.169       58.026     9559.416    13728.617     3366.984        4.859        1.333      265.155       58.582        0.049      335.154        5.598      857.001
04/27/2014  03:41:00     -238.091       14.631      -25.399       91.880      113.288       60.178     8441.996    12834.262     3621.355        4.122        1.245      238.540       59.050        0.061      335.138        5.572      856.953
04/27/2014  03:42:00     -202.058       38.990      -34.930       77.799      122.473       49.289     6052.688    14999.613     2429.379        3.352        1.174      205.785       31.135        0.023      335.132        5.562      856.937
04/27/2014  03:43:00     -261.191      -77.678      -12.046      117.612      118.029       63.886    13832.541    13930.767     4081.416        5.312        1.592      272.497       57.594        0.045      335.138        5.572      856.942
04/27/2014  03:44:00     -244.083      -92.968      -12.296      141.674       80.641       56.729    20071.565     6502.910     3218.196        4.908        1.490      261.189       54.289        0.043      335.123        5.545      856.917
04/27/2014  03:45:00     -249.994      -89.629       -4.894       96.533       79.656       48.868     9318.668     6345.034     2388.099        4.430        0.903      265.576       51.006        0.037      335.091        5.494      856.910
04/27/2014  03:46:00     -284.359      -96.555      -12.161      101.497       67.791       53.170    10301.732     4595.674     2827.089        5.402        0.886      300.305       53.452        0.032      335.090        5.493      856.888
04/27/2014  03:47:00     -310.489      -51.188      -21.778       98.659      118.154       51.427     9733.659    13960.474     2644.693        6.291        1.317      314.680       49.385        0.025      335.076        5.470      856.914
04/27/2014  03:48:00     -202.337      -57.879      -10.457       95.400       87.907       40.816     9101.184     7727.584     1665.974        3.144        0.925      210.453       44.334        0.044      335.095        5.498      856.907
04/27/2014  03:49:00     -264.684      -63.145       -4.176      119.692      116.020       57.784    14326.198    13460.756     3338.965        5.259        1.556      272.112       61.005        0.050      335.105        5.516      856.864
04/27/2014  03:50:00     -310.277      -67.956      -24.254       79.620       80.220       43.414     6339.377     6435.244     1884.768        5.807        0.733      317.632       41.728        0.017      335.121        5.542      856.886
04/27/2014  03:51:00     -137.261      -61.082       -0.529      104.272       81.293       57.428    10872.726     6608.588     3297.972        2.167        1.039      150.239       54.743        0.133      335.160        5.609      856.916
04/27/2014  03:52:00     -174.833      -33.322        3.712       95.517       77.258       53.193     9123.567     5968.861     2829.458        2.480        0.896      177.981       49.650        0.078      335.125        5.551      856.983
04/27/2014  03:53:00     -257.947        5.608       -5.933      150.940      110.730       64.424    22782.740    12261.084     4150.500        5.289        1.960      258.008       67.631        0.069      335.163        5.613      856.998
04/27/2014  03:54:00     -332.694       25.795      -21.169      124.252      127.464       69.369    15438.598    16247.069     4812.079        7.414        1.825      333.693       54.167        0.026      335.214        5.696      856.954
04/27/2014  03:55:00     -265.668      -72.173       -8.215       92.934       73.783       47.268     8636.642     5443.879     2234.217        4.608        0.816      275.297       45.978        0.028      335.203        5.678      857.007
04/27/2014  03:56:00     -268.330       -8.279      -27.481      101.108       69.150       43.853    10222.864     4781.722     1923.056        4.487        0.846      268.458       51.961        0.037      335.183        5.643      857.026
04/27/2014  03:57:00     -239.242       -9.431      -13.509       74.402       73.925       42.334     5535.666     5464.953     1792.180        3.515        0.640      239.428       42.134        0.031      335.205        5.679      857.023
04/27/2014  03:58:00     -219.692       19.056       -7.935       95.017       58.614       42.087     9028.171     3435.614     1771.280        3.146        0.712      220.517       44.085        0.040      335.185        5.648      857.012
04/27/2014  03:59:00     -143.973      -16.920       -7.341       68.548       74.554       34.396     4698.823     5558.308     1183.102        1.625        0.572      144.964       32.403        0.050      335.185        5.649      857.013
04/27/2014  04:00:00      -86.984       41.581       -3.670       47.356       50.246       23.291     2242.553     2524.640      542.451        0.731        0.265       96.412       21.863        0.051      335.174        5.633      857.032
04/27/2014  04:01:00      -84.524        9.286      -14.300       50.189       57.999       28.064     2518.908     3363.862      787.561        0.705        0.334       85.033       14.620        0.030      335.191        5.660      857.065
04/27/2014  04:02:00      -95.982      -10.491      -13.689       84.251       61.551       32.306     7098.179     3788.549     1043.681        1.072        0.597       96.553       25.021        0.067      335.217        5.703      857.062
04/27/2014  04:03:00     -162.196        8.148      -21.514       67.925       64.418       41.359     4613.770     4149.695     1710.541        1.865        0.524      162.401       25.306        0.024      335.246        5.750      857.056
04/27/2014  04:04:00     -124.328       70.876      -20.077       59.170       52.073       35.129     3501.141     2711.640     1234.070        1.416        0.372      143.111       26.468        0.034      335.265        5.782      857.083
04/27/2014  04:05:00      -45.706       90.809      -13.233       49.084       93.076       34.182     2409.252     8663.075     1168.389        1.137        0.612      101.663       29.062        0.082      335.304        5.846      857.094
04/27/2014  04:06:00      -61.464      101.987      -19.724       75.900       96.935       33.098     5760.761     9396.422     1095.503        1.541        0.813      119.076       35.498        0.089      335.344        5.914      857.120
04/27/2014  04:07:00      -62.919      150.551       -9.339       57.016       54.810       40.370     3250.811     3004.099     1629.709        1.730        0.394      163.170       36.436        0.050      335.320        5.873      857.112
04/27/2014  04:08:00      -93.518      190.574      -18.457       93.330      104.427       55.905     8710.534    10905.038     3125.409        3.407        1.137      212.283       41.416        0.038      335.339        5.905      857.065
04/27/2014  04:09:00     -150.827      146.087      -36.763       59.957       91.616       43.270     3594.817     8393.515     1872.329        2.965        0.693      209.977       44.269        0.044      335.335        5.897      857.039
04/27/2014  04:10:00      -38.290       71.997       -9.140       63.013       83.231       37.084     3970.594     6927.443     1375.226        0.950        0.614       81.546       36.692        0.202      335.388        5.989      857.016
04/27/2014  04:11:00     -123.170      112.312      -13.968      101.925       95.549       44.774    10388.659     9129.568     2004.746        2.475        1.076      166.688       39.342        0.056      335.305        5.848      857.005
04/27/2014  04:12:00     -193.369       13.559        0.845      174.197      153.622       59.763    30344.516    23599.661     3571.653        4.753        2.876      193.844       84.578        0.190      335.337        5.900      856.987
04/27/2014  04:13:00     -278.789      -62.127      -20.640      150.367      134.029       61.824    22610.343    17963.880     3822.148        6.319        2.220      285.627       65.930        0.053      335.310        5.856      857.016
04/27/2014  04:14:00     -433.998     -117.248      -33.052      147.319      124.717       63.260    21702.905    15554.303     4001.792       12.222        2.063      449.557       40.366        0.008      335.356        5.933      857.016
04/27/2014  04:15:00     -382.532      -40.819      -55.308      112.209       81.153       55.296    12590.880     6585.804     3057.598        8.664        1.112      384.704       62.392        0.026      335.354        5.929      857.033
04/27/2014  04:16:00     -151.017      -18.343       -8.321       98.285       72.805       47.864     9659.978     5300.504     2291.009        2.023        0.863      152.127       35.927        0.056      335.369        5.955      857.044
04/27/2014  04:17:00     -142.319      124.746      -27.384       80.408       97.412       48.333     6465.508     9489.155     2336.082        2.742        0.915      189.252       49.176        0.068      335.361        5.941      856.999
04/27/2014  04:18:00     -108.027       93.347       -9.880       68.166      107.414       50.910     4646.613    11537.867     2591.796        1.962        0.939      142.771       53.271        0.139      335.382        5.978      857.004
04/27/2014  04:19:00     -149.063       95.212      -20.704       94.607       90.342       53.412     8950.568     8161.741     2852.802        2.584        0.998      176.876       42.137        0.057      335.394        5.996      857.058
04/27/2014  04:20:00     -191.635        5.047      -25.710      126.402      110.661       49.575    15977.479    12245.800     2457.639        3.404        1.534      191.701       58.053        0.092      335.373        5.962      857.065
04/27/2014  04:21:00     -250.840       28.707      -20.201      191.232      101.539       61.210    36569.771    10310.099     3746.645        5.738        2.531      252.477       87.133        0.119      335.343        5.910      857.021
04/27/2014  04:22:00     -268.570       30.554      -37.269      149.635      147.624       76.533    22390.629    21792.793     5857.359        6.224        2.502      270.302       77.492        0.082      335.341        5.908      857.027
04/27/2014  04:23:00     -211.458       -9.402      -17.689      100.371       80.779       57.822    10074.432     6525.308     3343.430        3.253        0.997      211.666       49.773        0.055      335.347        5.917      857.047
04/27/2014  04:24:00     -189.502      -41.287      -11.220      111.777       90.285       48.087    12494.047     8151.423     2312.366        3.035        1.148      193.947       46.569        0.058      335.345        5.915      857.022
04/27/2014  04:25:00     -247.702      -44.758      -29.152      103.016       87.373       54.238    10612.289     7634.030     2941.773        4.269        1.059      251.713       51.614        0.042      335.365        5.947      856.989
04/27/2014  04:26:00     -281.273      -85.711      -26.217      177.433      117.800       60.875    31482.321    13876.896     3705.804        6.810        2.453      294.042       62.418        0.045      335.347        5.917      856.977
04/27/2014  04:27:00     -271.019      -43.435       -7.036      128.796       92.359       68.905    16588.286     8530.104     4747.865        5.262        1.493      274.478       64.077        0.054      335.360        5.938      856.956
04/27/2014  04:28:00     -415.968      -14.314      -35.879      144.288      132.985       63.895    20819.020    17684.954     4082.535       10.855        2.129      416.214       66.234        0.025      335.312        5.859      856.991
04/27/2014  04:29:00     -504.096      -34.805      -38.548      172.020      127.523       67.238    29590.824    16262.228     4521.006       15.358        2.519      505.296       72.181        0.020      335.261        5.773      856.979
04/27/2014  04:30:00     -413.241        3.962      -26.290      167.134      161.343       75.551    27933.733    26031.462     5707.941       11.556        2.984      413.260       78.026        0.036      335.253        5.761      856.972
04/27/2014  04:31:00     -329.720      -25.038      -21.726      172.665      123.778       63.002    29813.128    15320.997     3969.308        7.945        2.455      330.670       65.578        0.039      335.238        5.736      856.989
04/27/2014  04:32:00     -372.713     -140.964      -14.577      121.083      135.962       60.966    14661.183    18485.646     3716.825        9.792        1.843      398.479       57.415        0.021      335.215        5.698      856.990
04/27/2014  04:33:00     -283.177     -119.245       -3.496      140.181      102.012       53.745    19650.788    10406.361     2888.477        6.368        1.647      307.259       56.360        0.034      335.234        5.728      856.983
04/27/2014  04:34:00     -185.082       -5.603      -13.350      101.146       54.375       42.344    10230.422     2956.656     1792.980        2.472        0.749      185.166       56.063        0.092      335.241        5.739      856.943
04/27/2014  04:35:00     -182.792      -34.804      -13.983       65.893       70.476       37.404     4341.867     4966.796     1399.028        2.276        0.535      186.076       30.994        0.028      335.199        5.671      856.952
04/27/2014  04:36:00     -320.034      -43.899      -21.164      142.487       82.204       47.707    20302.554     6757.487     2275.965        6.706        1.467      323.031       52.410        0.026      335.210        5.688      856.949
04/27/2014  04:37:00     -221.048      -30.004      -23.604       90.666       89.467       45.825     8220.329     8004.301     2099.894        3.432        0.916      223.075       25.103        0.013      335.209        5.688      856.905
04/27/2014  04:38:00     -293.008      -57.573      -53.877      112.281       86.062       58.422    12606.959     7406.732     3413.161        5.774        1.171      298.610       34.796        0.014      335.230        5.720      856.872
04/27/2014  04:39:00     -219.866      -76.006      -14.826       90.667       85.674       56.775     8220.589     7340.000     3223.378        3.656        0.939      232.632       47.506        0.042      335.236        5.731      856.856
04/27/2014  04:40:00     -354.135      -57.259      -17.311      150.414      128.824       76.580    22624.432    16595.632     5864.533        8.703        2.254      358.734       83.185        0.054      335.247        5.750      856.863
04/27/2014  04:41:00     -316.425      -58.798      -15.791      128.868      114.860       61.539    16607.075    13192.798     3787.084        6.870        1.679      321.842       47.215        0.022      335.339        5.903      856.797
04/27/2014  04:42:00     -304.603     -132.285       -7.071      166.649      134.382       69.454    27771.996    18058.492     4823.840        8.048        2.533      332.088       70.691        0.045      335.426        6.048      856.797
04/27/2014  04:43:00     -336.680      -84.348      -22.692      135.302      102.971       62.180    18306.723    10603.097     3866.303        7.687        1.639      347.085       68.121        0.039      335.470        6.122      856.769
04/27/2014  04:44:00     -224.382     -100.975       -2.911      147.196      103.704       62.136    21666.794    10754.537     3860.920        4.841        1.814      246.055       73.369        0.089      335.478        6.138      856.769
04/27/2014  04:45:00     -309.997     -133.480      -11.294      132.998      108.830       55.948    17688.474    11844.017     3130.173        7.335        1.633      337.513       53.316        0.025      335.423        6.045      856.775
04/27/2014  04:46:00     -241.835      -90.050      -13.594       78.919       84.306       43.189     6228.266     7107.537     1865.283        4.099        0.760      258.056       42.282        0.027      335.394        5.995      856.802
04/27/2014  04:47:00     -296.310     -112.370      -13.617      128.519      140.018       56.276    16517.064    19605.009     3166.958        6.994        1.964      316.901       59.409        0.035      335.223        5.712      856.819
04/27/2014  04:48:00     -216.790     -114.579       -9.612      101.116       85.331       44.364    10224.496     7281.313     1968.185        3.984        0.974      245.207       47.286        0.037      335.147        5.585      856.820
04/27/2014  04:49:00     -206.058      -71.948       -2.837      107.453       81.549       51.094    11546.040     6650.180     2610.554        3.422        1.040      218.258       56.677        0.067      335.150        5.592      856.814
04/27/2014  04:50:00     -208.623     -131.486        7.052      131.299       92.873       59.072    17239.518     8625.482     3489.448        4.510        1.468      246.601       57.243        0.054      335.128        5.554      856.839
04/27/2014  04:51:00     -170.507     -116.237       -3.273      115.325       77.710       53.130    13299.891     6038.920     2822.832        3.237        1.108      206.358       63.787        0.096      335.100        5.510      856.850
04/27/2014  04:52:00     -233.094      -90.891      -26.463      110.775       74.877       46.294    12271.163     5606.505     2143.098        4.165        1.001      250.188       58.843        0.055      335.036        5.401      856.815
04/27/2014  04:53:00     -263.937      -67.223       -7.362      105.247       93.179       52.393    11076.862     8682.389     2745.074        4.837        1.125      272.363       49.520        0.033      335.024        5.382      856.784
04/27/2014  04:54:00     -208.614      -71.571        0.601       93.212       68.605       44.444     8688.387     4706.630     1975.271        3.200        0.769      220.549       42.842        0.038      335.010        5.358      856.802
04/27/2014  04:55:00     -251.652      -57.872      -22.769      101.579       92.964       47.457    10318.283     8642.281     2252.154        4.420        1.061      258.221       40.872        0.025      335.017        5.370      856.828
04/27/2014  04:56:00     -114.283     -128.380        0.881       75.865       83.497       42.277     5755.458     6971.669     1787.346        2.203        0.726      171.878       42.479        0.061      335.057        5.438      856.896
04/27/2014  04:57:00     -207.781      -79.948       -0.436       75.070       80.235       52.185     5635.475     6437.692     2723.292        3.218        0.740      222.631       46.077        0.043      335.072        5.461      856.952
04/27/2014  04:58:00     -176.028      -53.243       -8.813      131.056       86.299       54.272    17175.563     7447.458     2945.413        3.073        1.378      183.904       48.157        0.069      335.117        5.537      856.968
04/27/2014  04:59:00      -40.237      -58.798        1.068       81.322       59.999       40.446     6613.273     3599.868     1635.918        0.846        0.592       71.248       33.510        0.221      335.183        5.648      856.953
04/27/2014  05:00:00     -143.397      -76.908        0.484       83.220       65.282       43.143     6925.620     4261.731     1861.285        1.976        0.652      162.719       42.439        0.068      335.262        5.776      856.964
04/27/2014  05:01:00      -86.970      -82.532        7.306       64.406       51.128       31.999     4148.119     2614.109     1023.944        1.111        0.389      119.897       35.050        0.085      335.290        5.823      856.997
04/27/2014  05:02:00     -133.552      -68.083        0.095       51.200       50.573       29.442     2621.427     2557.644      866.834        1.426        0.302      149.905       24.534        0.027      335.258        5.770      857.007
04/27/2014  05:03:00     -140.897      -31.426       -7.693       71.332       51.376       30.541     5088.288     2639.513      932.774        1.478        0.433      144.359       30.992        0.046      335.292        5.825      857.058
04/27/2014  05:04:00     -207.977       -1.052      -18.243       73.088       67.125       38.749     5341.803     4505.794     1501.484        2.747        0.567      207.979       31.340        0.023      335.280        5.804      857.087
04/27/2014  05:05:00     -215.753       46.607       -9.604       60.868       44.551       26.518     3704.904     1984.786      703.209        2.760        0.320      220.729       18.930        0.007      335.210        5.688      857.098
04/27/2014  05:06:00     -144.566        1.077       -9.775       57.306       48.563       26.346     3284.017     2358.391      694.124        1.367        0.317      144.570       23.918        0.027      335.204        5.681      857.130
04/27/2014  05:07:00     -168.203      -86.906       -2.081       39.608       42.509       29.754     1568.762     1807.045      885.303        2.005        0.213      189.328       23.603        0.016      335.244        5.747      857.141
04/27/2014  05:08:00     -169.009     -115.434        3.900      184.704      140.272       71.895    34115.660    19676.215     5168.933        5.042        2.948      204.668       72.086        0.124      335.451        6.091      857.148
04/27/2014  05:09:00     -387.820     -103.291      -30.358      134.765      189.904       62.142    18161.630    36063.480     3861.621       11.003        2.904      401.339       55.943        0.019      335.420        6.039      857.098
04/27/2014  05:10:00     -260.152      -85.896       -4.068      160.270      121.123       70.684    25686.368    14670.797     4996.265        6.020        2.268      273.966       82.729        0.091      335.410        6.022      857.036
04/27/2014  05:11:00     -298.201      -71.485      -15.684      108.465      122.663       51.417    11764.675    15046.127     2643.677        6.186        1.473      306.650       37.616        0.015      335.390        5.989      857.082
04/27/2014  05:12:00     -105.333      -24.909        8.124       59.007       67.811       41.783     3481.848     4598.310     1745.851        1.080        0.491      108.238       38.297        0.125      335.362        5.944      857.091
04/27/2014  05:13:00     -150.663      -36.201      -17.671       68.283       65.750       30.631     4662.551     4323.088      938.248        1.712        0.496      154.952       23.711        0.023      335.326        5.883      857.093
04/27/2014  05:14:00     -252.795       -6.120      -15.156      160.380      140.369       69.878    25721.605    19703.442     4882.934        5.723        2.515      252.870       78.515        0.096      335.250        5.756      857.112
04/27/2014  05:15:00     -402.637      -55.740      -10.495      199.523      164.262       72.311    39809.387    26982.006     5228.952       11.866        3.601      406.477       71.751        0.031      335.179        5.639      857.111
04/27/2014  05:16:00     -233.174      -17.018        4.217      131.182       92.039       63.849    17208.702     8471.264     4076.699        4.221        1.488      233.794       46.684        0.040      335.192        5.659      857.143
04/27/2014  05:17:00     -191.440        8.195        9.999      164.117      115.980       69.176    26934.515    13451.334     4785.352        4.098        2.259      191.615       73.610        0.148      335.177        5.637      857.169
04/27/2014  05:18:00     -212.208     -108.390       -3.835      138.810      109.418       47.732    19268.284    11972.339     2278.345        4.515        1.676      238.287       48.493        0.041      335.193        5.662      857.143
04/27/2014  05:19:00     -318.476     -100.458      -26.005      114.619      123.522       57.729    13137.534    15257.631     3332.612        7.196        1.586      333.945       55.363        0.027      335.111        5.526      857.074
04/27/2014  05:20:00     -263.062     -110.478       -2.241      134.190       96.057       61.254    18007.023     9227.028     3752.069        5.619        1.549      285.319       62.499        0.048      335.131        5.561      857.049
04/27/2014  05:21:00     -394.016     -116.170      -13.447      146.848      177.006       71.324    21564.385    31331.008     5087.166       11.344        2.899      410.784       64.708        0.025      335.076        5.469      857.046
04/27/2014  05:22:00     -336.358     -117.297       -3.175      194.425      144.432       75.309    37801.088    20860.741     5671.386        9.561        3.217      356.224       81.033        0.052      335.074        5.466      857.051
04/27/2014  05:23:00     -483.515      -80.621      -22.712      181.402      175.739       80.194    32906.795    30884.347     6431.067       15.550        3.511      490.191       81.502        0.028      335.061        5.444      857.052
04/27/2014  05:24:00     -180.089      -49.568       -2.939      134.966       92.521       70.545    18215.848     8560.198     4976.635        3.332        1.588      186.786       83.223        0.199      335.087        5.486      857.080
04/27/2014  05:25:00     -367.667      -95.094      -18.063      205.736      110.522       74.388    42327.393    12215.222     5533.593       10.230        3.004      379.765       80.936        0.045      335.054        5.432      857.100
04/27/2014  05:26:00     -460.010     -177.218      -34.679      245.029      145.414       76.049    60039.198    21145.204     5783.415       16.558        4.348      492.966       83.642        0.029      335.048        5.422      857.108
04/27/2014  05:27:00     -254.886     -235.342      -13.149      139.008      120.207       65.962    19323.317    14449.769     4351.048        7.932        1.906      346.919       60.111        0.030      335.059        5.440      857.118
04/27/2014  05:28:00     -226.118      -77.589      -10.932       75.669       72.110       39.537     5725.778     5199.911     1563.174        3.488        0.624      239.060       35.757        0.022      335.048        5.423      857.139
04/27/2014  05:29:00     -204.516     -115.980       -4.711       77.456       91.718       43.069     5999.465     8412.165     1854.936        3.578        0.813      235.114       45.661        0.038      335.048        5.422      857.180
04/27/2014  05:30:00     -188.804      -99.339        8.005      148.330      113.263       57.251    22001.716    12828.612     3277.649        4.184        1.905      213.343       64.461        0.091      335.084        5.482      857.165
04/27/2014  05:31:00     -409.246     -320.196      -28.912      170.636      134.674       81.604    29116.645    18137.064     6659.194       16.237        2.696      519.622       85.811        0.027      335.061        5.443      857.155
04/27/2014  05:32:00     -185.605      -81.308       13.310      115.771      107.793       53.602    13402.991    11619.278     2873.214        3.456        1.395      202.633       59.423        0.086      335.070        5.458      857.205
04/27/2014  05:33:00     -178.960     -105.511      -15.051       86.650      109.662       59.250     7508.169    12025.820     3510.586        3.321        1.152      207.748       46.948        0.051      335.067        5.454      857.157
04/27/2014  05:34:00     -282.810      -40.005      -22.852      186.367       89.303       47.174    34732.531     7975.002     2225.383        6.351        2.247      285.625       42.397        0.022      335.064        5.450      857.167
04/27/2014  05:35:00     -280.637      -86.768      -14.308      137.396       91.014       63.863    18877.762     8283.572     4078.474        5.886        1.562      293.744       69.107        0.055      335.028        5.390      857.151
04/27/2014  05:36:00     -403.715      -60.205      -33.169      143.439      112.056       73.524    20574.771    12556.620     5405.744       10.312        1.927      408.180       82.944        0.041      335.006        5.353      857.138
04/27/2014  05:37:00     -293.400      -56.125      -20.546      142.031      110.162       68.527    20172.914    12135.644     4695.963        6.332        1.850      298.719       76.276        0.065      335.014        5.366      857.145
04/27/2014  05:38:00     -196.292       56.750       -8.085      102.412      124.536       55.917    10488.204    15509.212     3126.721        3.546        1.456      204.331       52.668        0.066      334.997        5.338      857.164
04/27/2014  05:39:00     -190.950      -22.465      -11.172      134.064       98.459       47.484    17973.028     9694.214     2254.752        3.350        1.496      192.267       51.309        0.071      334.989        5.325      857.170
04/27/2014  05:40:00     -217.803      -58.561       -9.936      115.801       88.041       47.081    13409.950     7751.144     2216.594        3.717        1.169      225.538       57.116        0.064      335.004        5.348      857.224
04/27/2014  05:41:00     -283.694     -148.354      -16.000      144.356      116.904       51.375    20838.775    13666.647     2639.365        6.994        1.857      320.143       48.858        0.023      335.022        5.379      857.236
04/27/2014  05:42:00     -376.805     -154.767       -6.959      135.279      104.855       58.929    18300.525    10994.658     3472.586        9.937        1.638      407.351       50.141        0.015      335.007        5.353      857.283
04/27/2014  05:43:00      -18.870      -81.683       -5.419      124.687       61.607       50.968    15546.797     3795.417     2597.767        1.449        1.097       83.834       33.402        0.159      335.077        5.472      857.264
04/27/2014  05:44:00     -198.939      -68.861        2.048      136.904       82.461       55.922    18742.581     6799.818     3127.280        3.649        1.433      210.520       69.073        0.108      335.012        5.362      857.296
04/27/2014  05:45:00     -233.103       10.240      -21.508      114.269      102.367       51.015    13057.329    10479.013     2602.485        4.052        1.307      233.328       53.760        0.053      334.992        5.328      857.293
04/27/2014  05:46:00     -337.410      -83.245      -16.553      141.937      100.401       67.078    20146.185    10080.431     4499.406        7.788        1.736      347.528       64.400        0.034      334.981        5.308      857.318
04/27/2014  05:47:00     -291.270       38.340      -22.250      135.005       98.095       50.620    18226.338     9622.629     2562.425        5.860        1.521      293.783       53.438        0.033      334.974        5.299      857.329
04/27/2014  05:48:00     -341.580     -147.475      -17.180      171.935      152.022       59.267    29561.632    23110.723     3512.578        9.744        2.809      372.057       65.853        0.031      334.980        5.309      857.336
04/27/2014  05:49:00     -247.119     -170.199        2.724      185.776      124.902       61.586    34512.648    15600.465     3792.796        7.196        2.695      300.059       79.507        0.070      335.005        5.350      857.359
04/27/2014  05:50:00     -286.209       12.596      -21.140      169.433      111.370       61.679    28707.678    12403.361     3804.246        6.371        2.246      286.486       55.933        0.038      334.993        5.329      857.374
04/27/2014  05:51:00     -160.068      -51.899       -0.037      110.191       71.280       50.279    12142.081     5080.806     2528.020        2.403        0.988      168.271       49.069        0.085      334.994        5.333      857.391
04/27/2014  05:52:00      -61.017     -110.203       23.812       64.576       60.357       34.164     4170.001     3642.991     1167.159        1.271        0.449      125.967       26.171        0.043      335.024        5.384      857.399
04/27/2014  05:53:00      -14.742      -25.316       11.457       66.238       61.795       35.676     4387.437     3818.604     1272.785        0.523        0.474       29.295       35.603        1.477      335.014        5.367      857.427
04/27/2014  05:54:00     -163.347      -31.395      -11.129      104.009      103.826       30.469    10817.961    10779.878      928.358        2.515        1.126      166.337       37.516        0.051      334.996        5.337      857.451
04/27/2014  05:55:00     -239.822      -56.678      -19.148      143.879      113.602       49.937    20701.034    12905.390     2493.724        4.859        1.805      246.428       37.561        0.023      334.975        5.301      857.449
04/27/2014  05:56:00     -384.317     -114.256      -10.254      185.606      142.370       78.477    34449.591    20269.338     6158.700       11.086        3.044      400.941       79.547        0.039      334.959        5.273      857.445
04/27/2014  05:57:00     -334.206      -80.575      -28.978      170.084      193.421       60.839    28928.599    37411.732     3701.358        9.452        3.502      343.782       67.017        0.038      334.977        5.303      857.504
04/27/2014  05:58:00     -217.338      -14.346        1.749      152.164      151.251       61.067    23153.763    22877.014     3729.221        4.859        2.488      217.811       35.910        0.027      335.006        5.352      857.533
04/27/2014  05:59:00     -154.770       -7.362       -5.551       74.663       93.780       45.621     5574.620     8794.632     2081.234        2.024        0.823      154.945       41.892        0.073      334.977        5.305      857.563
04/27/2014  06:00:00     -244.629      -45.245      -28.187      133.409       64.601       44.960    17797.844     4173.321     2021.416        4.333        1.200      248.778       61.600        0.061      334.968        5.289      857.571
04/27/2014  06:01:00     -164.409       45.296      -19.989      105.911       84.244       51.429    11217.233     7097.090     2644.989        2.522        1.048      170.534       49.131        0.083      334.950        5.259      857.566
04/27/2014  06:02:00     -196.192        7.146      -11.314       92.371       75.338       37.751     8532.423     5675.786     1425.132        2.715        0.782      196.322       30.689        0.024      334.935        5.234      857.596
04/27/2014  06:03:00     -281.157        4.215      -19.757      147.224       84.924       61.913    21674.852     7212.006     3833.229        5.608        1.636      281.188       66.606        0.056      334.917        5.203      857.592
04/27/2014  06:04:00     -443.320     -170.308      -19.329      171.415      131.438       78.205    29383.088    17275.984     6115.995       13.933        2.639      474.908       75.885        0.026      334.879        5.140      857.581
04/27/2014  06:05:00     -255.048      -76.231        0.511      148.619      106.061       59.486    22087.608    11248.998     3538.619        5.386        1.844      266.196       59.296        0.050      334.891        5.160      857.625
04/27/2014  06:06:00     -339.983      -64.863      -24.101      131.448       91.751       57.141    17278.623     8418.201     3265.131        7.466        1.448      346.115       66.220        0.037      334.872        5.129      857.658
04/27/2014  06:07:00     -210.994      -23.069       -5.277       89.472       68.470       51.235     8005.321     4688.178     2625.037        3.020        0.766      212.251       52.448        0.061      334.882        5.145      857.664
04/27/2014  06:08:00     -181.112      -68.000        1.946      122.228       98.561       55.401    14939.610     9714.200     3069.247        3.257        1.386      193.457       43.225        0.050      334.907        5.188      857.668
04/27/2014  06:09:00     -190.549     -173.716        4.888      152.017      177.749       67.520    23109.219    31594.879     4558.896        6.287        2.963      257.849       73.253        0.081      334.953        5.263      857.658
04/27/2014  06:10:00      -30.472      -42.705       11.595       55.084       53.660       44.388     3034.203     2879.372     1970.273        0.538        0.394       52.462       36.664        0.488      334.968        5.290      857.679
04/27/2014  06:11:00      -42.269       -0.629       -3.010       53.159       46.119       32.881     2825.830     2126.920     1081.192        0.391        0.302       42.273       30.212        0.511      335.002        5.346      857.693
04/27/2014  06:12:00      -74.430       63.114       -8.018       50.421       41.275       27.310     2542.317     1703.642      745.841        0.729        0.250       97.587       20.616        0.045      335.190        5.662      857.706
04/27/2014  06:13:00      -60.753       51.033      -13.106       45.651       39.542       31.149     2084.057     1563.545      970.289        0.554        0.231       79.343       26.528        0.112      334.945        5.252      857.742
04/27/2014  06:14:00     -110.176        0.653      -13.161       68.826       98.477       31.329     4737.027     9697.642      981.488        1.386        0.771      110.178       24.546        0.050      334.995        5.335      857.783
04/27/2014  06:15:00     -109.267       34.517      -30.515       64.631       68.421       44.536     4177.162     4681.450     1983.424        1.245        0.542      114.589       42.666        0.139      334.903        5.184      857.786
04/27/2014  06:16:00     -102.500       27.114      -21.516       61.684       73.834       31.865     3804.856     5451.513     1015.410        1.099        0.514      106.026       19.888        0.035      334.924        5.217      857.774
04/27/2014  06:17:00     -121.577      -31.285       -8.127      137.871       75.284       44.579    19008.548     5667.609     1987.248        2.124        1.333      125.538       59.327        0.223      334.934        5.233      857.795
04/27/2014  06:18:00      -94.804      207.063      -19.691       99.235       88.468       55.163     9847.600     7826.629     3042.952        3.648        1.036      227.735       41.120        0.033      335.016        5.369      857.801
04/27/2014  06:19:00     -124.371       15.623       -0.232       70.686       66.653       48.313     4996.574     4442.594     2334.110        1.374        0.589      125.348       29.652        0.056      334.985        5.318      857.793
04/27/2014  06:20:00      -59.692       28.377      -14.391       66.180       67.842       48.494     4379.745     4602.531     2351.659        0.795        0.567       66.094       11.435        0.030      334.964        5.284      857.813
04/27/2014  06:21:00      -55.139       33.793       -9.454       47.170       71.691       35.193     2225.000     5139.607     1238.533        0.644        0.430       64.670       27.156        0.176      334.959        5.275      857.831
04/27/2014  06:22:00      -86.971       75.643      -14.397       64.626       69.400       40.639     4176.569     4816.293     1651.520        1.207        0.532      115.265       29.537        0.066      334.996        5.336      857.855
04/27/2014  06:23:00     -195.374       88.186      -33.075      125.205      110.846       47.911    15676.408    12286.890     2295.467        3.864        1.513      214.355       53.299        0.062      335.010        5.359      857.855
04/27/2014  06:24:00     -102.080        8.188       22.039      142.461       76.508       67.427    20295.229     5853.411     4546.419        2.083        1.535      102.408       80.360        0.616      335.004        5.350      857.838
04/27/2014  06:25:00     -104.922       18.200       -9.816       59.748       63.744       34.075     3569.812     4063.274     1161.105        1.011        0.440      106.489       35.551        0.111      335.023        5.383      857.842
04/27/2014  06:26:00      -85.355        9.556        2.843       53.031       47.592       36.655     2812.235     2265.003     1343.574        0.690        0.321       85.888       34.546        0.162      335.010        5.360      857.837
04/27/2014  06:27:00     -109.435      -16.907       -6.972       56.742       41.409       37.021     3219.621     1714.740     1370.563        0.931        0.315      110.733       34.137        0.095      335.013        5.365      857.832
04/27/2014  06:28:00     -114.485       73.747      -21.916       92.569       67.704       41.630     8568.971     4583.835     1733.016        1.695        0.744      136.181       31.571        0.054      334.998        5.340      857.831
04/27/2014  06:29:00     -280.701       44.607      -21.720      123.444      110.911       52.331    15238.334    12301.213     2738.528        5.576        1.514      284.223       47.154        0.028      334.976        5.301      857.830
04/27/2014  06:30:00     -116.266      163.420      -32.647       82.413       68.654       42.096     6791.836     4713.402     1772.069        2.728        0.664      200.559       43.852        0.048      334.990        5.325      857.837
04/27/2014  06:31:00     -104.678      181.310      -23.235       89.475      203.149       51.521     8005.703    41269.719     2654.455        4.814        2.596      209.358       36.738        0.031      334.976        5.303      857.829
04/27/2014  06:32:00     -144.500      102.906      -30.159       67.292       76.511       41.315     4528.196     5853.971     1706.904        2.223        0.604      177.398       32.408        0.033      334.963        5.281      857.877
04/27/2014  06:33:00     -127.030       70.272      -14.550       79.197       65.772       38.924     6272.112     4326.014     1515.083        1.670        0.606      145.171       30.141        0.043      334.983        5.313      857.910
04/27/2014  06:34:00      -93.535       18.447        0.627       89.992       71.689       37.236     8098.475     5139.343     1386.512        1.185        0.731       95.337       39.905        0.175      335.003        5.350      857.939
04/27/2014  06:35:00     -196.338      -53.780      -11.720      108.026      114.418       55.854    11669.634    13091.384     3119.705        3.472        1.394      203.570       42.273        0.043      334.996        5.335      857.906
04/27/2014  06:36:00     -148.161       63.670      -16.804       68.841       79.473       44.165     4739.094     6315.955     1950.566        1.964        0.650      161.263       38.725        0.058      334.953        5.266      857.956
04/27/2014  06:37:00     -205.932      187.778      -40.189      140.889      133.356       85.630    19849.668    17783.858     7332.567        6.212        2.248      278.691       92.371        0.110      334.997        5.338      857.981
04/27/2014  06:38:00     -305.583      120.326      -38.392      115.447      167.582       73.169    13327.950    28083.816     5353.760        7.804        2.338      328.419       63.663        0.038      335.009        5.356      857.988
04/27/2014  06:39:00     -277.025      106.560      -31.883       87.967       68.221       48.022     7738.206     4654.056     2306.147        5.190        0.735      296.813       51.039        0.030      334.988        5.322      858.011
04/27/2014  06:40:00     -119.028       85.257        3.863      125.975      121.515       52.324    15869.789    14765.844     2737.763        2.741        1.669      146.412       48.121        0.108      335.080        5.476      857.993
04/27/2014  06:41:00     -142.023      215.225      -31.394       57.356       69.884       42.612     3289.692     4883.803     1815.748        3.873        0.499      257.861       39.297        0.023      335.035        5.399      858.005
04/27/2014  06:42:00     -101.150      101.067      -12.983       91.181       60.142       53.035     8313.928     3617.020     2812.713        1.768        0.737      142.989       53.543        0.140      335.051        5.428      858.036
04/27/2014  06:43:00      -35.240      115.779      -28.121       45.244       57.082       24.670     2047.048     3258.325      608.594        1.067        0.296      121.023       12.227        0.010      335.061        5.444      858.035
04/27/2014  06:44:00       67.679       62.081        5.628       59.888       42.283       24.915     3586.620     1787.823      620.756        0.723        0.300       91.839       22.999        0.063      335.043        5.418      858.020
04/27/2014  06:45:00      -59.281      141.428       -9.304      101.541       83.479       53.256    10310.521     6968.694     2836.217        2.185        1.006      153.349       48.933        0.102      335.084        5.485      858.076
04/27/2014  06:46:00     -139.896      228.877      -22.116      104.765      124.686       55.810    10975.605    15546.638     3114.707        5.103        1.482      268.245       61.666        0.053      335.053        5.432      858.112
04/27/2014  06:47:00     -122.010      157.517      -13.804       75.923      128.339       43.261     5764.293    16470.948     1871.473        3.199        1.205      199.244       45.496        0.052      335.141        5.577      858.143
04/27/2014  06:48:00      -73.080      -11.839      -13.953      113.502       71.763       45.195    12882.639     5149.881     2042.610        1.287        1.004       74.033       46.082        0.387      335.103        5.517      858.166
04/27/2014  06:49:00      -98.095      107.495      -17.204       78.162       72.349       70.012     6109.249     5234.355     4901.733        1.886        0.812      145.526       40.766        0.078      335.018        5.375      858.115
04/27/2014  06:50:00      -93.338       -7.146      -10.725       76.350       39.729       34.091     5829.292     1578.357     1162.169        0.872        0.428       93.611       38.016        0.165      335.058        5.440      858.160
04/27/2014  06:51:00     -103.364       29.893       -1.477      118.201      115.504       43.708    13971.573    13341.218     1910.374        2.040        1.461      107.600       47.727        0.197      335.191        5.660      858.207
04/27/2014  06:52:00     -186.340      248.314      -50.200      108.322      128.069       57.599    11733.724    16401.717     3317.595        6.517        1.573      310.455       69.208        0.050      335.124        5.547      858.247
04/27/2014  06:53:00     -180.091       87.769      -28.333       86.159       73.840       35.957     7423.402     5452.328     1292.914        2.755        0.708      200.340       41.598        0.043      335.083        5.481      858.235
04/27/2014  06:54:00      -42.680      166.111      -31.842       35.943       79.826       35.554     1291.874     6372.161     1264.066        1.968        0.446      171.507       14.413        0.007      335.156        5.602      858.202
04/27/2014  06:55:00      -75.027       22.357      -11.634       50.404       30.481       19.756     2540.517      929.095      390.307        0.506        0.193       78.288       19.161        0.060      335.181        5.643      858.206
04/27/2014  06:56:00      -55.744       45.894        0.201       38.329       64.003       32.918     1469.081     4096.425     1083.602        0.593        0.332       72.206       26.110        0.131      335.186        5.651      858.252
04/27/2014  06:57:00      -20.504      264.030      -21.045       61.951      227.056       53.725     3837.975    51554.591     2886.371        6.442        2.914      264.825       85.318        0.104      335.162        5.610      858.236
04/27/2014  06:58:00      -57.842      391.171      -43.229      107.156      102.332       52.691    11482.412    10471.816     2776.351        9.147        1.237      395.424       46.579        0.014      335.058        5.439      858.237
04/27/2014  06:59:00     -111.063      246.058      -16.442       78.222      135.438       53.576     6118.701    18343.558     2870.417        5.024        1.367      269.962       44.606        0.027      335.091        5.493      858.282
04/27/2014  07:00:00     -100.347       93.409      -33.640       68.629      107.524       39.824     4709.972    11561.466     1585.985        1.889        0.893      137.094       16.764        0.015      335.178        5.638      858.356
04/27/2014  07:01:00      -71.781      265.169      -40.329       70.202       77.750       36.158     4928.335     6045.067     1307.415        4.468        0.614      274.713       31.205        0.013      335.165        5.617      858.348
04/27/2014  07:02:00     -106.569      154.372      -29.319       77.517       83.387       39.735     6008.903     6953.469     1578.878        2.529        0.727      187.584       38.601        0.042      335.194        5.664      858.361
04/27/2014  07:03:00     -144.074      190.117      -39.407       75.457      126.857       54.608     5693.787    16092.785     2982.045        4.161        1.238      238.541       63.982        0.072      335.186        5.649      858.402
04/27/2014  07:04:00     -117.457        9.708      -32.074       82.001       48.701       35.013     6724.092     2371.753     1225.929        1.262        0.516      117.858       31.113        0.070      335.235        5.732      858.462
04/27/2014  07:05:00     -181.694       30.817      -22.829       76.426      106.161       41.381     5840.881    11270.259     1712.350        2.665        0.941      184.288       33.907        0.034      335.188        5.654      858.453
04/27/2014  07:06:00     -169.912       86.331      -17.525      103.323       70.223       45.630    10675.637     4931.340     2082.131        2.716        0.884      190.587       18.517        0.009      335.145        5.584      858.435
04/27/2014  07:07:00     -163.984       90.954      -10.784      133.293      129.647       62.698    17766.911    16808.401     3931.039        3.689        1.925      187.520       74.131        0.156      335.167        5.620      858.440
04/27/2014  07:08:00     -229.818       85.364      -28.602       90.018      117.700       53.734     8103.196    13853.326     2887.383        4.288        1.242      245.160       53.449        0.048      335.128        5.554      858.417
04/27/2014  07:09:00     -219.866        1.465      -33.901       93.278       79.963       42.507     8700.830     6394.063     1806.834        3.319        0.845      219.871       41.027        0.035      335.136        5.568      858.420
04/27/2014  07:10:00     -228.894      150.363      -44.838       78.434      100.640       46.966     6151.859    10128.410     2205.818        4.775        0.924      273.864       43.472        0.025      335.093        5.496      858.419
04/27/2014  07:11:00     -309.043      -26.705      -29.328       93.876      117.997       55.020     8812.730    13923.397     3027.223        6.142        1.288      310.195       56.453        0.033      335.093        5.496      858.461
04/27/2014  07:12:00     -251.691       -3.709      -24.401      102.858      121.816       55.033    10579.707    14839.179     3028.675        4.620        1.422      251.718       53.046        0.044      335.118        5.538      858.475
04/27/2014  07:13:00     -382.263      -75.828      -37.540      126.070      118.478       58.998    15893.594    14037.141     3480.780        9.334        1.671      389.711       54.729        0.020      335.086        5.484      858.490
04/27/2014  07:14:00     -287.621      -68.815      -13.850      109.812       88.403       54.442    12058.748     7815.163     2963.916        5.524        1.142      295.738       44.291        0.022      335.129        5.556      858.507
04/27/2014  07:15:00     -282.610      -70.470      -10.068      138.210       80.171       60.728    19101.925     6427.339     3687.896        5.707        1.461      291.263       58.248        0.040      335.107        5.521      858.472
04/27/2014  07:16:00     -180.805      -47.804       -6.330      142.525       98.022       52.934    20313.485     9608.391     2801.977        3.386        1.636      187.018       65.920        0.124      335.133        5.564      858.430
04/27/2014  07:17:00     -235.044      298.598      -53.425       96.611      107.779       65.233     9333.691    11616.384     4255.319        8.623        1.260      380.008       72.727        0.037      335.104        5.514      858.399
04/27/2014  07:18:00     -130.546      147.389      -13.268       88.368      124.229       52.903     7808.852    15432.889     2798.708        3.249        1.302      196.890       68.469        0.121      335.184        5.648      858.394
04/27/2014  07:19:00     -194.199      207.669      -35.301      104.805      133.763       76.382    10984.174    17892.660     5834.145        5.839        1.736      284.323       69.469        0.060      335.167        5.618      858.393
04/27/2014  07:20:00     -261.391       82.232      -26.170      145.018      127.308       53.876    21030.298    16207.210     2902.586        5.795        2.007      274.021       48.243        0.031      335.181        5.641      858.417
04/27/2014  07:21:00     -276.615      -25.076      -16.092      114.029       77.860       51.183    13002.702     6062.248     2619.726        4.954        1.084      277.749       50.065        0.032      335.162        5.610      858.456
04/27/2014  07:22:00      -78.394      -38.371       -1.006       97.951       84.321       44.903     9594.367     7110.074     2016.285        1.317        0.936       87.280       52.308        0.359      335.306        5.851      858.492
04/27/2014  07:23:00     -184.792      -25.916       -9.281      135.377      115.750       72.401    18326.837    13398.111     5241.948        3.593        1.848      186.600       68.843        0.136      335.257        5.768      858.478
04/27/2014  07:24:00     -153.818      -35.000      -14.892      105.877      134.706       46.936    11209.842    18145.579     2202.948        2.833        1.578      157.750       40.436        0.066      335.239        5.741      858.479
04/27/2014  07:25:00     -210.101       62.910      -22.802      116.391       78.115       58.204    13546.916     6102.003     3387.731        3.582        1.152      219.317       61.740        0.079      335.194        5.664      858.467
04/27/2014  07:26:00     -231.133      -45.442      -34.435      102.408       91.915       55.688    10487.428     8448.322     3101.183        3.935        1.102      235.558       37.813        0.026      335.209        5.688      858.475
04/27/2014  07:27:00     -178.901      -56.962       19.910      160.992       98.837       72.360    25918.312     9768.761     5236.027        3.828        2.046      187.750       81.550        0.189      335.265        5.782      858.447
04/27/2014  07:28:00     -264.265     -107.468      -38.321      163.911      119.786       69.423    26866.727    14348.737     4819.514        6.444        2.302      285.281       69.697        0.060      335.212        5.691      858.424
04/27/2014  07:29:00     -189.686      -16.900      -26.512       90.189      103.965       44.017     8134.121    10808.699     1937.509        2.892        1.044      190.438       36.207        0.036      335.263        5.776      858.427
04/27/2014  07:30:00     -126.679       29.485      -28.408       86.289       81.651       47.647     7445.807     6666.914     2270.190        1.705        0.819      130.065       43.401        0.111      335.279        5.805      858.382
04/27/2014  07:31:00     -125.536      -21.527       -6.675       71.568       61.145       39.481     5122.037     3738.730     1558.726        1.334        0.521      127.368       36.139        0.081      335.284        5.816      858.335
04/27/2014  07:32:00     -156.485       76.976      -22.517       67.123      104.670       42.019     4505.512    10955.785     1765.588        2.407        0.861      174.393       45.745        0.069      335.292        5.827      858.302
04/27/2014  07:33:00     -116.890       16.363      -17.235       58.151       89.313       27.476     3381.585     7976.751      754.937        1.317        0.606      118.030       18.917        0.026      335.357        5.937      858.291
04/27/2014  07:34:00      -80.705       19.960      -21.114      115.706       90.750       55.569    13387.772     8235.549     3087.902        1.603        1.236       83.137       30.869        0.138      335.363        5.946      858.283
04/27/2014  07:35:00     -241.631      -54.317       -6.207      112.470       99.360       64.599    12649.531     9872.389     4173.022        4.403        1.335      247.661       58.158        0.055      335.313        5.860      858.311
04/27/2014  07:36:00     -263.599      -60.234      -16.411      109.685      101.593       62.643    12030.727    10321.221     3924.086        4.982        1.314      270.393       60.097        0.049      335.353        5.926      858.345
04/27/2014  07:37:00     -229.247      -41.199      -20.019      123.344      106.985       43.906    15213.846    11445.870     1927.738        4.161        1.429      232.919       44.897        0.037      335.341        5.907      858.369
04/27/2014  07:38:00     -256.525       61.689      -26.919      154.665      101.471       53.052    23921.293    10296.370     2814.523        5.368        1.852      263.838       55.405        0.044      335.379        5.970      858.391
04/27/2014  07:39:00     -261.067       31.578      -24.746      111.564      140.483       55.934    12446.438    19735.508     3128.652        5.253        1.766      262.970       61.114        0.054      335.396        5.998      858.408
04/27/2014  07:40:00     -286.588      -96.160       -2.816      151.230      108.260       64.823    22870.490    11720.151     4202.080        6.508        1.940      302.290       69.940        0.054      335.500        6.172      858.421
04/27/2014  07:41:00     -232.777       12.074      -16.713      211.170      122.604       68.954    44592.680    15031.810     4754.707        5.948        3.219      233.090       87.962        0.142      335.526        6.215      858.424
04/27/2014  07:42:00     -358.374     -171.128      -18.304      148.233      111.681       71.093    21972.897    12472.708     5054.217        9.877        1.975      397.135       66.134        0.028      335.434        6.063      858.413
04/27/2014  07:43:00     -371.823      -94.703      -30.552      123.408      127.279       65.576    15229.451    16199.851     4300.178        9.193        1.786      383.693       57.837        0.023      335.449        6.086      858.427
04/27/2014  07:44:00     -571.831      -54.611      -46.238      144.757      160.592       68.220    20954.600    25789.803     4653.918       19.174        2.570      574.433       71.192        0.015      335.402        6.008      858.410
04/27/2014  07:45:00     -386.579      -74.979      -22.931      110.291      126.490       59.169    12164.191    15999.835     3501.005        9.362        1.583      393.783       42.769        0.012      335.474        6.128      858.401
04/27/2014  07:46:00     -278.135      -26.972      -15.546      157.669      121.628       65.281    24859.436    14793.252     4261.614        6.111        2.196      279.440       76.553        0.075      335.573        6.294      858.373
04/27/2014  07:47:00     -254.060      -14.240      -26.176      122.798      110.278       48.349    15079.426    12161.278     2337.666        4.750        1.479      254.459       47.100        0.034      335.586        6.316      858.389
04/27/2014  07:48:00     -200.775      -24.757        4.290      107.868       84.612       51.776    11635.486     7159.223     2680.784        3.120        1.074      202.296       48.389        0.057      335.634        6.398      858.400
04/27/2014  07:49:00     -199.298      -45.240      -11.634      139.820       81.822       55.491    19549.654     6694.858     3079.196        3.561        1.466      204.369       72.016        0.124      335.646        6.417      858.419
04/27/2014  07:50:00     -278.418      -43.971      -17.088      122.107       73.924       59.898    14910.000     5464.704     3587.732        5.185        1.198      281.869       62.655        0.049      335.589        6.322      858.446
04/27/2014  07:51:00     -398.294       56.985      -59.021       98.147      108.130       52.742     9632.865    11692.017     2781.703        9.473        1.205      402.350       59.476        0.022      335.499        6.170      858.506
04/27/2014  07:52:00     -346.522       20.546      -27.787      139.485      101.614       59.105    19456.183    10325.501     3493.437        7.727        1.664      347.131       63.136        0.033      335.485        6.147      858.525
04/27/2014  07:53:00     -309.416      -92.249      -15.193      148.874      137.841       57.178    22163.464    19000.069     3269.377        7.445        2.222      322.874       54.214        0.028      335.558        6.269      858.546
04/27/2014  07:54:00     -281.803      -85.439      -10.729      107.878       83.651       55.626    11637.698     6997.433     3094.250        5.427        1.086      294.470       56.580        0.037      335.627        6.384      858.563
04/27/2014  07:55:00     -185.687      -31.046        2.178      180.695      101.289       70.395    32650.640    10259.495     4955.396        4.165        2.393      188.265       86.873        0.213      335.758        6.604      858.570
04/27/2014  07:56:00     -381.207      -62.037      -31.159      222.144      141.017       75.252    49347.890    19885.879     5662.865       11.250        3.745      386.222       59.212        0.024      335.630        6.389      858.531
04/27/2014  07:57:00     -450.781     -160.480        1.616      173.789      101.425       66.193    30202.599    10287.093     4381.507       13.691        2.244      478.495       48.083        0.010      335.585        6.312      858.515
04/27/2014  07:58:00     -303.660     -115.171      -17.234       99.348       81.175       43.390     9869.927     6589.452     1882.724        6.205        0.917      324.767       34.687        0.011      335.668        6.452      858.544
04/27/2014  07:59:00     -234.987      -83.808      -13.289      127.931       80.009       49.426    16366.357     6401.405     2442.977        4.381        1.261      249.485       41.198        0.027      335.727        6.552      858.553
04/27/2014  08:00:00     -324.324      -79.272      -15.911      131.117       85.935       66.082    17191.702     7384.756     4366.885        7.033        1.447      333.872       72.300        0.047      335.746        6.580      858.592
04/27/2014  08:01:00     -254.606       19.960      -15.756      119.844       90.684       47.370    14362.591     8223.614     2243.961        4.515        1.242      255.387       54.990        0.046      335.654        6.429      858.591
04/27/2014  08:02:00     -222.092      -21.181       -6.715      146.636       97.537       44.715    21502.170     9513.439     1999.423        4.141        1.651      223.099       54.003        0.059      335.749        6.587      858.599
04/27/2014  08:03:00     -289.745       56.348      -22.230      194.605       94.199       55.553    37870.930     8873.375     3086.101        6.872        2.492      295.173       73.394        0.062      335.705        6.515      858.546
04/27/2014  08:04:00     -223.678       31.144      -27.269      107.229       72.072       41.992    11498.049     5194.421     1763.368        3.510        0.923      225.835       31.852        0.020      335.734        6.564      858.539
04/27/2014  08:05:00     -223.219      -82.374       -2.095      147.695      111.936       61.687    21813.868    12529.744     3805.301        4.738        1.907      237.933       67.655        0.081      335.833        6.728      858.516
04/27/2014  08:06:00     -239.977       -1.283       -2.343      144.669      101.291       61.606    20929.142    10259.800     3795.274        4.628        1.749      239.981       58.486        0.059      335.801        6.672      858.499
04/27/2014  08:07:00     -218.013        6.415      -15.264      103.480       73.301       49.350    10708.063     5373.007     2435.390        3.316        0.926      218.108       44.746        0.042      335.756        6.599      858.491
04/27/2014  08:08:00     -175.429       20.257      -12.297      121.350      101.878       57.236    14725.901    10379.168     3275.908        2.985        1.419      176.594       49.702        0.079      335.805        6.682      858.478
04/27/2014  08:09:00     -386.130     -110.016      -33.284      139.335      143.207       63.347    19414.318    20508.140     4012.795       10.311        2.197      401.497       36.787        0.008      335.723        6.543      858.475
04/27/2014  08:10:00     -278.348      -35.789      -10.470      181.852      121.470       69.487    33069.976    14755.003     4828.484        6.575        2.633      280.639       85.481        0.093      335.800        6.673      858.503
04/27/2014  08:11:00     -306.317      -15.731      -17.324      185.576      176.969       79.189    34438.396    31318.062     6270.955        8.319        3.601      306.721       78.535        0.066      335.801        6.674      858.520
04/27/2014  08:12:00     -498.243      -27.686      -34.547      157.859      239.232       70.859    24919.619    57232.149     5020.944       16.867        4.359      499.011       55.739        0.012      335.705        6.512      858.565
04/27/2014  08:13:00     -270.977      -92.117      -22.762      196.418       91.071       67.358    38579.989     8294.017     4537.044        6.691        2.571      286.206       76.329        0.071      335.871        6.791      858.597
04/27/2014  08:14:00     -364.652     -131.643      -15.329      121.964      112.942       59.610    14875.308    12755.914     3553.353        9.085        1.559      387.687       60.040        0.024      335.866        6.781      858.589
04/27/2014  08:15:00     -243.925     -150.116        0.090      129.435      113.236       62.686    16753.489    12822.290     3929.566        5.776        1.675      286.416       60.062        0.044      335.918        6.868      858.578
04/27/2014  08:16:00     -325.061      -90.927      -20.186      155.853      113.287       75.078    24290.079    12833.868     5636.709        7.854        2.138      337.539       88.095        0.068      335.800        6.671      858.576
04/27/2014  08:17:00     -257.522      -70.860       -1.830      138.406       79.946       53.017    19156.261     6391.430     2810.823        4.984        1.418      267.093       62.004        0.054      335.818        6.703      858.554
04/27/2014  08:18:00     -330.015     -133.043      -26.028      157.708       99.649       59.564    24871.679     9929.997     3547.854        8.281        1.917      355.823       57.273        0.026      335.868        6.784      858.573
04/27/2014  08:19:00     -272.499     -105.687      -10.417      119.097      103.445       55.902    14184.035    10700.913     3124.982        5.677        1.400      292.276       51.118        0.031      335.916        6.865      858.587
04/27/2014  08:20:00     -454.153     -163.025       -4.697      207.642      135.792       68.494    43115.247    18439.393     4691.473       14.954        3.312      482.526       74.612        0.024      335.885        6.814      858.543
04/27/2014  08:21:00     -474.233      -55.490      -21.095      177.238      194.463       82.737    31413.150    37816.040     6845.452       15.223        3.804      477.469       82.399        0.030      335.778        6.635      858.535
04/27/2014  08:22:00     -372.344       39.736      -30.331      161.126      139.615       64.414    25961.598    19492.340     4149.177        9.536        2.480      374.458       72.712        0.038      335.845        6.747      858.533
04/27/2014  08:23:00     -237.769      -71.926       -7.776      132.953      102.001       62.674    17676.450    10404.115     3927.984        4.688        1.600      248.410       72.474        0.085      335.876        6.798      858.530
04/27/2014  08:24:00     -160.192       13.238      -28.836       84.981       76.152       40.339     7221.749     5799.191     1627.258        2.066        0.732      160.738       28.712        0.032      335.975        6.963      858.539
04/27/2014  08:25:00     -329.314      -68.573      -24.032      182.389      135.675       76.138    33265.681    18407.620     5796.969        8.559        2.874      336.377       86.495        0.066      335.944        6.911      858.536
04/27/2014  08:26:00     -472.842     -113.116      -42.408      173.933      118.620       74.019    30252.797    14070.806     5478.808       14.398        2.490      486.183       87.552        0.032      335.852        6.758      858.513
04/27/2014  08:27:00     -514.744      -36.239      -36.800      150.712      176.967       70.225    22714.100    31317.423     4931.502       16.328        2.948      516.018       75.906        0.022      335.912        6.858      858.531
04/27/2014  08:28:00     -286.957      -77.767      -22.545      163.844      156.438       73.498    26844.903    24472.986     5401.930        7.280        2.836      297.308       64.240        0.047      335.966        6.949      858.532
04/27/2014  08:29:00     -377.352      -73.075      -39.410      191.984      169.695       76.385    36858.004    28796.352     5834.616       11.037        3.574      384.362       65.530        0.029      335.974        6.961      858.531
04/27/2014  08:30:00     -410.221       -0.292      -13.429      240.066      178.252       85.662    57631.877    31773.764     7337.968       13.258        4.837      410.222       91.586        0.050      336.018        7.035      858.494
04/27/2014  08:31:00     -130.169       -6.769       18.636      137.430       84.190       63.054    18887.122     7087.939     3975.801        2.364        1.498      130.345       66.248        0.258      336.299        7.506      858.515
04/27/2014  08:32:00     -173.343       -5.251       -3.906      128.229      102.591       75.646    16442.746    10524.892     5722.372        3.138        1.635      173.422       59.574        0.118      336.195        7.331      858.529
04/27/2014  08:33:00     -154.473       43.148       -0.509      130.393       88.675       58.080    17002.270     7863.335     3373.293        2.698        1.412      160.386       62.640        0.153      336.341        7.576      858.501
04/27/2014  08:34:00     -348.413      -36.379      -27.290      130.453      136.243       62.437    17018.015    18562.282     3898.412        8.146        1.974      350.307       68.355        0.038      336.164        7.278      858.496
04/27/2014  08:35:00     -379.886     -102.834      -18.734      185.156      155.787       79.920    34282.688    24269.617     6387.174       11.008        3.247      393.558       85.122        0.047      336.094        7.162      858.478
04/27/2014  08:36:00     -342.623     -110.347       -1.707      201.594      134.280       87.003    40640.239    18031.142     7569.505        9.789        3.312      359.954       85.005        0.056      336.127        7.217      858.495
04/27/2014  08:37:00     -383.365      -45.079       -6.020      141.456      157.271       80.274    20009.773    24734.048     6443.862       10.010        2.559      386.006       72.958        0.036      336.124        7.212      858.488
04/27/2014  08:38:00     -255.670       45.836      -14.674      116.079      131.725       63.822    13474.244    17351.394     4073.303        5.128        1.745      259.746       61.736        0.056      336.180        7.305      858.480
04/27/2014  08:39:00     -369.374      -91.337      -20.166      160.680      116.586       79.025    25817.984    13592.227     6244.981        9.541        2.283      380.499       82.442        0.047      336.229        7.387      858.456
04/27/2014  08:40:00     -289.899      -49.902        0.662      128.803       88.358       47.121    16590.309     7807.057     2220.431        5.657        1.331      294.163       42.703        0.021      336.371        7.625      858.448
04/27/2014  08:41:00     -274.236      -46.021        0.450      146.577      129.817       68.450    21484.744    16852.477     4685.347        6.016        2.151      278.070       74.728        0.072      336.463        7.779      858.426
04/27/2014  08:42:00     -332.434      -68.817       -7.766      176.041      125.722       78.273    30990.364    15806.101     6126.719        8.411        2.646      339.482       71.543        0.044      336.363        7.611      858.375
04/27/2014  08:43:00     -335.796        2.666       -7.049      171.223       94.753       69.630    29317.267     8978.202     4848.326        7.797        2.157      335.806       80.245        0.057      336.414        7.696      858.382
04/27/2014  08:44:00     -369.460     -121.196      -15.633      151.986      141.745       67.202    23099.828    20091.582     4516.065        9.956        2.385      388.830       65.854        0.029      336.371        7.624      858.402
04/27/2014  08:45:00     -121.423      -72.660        9.608      134.475       82.859       60.850    18083.430     6865.652     3702.759        2.438        1.433      141.502       53.094        0.141      336.557        7.936      858.410
04/27/2014  08:46:00     -135.739       -2.543       -9.372       80.741       67.514       36.904     6519.056     4558.195     1361.925        1.548        0.622      135.763       34.919        0.066      336.533        7.899      858.401
04/27/2014  08:47:00     -103.649      -19.552      -10.841      117.789       71.870       36.599    13874.358     5165.319     1339.488        1.581        1.019      105.478       30.833        0.085      336.759        8.276      858.375
04/27/2014  08:48:00     -144.770      -42.496       25.467      164.608      123.091       87.348    27095.696    15151.441     7629.713        3.663        2.494      150.878      101.459        0.452      336.555        7.934      858.329
04/27/2014  08:49:00     -423.424      -14.791      -45.238      177.230      166.300       64.634    31410.391    27655.706     4177.582       12.239        3.162      423.682       63.151        0.022      336.355        7.597      858.289
04/27/2014  08:50:00     -438.344       82.703      -44.300      239.483      128.743       67.517    57351.928    16574.680     4558.567       13.970        3.924      446.078       85.681        0.037      336.321        7.540      858.244
04/27/2014  08:51:00     -396.854       43.966      -29.190      144.827      123.064       76.875    20974.945    15144.767     5909.746       10.115        2.101      399.282       70.488        0.031      336.240        7.406      858.223
04/27/2014  08:52:00     -269.506      -16.627      -14.389      138.103       82.792       69.400    19072.401     6854.459     4816.347        5.192        1.537      270.018       77.802        0.083      336.412        7.693      858.209
04/27/2014  08:53:00     -149.764      -33.551       30.286      129.758       98.369       78.605    16837.227     9676.446     6178.727        2.858        1.635      153.476       82.089        0.286      336.544        7.914      858.190
04/27/2014  08:54:00     -207.903        8.182       12.676      185.448      128.969       74.403    34390.856    16633.097     5535.798        4.999        2.828      208.064       87.547        0.177      336.579        7.973      858.235
04/27/2014  08:55:00     -309.484      -92.411      -11.558      141.863      122.568       53.605    20125.147    15022.803     2873.452        7.123        1.901      322.987       63.357        0.038      336.457        7.768      858.286
04/27/2014  08:56:00     -281.818       27.306      -22.239      178.601      103.199       72.195    31898.421    10650.040     5212.140        6.420        2.388      283.138       68.553        0.059      336.342        7.577      858.310
04/27/2014  08:57:00     -429.113       94.323      -43.695      160.661      129.276       72.479    25812.058    16712.228     5253.268       12.135        2.389      439.358       77.588        0.031      336.377        7.633      858.324
04/27/2014  08:58:00     -132.376       11.223        1.948      134.841       96.971       48.956    18182.166     9403.327     2396.710        2.381        1.499      132.851       57.714        0.189      336.643        8.082      858.327
04/27/2014  08:59:00     -299.300       -2.137      -23.337      152.457      111.389       57.324    23243.060    12407.518     3286.097        6.453        1.947      299.308       51.418        0.030      336.463        7.778      858.294
04/27/2014  09:00:00     -573.604      -41.611      -42.205      187.065      213.027       87.194    34993.297    45380.365     7602.721       21.024        4.399      575.112       96.681        0.028      336.360        7.606      858.263
04/27/2014  09:01:00     -277.907      -49.329      -13.661      175.076      102.709       63.349    30651.691    10549.081     4013.128        6.252        2.261      282.251       82.251        0.085      336.499        7.837      858.309
04/27/2014  09:02:00     -368.380        9.750      -37.613      202.297       69.386       58.637    40923.996     4814.366     3438.309        9.319        2.459      368.509       86.722        0.055      336.467        7.786      858.337
04/27/2014  09:03:00     -313.270      -75.142      -10.718      127.838      113.189       58.956    16342.461    12811.838     3475.821        6.826        1.632      322.155       62.729        0.038      336.551        7.923      858.368
04/27/2014  09:04:00     -222.598       30.261       -5.917      148.312       92.463       65.144    21996.576     8549.457     4243.691        4.264        1.739      224.646       71.548        0.101      336.689        8.158      858.377
04/27/2014  09:05:00     -298.683       23.922      -32.349      128.720      102.676       50.795    16568.741    10542.325     2580.179        6.025        1.485      299.640       48.605        0.026      336.437        7.733      858.369
04/27/2014  09:06:00     -294.359      -75.076       -8.459      106.523      120.159       63.249    11347.172    14438.228     4000.422        6.106        1.489      303.782       56.036        0.034      336.502        7.844      858.345
04/27/2014  09:07:00     -314.623      -65.070       -5.691      112.145       88.031       61.607    12576.582     7749.458     3795.399        6.368        1.206      321.281       57.051        0.032      336.613        8.029      858.335
04/27/2014  09:08:00     -517.116      -96.512      -25.845      182.994      122.041       71.566    33486.670    14893.904     5121.740       16.544        2.675      526.045       72.252        0.019      336.426        7.716      858.336
04/27/2014  09:09:00     -239.293      -60.908        1.128      175.396      110.816       63.818    30763.713    12280.254     4072.721        5.404        2.356      246.923       79.552        0.104      336.520        7.876      858.326
04/27/2014  09:10:00     -200.357     -111.310        8.996      142.834      108.460       65.849    20401.432    11763.517     4336.034        4.455        1.825      229.200       70.891        0.096      336.531        7.893      858.320
04/27/2014  09:11:00     -327.277      -70.716        1.659      166.179      128.066       68.122    27615.302    16400.992     4640.590        8.038        2.433      334.829       57.659        0.030      336.612        8.029      858.394
04/27/2014  09:12:00     -276.263     -172.725      -13.934      127.024       75.894       60.037    16135.129     5759.902     3604.486        6.592        1.275      325.815       69.174        0.045      336.342        7.575      858.431
04/27/2014  09:13:00     -238.401     -183.388       -9.560      149.917      148.188       81.327    22475.008    21959.776     6614.132        7.079        2.552      300.776       92.151        0.094      336.510        7.857      858.444
04/27/2014  09:14:00     -126.325      -10.166       15.496       98.239      109.166       49.595     9650.804    11917.314     2459.705        2.016        1.201      126.733       51.089        0.163      336.711        8.196      858.490
04/27/2014  09:15:00     -287.702     -130.615      -13.294      237.725      141.576       67.256    56513.101    20043.635     4523.321        9.053        4.054      315.963       89.556        0.080      336.720        8.209      858.514
04/27/2014  09:16:00     -453.780      -79.665      -23.814      208.290      156.607       78.681    43384.649    24525.813     6190.667       14.345        3.705      460.720       87.853        0.036      336.429        7.720      858.509
04/27/2014  09:17:00     -383.734      -88.906      -36.166      116.780      161.335       61.937    13637.564    26029.101     3836.171        9.997        2.175      393.899       56.147        0.020      336.468        7.787      858.466
04/27/2014  09:18:00     -403.413       -2.898      -14.547      177.023      135.049       72.832    31337.108    18238.200     5304.455       10.891        2.744      403.424       72.987        0.033      336.546        7.917      858.440
04/27/2014  09:19:00     -385.506      -80.236      -11.589      172.853      143.855       66.981    29878.147    20694.182     4486.393       10.511        2.753      393.767       73.310        0.035      336.650        8.092      858.457
04/27/2014  09:20:00     -347.575      -32.250      -14.234      149.172      153.763       76.698    22252.358    23642.972     5882.575        8.690        2.589      349.068       73.722        0.045      336.633        8.063      858.462
04/27/2014  09:21:00     -364.838     -130.804      -22.073      171.021      135.520       81.063    29248.014    18365.546     6571.225       10.243        2.709      387.577       84.437        0.047      336.432        7.728      858.463
04/27/2014  09:22:00     -179.343      -49.823       -4.800       82.258      105.148       43.435     6766.400    11056.157     1886.641        2.719        0.985      186.135       31.516        0.029      336.438        7.737      858.468
04/27/2014  09:23:00       -4.323      -67.925       27.751       56.289       49.358       37.748     3168.458     2436.171     1424.899        0.621        0.351       68.063       31.332        0.212      336.576        7.971      858.450
04/27/2014  09:24:00      -72.118      -44.591        0.312       55.223       45.125       27.763     3049.630     2036.235      770.772        0.652        0.293       84.791       15.719        0.034      336.520        7.877      858.431
04/27/2014  09:25:00      -32.055      -85.703       -7.248       26.573       46.926       21.707      706.112     2202.057      471.183        0.590        0.169       91.502       20.828        0.052      336.582        7.982      858.418
04/27/2014  09:26:00       44.552       23.089       17.377       34.694       34.839       21.287     1203.698     1213.741      453.150        0.284        0.144       50.179        7.580        0.023      337.122        8.882      858.401
04/27/2014  09:27:00     -182.864      -43.102      -12.331      103.033       60.874       40.027    10615.780     3705.660     1602.198        2.568        0.796      187.875       39.192        0.044      336.870        8.460      858.396
04/27/2014  09:28:00     -225.877       85.931      -27.950      113.511       86.933       47.939    12884.755     7557.409     2298.161        4.096        1.137      241.671       52.418        0.047      336.657        8.104      858.394
04/27/2014  09:29:00     -145.482      -44.744        2.995       76.473       79.373       44.795     5848.056     6300.069     2006.548        1.866        0.708      152.207       41.619        0.075      336.819        8.375      858.380
04/27/2014  09:30:00     -140.958       78.967       -3.460       95.001       75.384       52.783     9025.283     5682.678     2786.012        2.180        0.875      161.570       54.883        0.115      336.816        8.370      858.384
04/27/2014  09:31:00     -204.213       42.165      -14.848      124.636       77.965       50.558    15534.017     6078.558     2556.081        3.393        1.208      208.521       52.020        0.062      336.720        8.209      858.322
04/27/2014  09:32:00     -233.259     -100.694       -8.082       85.358       67.973       53.396     7286.043     4620.396     2851.185        3.968        0.738      254.065       50.995        0.040      336.621        8.043      858.303
04/27/2014  09:33:00     -141.197      -50.084       18.318      120.861       86.916       64.625    14607.336     7554.433     4176.339        2.455        1.317      149.817       56.867        0.144      337.018        8.708      858.289
04/27/2014  09:34:00      -81.116     -173.134        6.943       79.604      188.986       59.030     6336.832    35715.718     3484.560        4.106        2.277      191.194       69.281        0.131      336.705        8.183      858.307
04/27/2014  09:35:00     -159.942      -59.889        1.539      122.354      131.002       52.058    14970.421    17161.458     2710.019        3.200        1.742      170.787       53.255        0.097      336.846        8.422      858.293
04/27/2014  09:36:00     -175.103       -2.080       -5.121      107.490       92.928       57.880    11553.993     8635.561     3350.043        2.711        1.177      175.115       67.024        0.146      336.971        8.627      858.369
04/27/2014  09:37:00      -54.178     -116.493        5.312       98.021       80.961       61.014     9608.116     6554.719     3722.691        1.821        0.994      128.475       49.329        0.147      336.990        8.662      858.402
04/27/2014  09:38:00     -262.853     -134.969       -8.309      184.886      108.934       55.939    34182.836    11866.714     3129.120        6.827        2.459      295.480       61.676        0.044      336.767        8.288      858.366
04/27/2014  09:39:00     -363.788     -293.185       -0.142      208.012      157.446       99.882    43269.145    24789.112     9976.440       14.815        3.902      467.225      116.706        0.062      336.688        8.155      858.352
04/27/2014  09:40:00     -289.478     -109.655        1.279      179.988      159.669       78.229    32395.547    25494.033     6119.831        7.990        3.200      309.550       88.729        0.082      336.894        8.501      858.380
04/27/2014  09:41:00     -276.630     -105.042      -27.762      150.555      180.717       68.355    22666.911    32658.798     4672.349        7.415        3.000      295.902       63.758        0.046      336.765        8.286      858.382
04/27/2014  09:42:00     -244.105      -76.183       -6.867      112.094       91.423       54.942    12564.990     8358.223     3018.674        4.469        1.197      255.717       55.429        0.047      337.018        8.705      858.418
04/27/2014  09:43:00     -214.092     -150.785       14.918      161.745      111.167       72.879    26161.601    12358.050     5311.307        5.630        2.192      261.862       70.404        0.072      337.002        8.679      858.455
04/27/2014  09:44:00     -153.570      -92.381       -2.058      205.117      108.526       66.479    42073.093    11777.787     4419.432        4.518        2.914      179.215       70.902        0.157      336.987        8.654      858.445
04/27/2014  09:45:00     -256.062      -99.561       -6.382      184.306      127.543       82.697    33968.660    16267.175     6838.771        6.629        2.854      274.737      102.241        0.138      336.846        8.419      858.459
04/27/2014  09:46:00     -186.840      -30.884        0.597      147.335       75.347       63.379    21707.650     5677.104     4016.943        3.363        1.570      189.375       72.782        0.148      336.826        8.385      858.424
04/27/2014  09:47:00     -233.002      -82.344      -19.631      129.038      123.507       47.919    16650.845    15254.042     2296.248        4.782        1.710      247.124       44.452        0.032      336.878        8.470      858.419
04/27/2014  09:48:00     -371.067      -27.392      -27.370      114.590      125.486       62.284    13130.785    15746.621     3879.312        8.597        1.638      372.077       62.581        0.028      336.805        8.349      858.374
04/27/2014  09:49:00     -311.683      -94.849      -32.653      159.138      143.079       56.511    25324.883    20471.712     3193.514        7.809        2.450      325.796       57.694        0.031      336.872        8.460      858.323
04/27/2014  09:50:00     -274.018     -104.831       -0.095      138.817      123.430       71.591    19270.131    15235.034     5125.331        6.284        1.982      293.386       56.324        0.037      337.066        8.786      858.332
04/27/2014  09:51:00     -437.476      -12.672      -20.861      240.827      144.575       69.326    57997.485    20901.995     4806.114       13.783        4.185      437.659       93.228        0.045      336.884        8.479      858.317
04/27/2014  09:52:00     -343.091      -28.083      -27.157      172.733      104.542       57.120    29836.560    10929.057     3262.750        8.162        2.201      344.238       69.946        0.041      336.832        8.396      858.328
04/27/2014  09:53:00     -171.896      -77.006      -15.607      108.278       57.049       40.972    11724.136     3254.535     1678.735        2.619        0.833      188.357       41.829        0.049      337.060        8.775      858.302
04/27/2014  09:54:00     -216.778      -33.086       -5.245      132.342       96.591       63.696    17514.377     9329.789     4057.178        3.950        1.545      219.288       62.462        0.081      337.163        8.949      858.312
04/27/2014  09:55:00     -395.507     -141.975      -19.739      140.453      144.665       77.856    19727.083    20927.951     6061.569       11.184        2.336      420.218       52.654        0.016      336.993        8.664      858.300
04/27/2014  09:56:00     -500.327     -283.519      -36.557      259.840      193.184       98.136    67516.598    37320.232     9630.748       22.323        5.723      575.074      105.051        0.033      336.973        8.631      858.193
04/27/2014  09:57:00     -422.024     -301.325      -18.055      162.306      152.799       91.048    26343.245    23347.465     8289.678       16.359        2.899      518.557       94.469        0.033      337.039        8.742      858.224
04/27/2014  09:58:00     -261.804     -172.684        7.878      173.716      149.882       88.361    30177.131    22464.613     7807.613        7.942        3.022      313.626       74.797        0.057      337.198        9.006      858.250
04/27/2014  09:59:00     -287.225     -256.523      -13.521      158.196      130.274       74.482    25025.948    16971.260     5547.589        9.801        2.377      385.100       75.546        0.038      337.159        8.942      858.228
04/27/2014  10:00:00     -159.117     -118.527        2.153      115.376      110.400       65.646    13311.605    12188.172     4309.421        3.458        1.490      198.411       60.756        0.094      337.380        9.312      858.292
04/27/2014  10:01:00     -209.762     -258.304       18.649      203.445      153.242       97.168    41389.715    23483.155     9441.675        9.268        3.716      332.748       99.840        0.090      337.226        9.055      858.328
04/27/2014  10:02:00     -193.978     -196.809       11.165      125.556      118.266       68.863    15764.241    13986.815     4742.160        5.548        1.725      276.336       69.095        0.063      337.118        8.873      858.338
04/27/2014  10:03:00     -258.098      -41.268      -16.459      101.107       83.065       52.664    10222.723     6899.829     2773.503        4.424        0.995      261.376       45.485        0.030      337.256        9.105      858.373
04/27/2014  10:04:00     -357.667     -101.764       -9.990      190.719      164.331       77.013    36373.737    27004.641     5931.047       10.383        3.465      371.862       77.768        0.044      337.288        9.157      858.336
04/27/2014  10:05:00     -436.216     -121.973       -1.429      211.760      166.281       92.527    44842.264    27649.334     8561.175       14.309        4.053      452.948      109.241        0.058      337.135        8.902      858.316
04/27/2014  10:06:00     -216.765      -57.470       -4.130      150.613      120.670       68.759    22684.262    14561.193     4727.845        4.613        2.099      224.254       74.739        0.111      337.206        9.021      858.300
04/27/2014  10:07:00     -703.871      -76.860      -63.031      290.685      165.258       98.505    84498.031    27310.289     9703.225       31.339        6.076      708.055      114.538        0.026      337.112        8.863      858.291
04/27/2014  10:08:00     -432.906      -45.187      -39.105      135.710      113.794       75.884    18417.195    12949.036     5758.413       11.404        1.856      435.258       60.546        0.019      337.134        8.901      858.292
04/27/2014  10:09:00     -342.498     -151.014      -32.152      190.225      146.859       73.745    36185.572    21567.469     5438.358       10.216        3.160      374.313       78.750        0.044      337.202        9.014      858.319
04/27/2014  10:10:00     -258.314      -84.015       -3.863      221.252      152.168       70.370    48952.578    23155.189     4951.915        7.541        3.853      271.633       85.584        0.099      337.391        9.332      858.344
04/27/2014  10:11:00     -287.600     -144.329      -11.450      203.952      149.192       83.943    41596.527    22258.249     7046.487        8.727        3.545      321.783      106.410        0.109      337.407        9.358      858.379
04/27/2014  10:12:00     -227.102     -160.943      -17.055      223.032      126.938       72.464    49743.379    16113.315     5251.017        7.442        3.555      278.349       97.157        0.122      337.473        9.467      858.406
04/27/2014  10:13:00     -481.798     -339.189       -5.318      260.898      170.408      122.546    68067.954    29038.871    15017.582       22.964        5.606      589.219      132.488        0.051      337.211        9.029      858.392
04/27/2014  10:14:00     -400.336     -194.932      -22.318      233.268      183.572       91.675    54414.007    33698.530     8404.279       14.762        4.826      445.272      114.263        0.066      337.232        9.065      858.402
04/27/2014  10:15:00     -385.728       34.270      -36.610      192.897      118.365       69.019    37209.413    14010.301     4763.593       10.363        2.799      387.247       88.595        0.052      337.347        9.258      858.374
04/27/2014  10:16:00     -355.229      -51.144      -21.030      156.690      143.585       69.746    24551.811    20616.716     4864.521        8.963        2.502      358.892       58.699        0.027      337.354        9.267      858.319
04/27/2014  10:17:00     -313.640     -175.272      -23.737      120.962       98.461       53.160    14631.816     9694.662     2826.035        7.840        1.358      359.291       47.327        0.017      337.417        9.374      858.323
04/27/2014  10:18:00     -166.419      -79.610       -8.963       81.263       66.833       33.944     6603.686     4466.708     1152.219        2.317        0.611      184.480       41.679        0.051      337.526        9.557      858.360
04/27/2014  10:19:00     -321.535     -175.736      -25.775      264.494      151.979       69.930    69957.211    23097.694     4890.203       11.642        4.897      366.426       61.183        0.028      337.570        9.632      858.355
04/27/2014  10:20:00     -324.874      -28.688       -2.082      145.642       89.676       55.634    21211.559     8041.731     3095.153        6.935        1.617      326.139       58.243        0.032      337.401        9.347      858.321
04/27/2014  10:21:00     -159.484      -83.859       11.173      138.873      129.952       56.023    19285.572    16887.503     3138.608        3.594        1.966      180.187       72.269        0.161      337.590        9.664      858.322
04/27/2014  10:22:00     -255.796     -163.920        9.337      163.306      152.416       76.166    26668.881    23230.758     5801.321        7.403        2.785      303.811       82.146        0.073      337.465        9.456      858.258
04/27/2014  10:23:00     -326.373     -153.049      -20.613      200.705      146.698       82.317    40282.642    21520.248     6776.026        9.946        3.429      360.477       93.346        0.067      337.552        9.600      858.244
04/27/2014  10:24:00     -208.202      -41.366        0.448      145.923      100.579       59.447    21293.433    10116.211     3533.932        3.999        1.747      212.272       72.240        0.116      337.783        9.988      858.225
04/27/2014  10:25:00     -244.312     -138.222        0.691      164.448      219.939       80.933    27043.007    48373.349     6550.118        8.036        4.098      280.702       71.497        0.065      337.634        9.738      858.192
04/27/2014  10:26:00     -448.500     -303.159       -9.219      200.993      198.485       98.114    40398.211    39396.430     9626.259       19.126        4.471      541.347       93.951        0.030      337.530        9.563      858.083
04/27/2014  10:27:00     -382.414     -191.174      -14.607      179.145      134.070       71.058    32092.793    17974.769     5049.224       11.905        2.756      427.537       83.502        0.038      337.610        9.697      858.040
04/27/2014  10:28:00     -368.799     -197.327       -2.252      250.161      184.001      104.912    62580.594    33856.479    11006.427       14.118        5.372      418.271      119.930        0.082      337.601        9.681      858.039
04/27/2014  10:29:00     -426.590     -112.710      -19.406      191.034      176.285       86.950    36494.046    31076.426     7560.293       13.508        3.757      441.229       83.070        0.035      337.530        9.562      858.023
04/27/2014  10:30:00     -320.276      -61.501       -5.353      185.068      133.161       71.790    34250.217    17731.865     5153.798        8.175        2.857      326.127       77.397        0.056      337.736        9.909      858.055
04/27/2014  10:31:00     -274.001     -171.876       16.282      202.640      144.233       84.815    41062.866    20803.053     7193.552        8.696        3.453      323.447       82.210        0.065      337.625        9.723      858.087
04/27/2014  10:32:00     -265.568     -125.933        7.109      178.586      152.036       80.846    31892.998    23114.873     6536.117        7.398        3.077      293.915       80.224        0.075      337.896       10.177      858.064
04/27/2014  10:33:00     -400.060     -318.210       -5.442      214.698      175.231       92.166    46095.122    30706.008     8494.559       17.330        4.265      511.180      103.508        0.041      337.641        9.749      858.030
04/27/2014  10:34:00     -279.934     -236.011        1.950      170.481      195.857       82.768    29063.842    38360.094     6850.495       10.416        3.714      366.148       68.711        0.035      337.808       10.029      858.012
04/27/2014  10:35:00     -391.390     -124.889      -19.707      156.407      179.868       78.968    24463.192    32352.462     6236.000       11.610        3.153      410.833       86.597        0.044      337.885       10.159      858.044
04/27/2014  10:36:00     -395.810     -203.663      -14.104      220.413      188.548      102.800    48582.103    35550.217    10567.942       14.650        4.735      445.134      108.001        0.059      337.919       10.214      858.064
04/27/2014  10:37:00     -342.098     -249.181        1.684      233.979      161.251      108.766    54746.250    26001.888    11830.060       13.583        4.629      423.228      111.197        0.069      338.021       10.386      858.070
04/27/2014  10:38:00     -250.298     -121.066       19.027      208.298      185.465      102.030    43388.198    34397.412    10410.056        8.291        4.410      278.040      114.933        0.171      338.113       10.541      858.064
04/27/2014  10:39:00     -426.599      -95.390       -3.081      207.177      174.800       91.223    42922.491    30555.073     8321.682       13.643        4.090      437.134       94.144        0.046      337.971       10.303      858.087
04/27/2014  10:40:00     -221.908     -131.332       14.152      195.895      177.160       76.707    38374.763    31385.685     5884.032        7.115        3.782      257.859       86.867        0.113      338.109       10.536      858.071
04/27/2014  10:41:00     -120.147     -154.283        6.147      116.789      142.901       58.708    13639.644    20420.696     3446.603        3.788        1.875      195.547       74.482        0.145      338.215       10.714      858.084
04/27/2014  10:42:00     -318.015     -247.160      -18.633      213.125      129.005       66.419    45422.445    16642.256     4411.547       11.451        3.324      402.767       54.950        0.019      338.050       10.436      858.061
04/27/2014  10:43:00     -434.070      -24.495      -23.199      228.836      145.651       86.557    52365.956    21214.133     7492.132       13.530        4.054      434.761      106.366        0.060      338.126       10.563      858.019
04/27/2014  10:44:00     -329.217     -256.808        0.903      201.493      180.038      100.437    40599.523    32413.564    10087.674       12.870        4.155      417.533       98.186        0.055      338.002       10.355      858.069
04/27/2014  10:45:00     -372.045     -271.324        5.009      236.111      214.728      108.907    55748.395    46108.316    11860.647       16.287        5.686      460.472      117.196        0.065      337.955       10.275      858.106
04/27/2014  10:46:00     -514.730     -337.955      -12.064      235.935      192.982      100.666    55665.185    37241.942    10133.635       24.115        5.152      615.761      109.876        0.032      337.914       10.206      858.131
04/27/2014  10:47:00     -451.395     -336.255      -11.606      250.601      216.424      116.487    62800.672    46839.310    13569.131       22.006        6.160      562.872      125.184        0.049      337.872       10.136      858.167
04/27/2014  10:48:00     -490.627     -187.815      -29.419      262.041      218.260      112.840    68665.714    47637.628    12732.890       20.292        6.452      525.347      129.519        0.061      337.827       10.061      858.131
04/27/2014  10:49:00     -377.235      -36.266       -0.148      192.472      144.641       87.691    37045.576    20920.936     7689.717       10.463        3.283      378.974       94.959        0.063      338.021       10.386      858.187
04/27/2014  10:50:00     -461.710     -169.324      -20.029      208.617      192.403       94.448    43521.131    37019.075     8920.417       16.584        4.473      491.780       91.176        0.034      338.047       10.430      858.284
04/27/2014  10:51:00     -248.324      -81.535        7.091      206.217      135.440       87.716    42525.597    18344.079     7694.090        6.845        3.428      261.367       94.043        0.129      338.314       10.879      858.398
04/27/2014  10:52:00     -423.961     -242.559        3.084      238.661      225.914      106.309    56958.990    51037.003    11301.501       17.892        5.965      488.444      118.107        0.058      337.912       10.202      858.436
04/27/2014  10:53:00     -547.015     -397.759      -22.007      273.695      232.043      127.228    74908.728    53843.758    16186.948       30.140        7.247      676.342      133.535        0.039      337.821       10.050      858.414
04/27/2014  10:54:00     -448.735     -172.869        0.317      233.499      197.427      101.745    54521.779    38977.272    10352.050       16.753        5.193      480.881      121.544        0.064      337.906       10.191      858.413
04/27/2014  10:55:00     -536.525     -339.397       -5.309      272.679      222.393      121.156    74353.970    49458.643    14678.784       27.076        6.925      634.862      135.731        0.046      337.779        9.979      858.421
04/27/2014  10:56:00     -324.227      -97.438        8.832      255.261      166.742      104.839    65158.327    27802.768    10991.198       10.930        5.198      338.551      119.315        0.124      337.846       10.092      858.413
04/27/2014  10:57:00     -500.178     -217.059        3.405      328.596      206.194      117.344   107975.041    42516.155    13769.685       23.075        8.213      545.245      149.647        0.075      337.813       10.039      858.385
04/27/2014  10:58:00     -351.924     -319.604       -2.704      183.660      204.533      105.008    33731.105    41833.698    11026.601       15.628        4.330      475.392       90.590        0.036      337.844       10.089      858.428
04/27/2014  10:59:00     -510.980     -361.724      -32.802      332.586      238.981      106.595   110613.303    57111.857    11362.443       28.602        8.954      626.055      135.658        0.047      337.880       10.149      858.469
04/27/2014  11:00:00     -428.468     -324.358      -15.605      224.262      151.696       93.793    50293.241    23011.614     8797.049       18.555        4.105      537.394      104.288        0.038      337.901       10.184      858.489
04/27/2014  11:01:00     -358.258     -233.397       -6.115      198.707      159.406       93.436    39484.429    25410.338     8730.270       12.823        3.681      427.578      105.321        0.061      337.933       10.238      858.492
04/27/2014  11:02:00     -388.969     -317.329      -13.897      287.323      225.904      118.618    82554.419    51032.602    14070.288       19.989        7.383      501.990      132.904        0.070      337.947       10.260      858.450
04/27/2014  11:03:00     -302.154     -223.618       -1.407      152.627      138.942       83.140    23295.034    19304.981     6912.196        9.540        2.476      375.902       89.570        0.057      338.161       10.621      858.497
04/27/2014  11:04:00     -186.178      -90.897       15.981      128.483      100.981       62.354    16507.775    10197.188     3888.048        3.688        1.530      207.182       69.454        0.112      338.343       10.929      858.536
04/27/2014  11:05:00     -337.403     -233.528       -6.221      190.053      230.490       84.486    36120.242    53125.668     7137.834       13.238        4.819      410.337       88.304        0.046      338.197       10.681      858.536
04/27/2014  11:06:00     -322.503     -181.637       -6.906      174.399      128.150       83.285    30415.108    16422.523     6936.463        9.540        2.689      370.135       89.370        0.058      338.152       10.607      858.515
04/27/2014  11:07:00     -102.665     -104.493       16.115      100.282      119.618       65.625    10056.506    14308.381     4306.682        2.519        1.434      146.489       73.558        0.252      338.464       11.131      858.478
04/27/2014  11:08:00     -299.258     -222.787       -5.817      182.179      114.204       81.136    33189.052    13042.641     6583.076        9.601        2.641      373.081       68.782        0.034      338.264       10.795      858.475
04/27/2014  11:09:00     -388.865     -236.644       -8.557      147.706      196.017       91.251    21816.947    38422.686     8326.763       13.791        3.428      455.210       88.346        0.038      338.191       10.671      858.424
04/27/2014  11:10:00     -275.633     -141.656       -9.957      160.362      125.815       68.518    25716.043    15829.362     4694.758        7.118        2.312      309.903       77.888        0.063      338.170       10.637      858.387
04/27/2014  11:11:00     -326.959     -305.078       -2.046      221.159      156.634       87.489    48911.327    24534.080     7654.266       14.052        4.055      447.185       93.430        0.044      338.198       10.684      858.361
04/27/2014  11:12:00     -498.952     -299.337      -35.427      248.082      210.397      108.405    61544.917    44266.979    11751.690       22.866        5.878      581.856      108.104        0.035      338.209       10.700      858.308
04/27/2014  11:13:00     -305.062     -106.137       -5.227      170.757      115.477       62.102    29158.012    13334.946     3856.651        7.534        2.317      322.999       73.908        0.052      338.456       11.116      858.343
04/27/2014  11:14:00     -144.265     -134.257       17.186      176.281       93.077       70.213    31074.879     8663.256     4929.814        4.189        2.233      197.072       85.957        0.190      338.561       11.295      858.362
04/27/2014  11:15:00     -386.803     -179.849       -2.539      351.675      215.849      104.201   123675.206    46590.790    10857.930       18.151        9.056      426.570      136.007        0.102      338.383       10.995      858.314
04/27/2014  11:16:00     -356.424     -211.203       -0.139      274.684      195.895       91.623    75451.408    38374.847     8394.705       14.691        6.111      414.300      102.054        0.061      338.351       10.941      858.301
04/27/2014  11:17:00     -389.005     -220.167        3.497      197.196      182.452       88.928    38886.268    33288.647     7908.190       13.993        4.004      446.988       93.132        0.043      338.376       10.982      858.341
04/27/2014  11:18:00     -408.292     -115.661       -4.828      239.382      144.069       88.078    57303.704    20755.840     7757.735       13.294        4.291      424.359       95.611        0.051      338.295       10.847      858.355
04/27/2014  11:19:00     -515.510     -256.844      -20.177      250.519      222.871      103.978    62759.861    49671.314    10811.470       22.766        6.162      575.951      108.320        0.035      338.278       10.819      858.289
04/27/2014  11:20:00     -418.642     -335.599       -4.840      248.228      183.145      110.001    61617.106    33542.021    12100.119       19.756        5.363      536.551      116.138        0.047      338.221       10.721      858.247
04/27/2014  11:21:00     -328.211     -218.066      -20.273      223.860      150.804       95.706    50113.236    22741.845     9159.618       11.883        4.101      394.050      114.925        0.085      338.440       11.090      858.245
04/27/2014  11:22:00     -325.814     -235.657        0.684      194.474      161.105       89.862    37820.028    25954.847     8075.167       11.676        3.593      402.106       98.218        0.060      338.478       11.154      858.236
04/27/2014  11:23:00     -163.222     -202.082       20.264      148.728      165.414       75.985    22120.159    27361.873     5773.674        6.156        2.763      259.767       91.650        0.124      338.704       11.534      858.205
04/27/2014  11:24:00     -385.909     -221.051        7.604      246.709      156.840       96.316    60865.205    24598.836     9276.865       14.627        4.737      444.735      120.325        0.073      338.356       10.948      858.182
04/27/2014  11:25:00     -290.361     -133.161       20.466      212.577      190.426       92.548    45189.056    36262.061     8565.162        9.622        4.501      319.439       99.879        0.098      338.522       11.228      858.112
04/27/2014  11:26:00     -357.332     -198.683       -9.158      219.803      226.521       98.898    48313.154    51311.781     9780.773       13.830        5.470      408.854      101.585        0.062      338.354       10.945      858.061
04/27/2014  11:27:00     -441.338     -291.094        3.454      229.051      179.623      103.386    52464.228    32264.500    10688.643       18.745        4.771      528.692      106.616        0.041      338.307       10.867      858.053
04/27/2014  11:28:00     -415.825     -299.546       -2.033      275.295      222.930      128.459    75787.415    49697.632    16501.631       20.229        7.099      512.482      143.062        0.078      338.277       10.815      858.027
04/27/2014  11:29:00     -472.170     -334.477        3.052      263.917      207.106      111.069    69651.936    42892.801    12336.269       22.983        6.244      578.636       97.447        0.028      338.254       10.777      858.040
04/27/2014  11:30:00     -430.229     -450.261       -2.166      255.605      282.054      103.690    65334.045    79554.692    10751.689       27.171        7.782      622.762      126.208        0.041      338.241       10.754      858.055
04/27/2014  11:31:00     -427.750     -319.507      -21.556      233.234      216.237       92.115    54398.018    46758.578     8485.181       19.756        5.482      533.905       96.348        0.033      338.274       10.810      858.026
04/27/2014  11:32:00     -480.589     -301.124        3.963      315.545      236.679      121.870    99568.388    56016.738    14852.375       24.601        8.522      567.134      145.060        0.065      338.352       10.941      858.015
04/27/2014  11:33:00     -401.306     -278.412       -7.625      229.754      185.101       84.381    52787.026    34262.504     7120.220       16.638        4.708      488.426       87.847        0.032      338.429       11.071      858.022
04/27/2014  11:34:00     -426.638     -364.385       -1.370      282.637      229.967      127.390    79883.581    52884.700    16228.174       23.187        7.450      561.068      148.031        0.070      338.396       11.015      858.003
04/27/2014  11:35:00     -439.187     -114.156       -6.411      291.094      282.312      116.917    84735.471    79700.290    13669.547       19.200        8.905      453.781      136.192        0.090      338.533       11.247      857.977
04/27/2014  11:36:00     -419.781     -280.970       -7.150      193.152      159.979       92.960    37307.519    25593.272     8641.539       16.336        3.577      505.134       92.376        0.033      338.618       11.388      858.002
04/27/2014  11:37:00     -492.041     -196.751      -23.537      289.414      181.813      112.341    83760.546    33055.843    12620.592       20.538        6.472      529.920      142.953        0.073      338.603       11.364      858.009
04/27/2014  11:38:00     -406.045     -341.080       12.374      232.611      237.166      102.870    54107.800    56247.496    10582.165       20.113        6.047      530.291      112.539        0.045      338.546       11.267      857.994
04/27/2014  11:39:00     -540.443     -290.995      -17.204      184.459      173.372       94.544    34025.255    30057.745     8938.594       22.502        3.651      613.805       94.137        0.024      338.456       11.115      857.977
04/27/2014  11:40:00     -430.718     -210.188       -4.608      305.540      205.240      115.174    93354.884    42123.309    13265.138       18.920        7.437      479.267      150.172        0.098      338.526       11.235      857.968
04/27/2014  11:41:00     -323.919     -175.413      -17.545      150.355      142.357       72.149    22606.551    20265.441     5205.486        9.203        2.404      368.366       76.929        0.044      338.736       11.588      858.002
04/27/2014  11:42:00     -476.129     -391.206      -19.927      229.470      186.734      108.369    52656.304    34869.414    11743.773       23.968        4.963      616.231      116.237        0.036      338.509       11.205      858.006
04/27/2014  11:43:00     -431.155     -263.726       -3.905      281.309      223.437      123.802    79135.023    49924.230    15326.916       19.990        7.219      505.417      147.212        0.085      338.686       11.503      858.030
04/27/2014  11:44:00     -199.424     -210.373       15.583      179.376      182.759      103.970    32175.628    33400.906    10809.750        8.031        3.819      289.874       91.649        0.100      338.860       11.797      858.052
04/27/2014  11:45:00     -474.692     -342.402      -24.018      275.659      188.695      117.770    75988.013    35605.866    13869.879       23.428        6.273      585.296      134.637        0.053      338.865       11.804      858.026
04/27/2014  11:46:00     -429.375     -203.135       -4.148      195.575      178.293      102.479    38249.738    31788.448    10502.040       15.308        4.027      475.002      100.443        0.045      338.867       11.808      858.019
04/27/2014  11:47:00     -232.355     -148.080        2.578      193.899      145.096       84.252    37596.768    21052.780     7098.410        7.082        3.287      275.529       90.742        0.108      339.150       12.284      858.054
04/27/2014  11:48:00     -359.908     -128.261        9.023      276.405      183.964      105.320    76399.924    33842.792    11092.317       13.368        6.067      382.079      130.682        0.117      339.051       12.117      858.041
04/27/2014  11:49:00     -463.532      -43.553      -25.378      215.263      183.742       97.643    46338.120    33761.181     9534.137       15.350        4.482      465.574       87.059        0.035      338.770       11.643      858.074
04/27/2014  11:50:00     -258.678       23.709        1.174      154.089      126.603       90.001    23743.272    16028.303     8100.209        5.767        2.394      259.762       81.964        0.100      339.132       12.254      858.086
04/27/2014  11:51:00     -395.630      -85.809       -7.085      272.838      220.727      107.866    74440.472    48720.216    11635.064       14.934        6.740      404.829      125.196        0.096      339.077       12.161      858.089
04/27/2014  11:52:00     -425.014     -107.991       -9.742      224.419      241.125       91.078    50363.977    58141.216     8295.213       15.457        5.840      438.519       93.529        0.045      338.950       11.948      858.058
04/27/2014  11:53:00     -506.513     -272.084      -17.422      302.235      257.580      143.862    91346.153    66347.351    20696.394       25.460        8.919      574.965      167.216        0.085      338.677       11.489      858.074
04/27/2014  11:54:00     -432.825     -229.626       12.718      256.279      215.817      103.333    65679.131    46576.966    10677.676       18.156        6.147      489.965      101.613        0.043      338.796       11.689      857.980
04/27/2014  11:55:00     -474.748     -203.763        8.189      328.714      277.436      130.356   108052.832    76970.516    16992.746       23.445       10.101      516.629      157.229        0.093      338.979       11.996      858.035
04/27/2014  11:56:00     -235.779     -162.099       34.173      294.108      207.460      134.973    86499.677    43039.551    18217.767       11.537        7.388      286.125      167.227        0.342      339.199       12.366      858.058
04/27/2014  11:57:00     -309.829     -144.423        6.722      198.025      174.918      102.083    39214.005    30596.401    10421.022        9.855        4.012      341.837      105.705        0.096      339.167       12.311      858.126
04/27/2014  11:58:00     -412.718     -248.858       -1.081      213.665      269.848      110.249    45652.908    72818.154    12154.749       18.142        6.531      481.940      106.190        0.049      338.847       11.774      858.136
04/27/2014  11:59:00     -544.838     -219.044      -10.685      242.927      182.532       99.153    59013.508    33317.838     9831.373       22.353        5.108      587.221      108.365        0.034      338.624       11.400      858.164
04/27/2014  12:00:00     -264.864      -35.220      -14.864      152.074      112.576       62.698    23126.622    12673.295     3930.988        5.566        1.987      267.195       62.204        0.054      338.901       11.866      858.183
04/27/2014  12:01:00     -471.842      -72.290      -18.751      218.498      178.074       90.522    47741.183    31710.248     8194.185       15.791        4.382      477.348       95.892        0.040      339.063       12.137      858.209
04/27/2014  12:02:00     -570.135     -237.546      -43.043      317.132      206.135      106.746   100572.928    42491.453    11394.649       26.887        7.723      617.642      121.448        0.039      338.777       11.655      858.173
04/27/2014  12:03:00     -567.695     -183.833      -22.100      222.932      193.912       93.858    49698.693    37601.812     8809.302       22.632        4.805      596.718      112.595        0.036      338.717       11.555      858.194
04/27/2014  12:04:00     -658.564     -135.983      -35.727      259.819      237.099      111.270    67505.668    56215.899    12381.003       29.476        6.805      672.457      128.797        0.037      338.872       11.816      858.176
04/27/2014  12:05:00     -349.764     -148.363      -30.532      186.754      119.103       77.643    34876.943    14185.449     6028.445       10.017        2.755      379.930       79.737        0.044      338.971       11.981      858.245
04/27/2014  12:06:00     -315.225     -298.352        4.593      186.555      194.326       88.326    34802.835    37762.715     7801.552       13.437        4.018      434.028       85.319        0.039      338.837       11.757      858.190
04/27/2014  12:07:00     -320.987     -338.092       -8.042      164.784      167.587       94.822    27153.856    28085.373     8991.167       14.080        3.212      466.197       99.621        0.046      338.885       11.839      858.173
04/27/2014  12:08:00     -220.332     -177.963       12.844      236.781      173.120       96.697    56065.296    29970.578     9350.222        8.786        4.769      283.226       98.252        0.120      339.073       12.154      858.243
04/27/2014  12:09:00     -344.424     -101.915        0.749      247.364      259.242      110.132    61188.802    67206.549    12128.948       13.474        7.026      359.186      122.879        0.117      339.045       12.108      858.232
04/27/2014  12:10:00     -457.215     -329.056        3.824      300.948      231.103      126.754    90569.810    53408.705    16066.513       23.866        8.002      563.314      140.987        0.063      338.891       11.847      858.243
04/27/2014  12:11:00     -415.858     -258.082        5.404      235.813      168.939      117.790    55607.850    28540.243    13874.556       16.878        4.901      489.433      122.111        0.062      338.924       11.904      858.294
04/27/2014  12:12:00     -399.735     -206.049      -10.390      149.963      176.228       78.216    22488.905    31056.311     6117.765       13.100        2.983      449.716       64.499        0.021      338.938       11.927      858.351
04/27/2014  12:13:00     -322.986     -103.437      -18.608      165.100      146.079       72.874    27257.901    21339.202     5310.634        8.463        2.695      339.144       58.716        0.030      339.082       12.169      858.333
04/27/2014  12:14:00     -266.391      -91.473       -3.781      212.772      173.163       68.697    45271.772    29985.316     4719.249        7.965        3.999      281.658       72.299        0.066      339.113       12.221      858.293
04/27/2014  12:15:00     -328.861     -248.712       -6.500      196.618      131.353       84.260    38658.802    17253.732     7099.763       11.652        3.151      412.319       95.307        0.053      339.175       12.326      858.259
04/27/2014  12:16:00     -402.277     -287.617       -0.884      284.597      193.395      109.794    80995.303    37401.668    12054.756       18.748        6.523      494.521      131.776        0.071      339.086       12.176      858.159
04/27/2014  12:17:00     -254.277      -37.841        4.267      161.380      117.090       73.590    26043.473    13710.144     5415.427        5.563        2.258      257.077       81.041        0.099      339.540       12.941      858.204
04/27/2014  12:18:00     -224.380     -172.918       22.601      200.253      198.298       99.614    40101.298    39322.099     9922.885        8.503        4.467      283.279      113.916        0.162      339.440       12.772      858.176
04/27/2014  12:19:00     -299.219      -62.582       18.464      171.155      158.186       82.278    29294.151    25022.731     6769.588        7.743        3.054      305.694       78.202        0.065      339.618       13.070      858.189
04/27/2014  12:20:00     -318.488       18.232        0.322      231.550      130.055       86.486    53615.440    16914.336     7479.914        8.987        3.900      319.010      115.540        0.131      339.328       12.586      858.166
04/27/2014  12:21:00     -535.373     -314.727      -12.803      254.174      253.267      102.737    64604.627    64144.268    10554.941       26.254        6.965      621.029       85.620        0.019      338.860       11.796      858.150
04/27/2014  12:22:00     -545.832     -300.369       -9.685      328.275      204.878      123.641   107764.219    41974.834    15287.119       27.660        8.251      623.020      118.393        0.036      338.722       11.564      858.105
04/27/2014  12:23:00     -436.287     -290.232       -2.717      223.457      188.513      113.730    49932.824    35537.148    12934.623       18.648        4.920      524.005      126.072        0.058      339.047       12.110      858.146
04/27/2014  12:24:00     -289.429     -224.008       14.150      287.042      309.884      123.144    82393.271    96028.120    15164.333       16.383        9.679      365.990      142.123        0.151      339.073       12.154      858.112
04/27/2014  12:25:00     -470.030     -332.527      -22.550      210.285      163.625       94.992    44219.693    26773.205     9023.484       20.600        4.001      575.763       97.951        0.029      338.949       11.945      858.163
04/27/2014  12:26:00     -320.985     -138.458        8.559      299.131      196.669      112.549    89479.652    38678.539    12667.229       13.152        7.041      349.574      143.721        0.169      339.379       12.669      858.167
04/27/2014  12:27:00     -576.467     -118.374      -10.366      246.106      217.355      114.083    60568.401    47243.245    13014.856       23.361        6.041      588.495      120.033        0.042      338.900       11.863      858.166
04/27/2014  12:28:00     -276.744      -66.145        0.853      188.648      151.760       88.620    35588.214    23031.131     7853.477        7.370        3.324      284.539       97.714        0.118      339.204       12.375      858.199
04/27/2014  12:29:00     -507.965     -104.952      -10.660      249.436      172.384       90.698    62218.360    29716.233     8226.080       18.464        5.008      518.694      105.754        0.042      339.077       12.162      858.188
04/27/2014  12:30:00     -424.584     -280.334      -21.202      240.701      203.201      108.399    57937.005    41290.633    11750.243       18.512        5.549      508.781      121.879        0.057      339.150       12.283      858.197
04/27/2014  12:31:00     -389.170     -175.502      -21.614      275.322      152.575      102.842    75802.158    23279.096    10576.517       14.617        5.483      426.912      110.212        0.067      339.282       12.506      858.184
04/27/2014  12:32:00     -456.653      -77.985        5.303      329.242      209.767      125.405   108400.433    44002.352    15726.394       19.135        8.406      463.264      163.319        0.124      339.399       12.702      858.206
04/27/2014  12:33:00     -306.557      -52.236       -3.616      302.509      176.192      103.439    91511.461    31043.748    10699.711       11.496        6.663      310.976      129.445        0.173      339.250       12.452      858.201
04/27/2014  12:34:00     -355.102      -35.476       -4.043      182.160      149.145       82.900    33182.162    22244.193     6872.426        9.482        3.115      356.869       87.257        0.060      339.043       12.105      858.186
04/27/2014  12:35:00     -481.212     -331.528      -16.948      308.934      228.371       92.052    95440.153    52153.111     8473.636       24.888        7.803      584.359       95.741        0.027      338.868       11.809      858.192
04/27/2014  12:36:00     -325.753     -135.805        1.252      242.770      210.059      102.824    58937.208    44124.682    10572.719       11.907        5.682      352.928      126.644        0.129      339.193       12.356      858.214
04/27/2014  12:37:00     -326.502      -88.393        6.120      214.126      164.726       87.811    45850.087    27134.650     7710.728        9.756        4.035      338.256       90.858        0.072      339.026       12.076      858.242
04/27/2014  12:38:00     -446.144      -48.415      -10.687      235.197      155.179       91.283    55317.404    24080.524     8332.497       14.460        4.387      448.763       96.151        0.046      339.082       12.170      858.154
04/27/2014  12:39:00     -479.281      -52.073      -27.257      231.725      150.545       94.121    53696.463    22663.844     8858.706       15.918        4.261      482.102      102.523        0.045      339.153       12.288      858.129
04/27/2014  12:40:00     -267.059     -143.792      -37.492      146.651      123.986       69.291    21506.402    15372.575     4801.272        6.753        2.084      303.310       56.568        0.035      339.311       12.555      858.202
04/27/2014  12:41:00     -237.811     -216.645        9.730      194.126      161.384       92.660    37684.957    26044.785     8585.847        8.794        3.616      321.698      109.458        0.116      339.585       13.016      858.197
04/27/2014  12:42:00     -211.934     -180.729       24.365      215.695      175.169      104.473    46524.477    30684.318    10914.618        8.313        4.406      278.530      120.646        0.188      339.657       13.137      858.173
04/27/2014  12:43:00     -221.838     -187.796       13.888      167.347      175.432       86.765    28005.163    30776.516     7528.097        7.548        3.315      290.654       97.188        0.112      339.370       12.653      858.228
04/27/2014  12:44:00     -409.292     -193.465      -25.266      228.171      181.938      102.214    52062.054    33101.353    10447.712       15.058        4.781      452.712      120.234        0.071      339.124       12.240      858.252
04/27/2014  12:45:00     -518.406      -70.072      -25.703      191.358      170.785       85.757    36617.768    29167.648     7354.308       17.371        3.657      523.120       78.382        0.022      339.086       12.176      858.293
04/27/2014  12:46:00     -334.429      -52.225      -10.240      161.582      152.129       94.750    26108.857    23143.348     8977.477        8.644        2.911      338.482       79.837        0.056      339.230       12.417      858.317
04/27/2014  12:47:00     -310.460     -224.776      -11.137      212.738      126.569       75.903    45257.520    16019.817     5761.232       10.702        3.352      383.288       99.154        0.067      339.439       12.770      858.286
04/27/2014  12:48:00     -464.928     -108.280       -8.097      189.320      141.996       97.873    35842.125    20162.912     9579.210       14.675        3.279      477.370      108.796        0.052      339.219       12.399      858.252
04/27/2014  12:49:00     -510.615     -214.102      -37.525      229.207      191.566      112.586    52536.066    36697.485    12675.609       20.492        5.095      553.685       97.824        0.031      339.332       12.590      858.289
04/27/2014  12:50:00     -397.882     -137.078       -3.253      231.188      188.661      102.439    53447.909    35593.004    10493.741       13.830        4.977      420.833      108.595        0.067      339.293       12.526      858.345
04/27/2014  12:51:00     -451.587     -289.046      -12.623      285.424      202.574       91.190    81466.741    41036.285     8315.662       20.920        6.541      536.171       87.424        0.027      339.115       12.224      858.315
04/27/2014  12:52:00     -324.722     -242.420       -0.187      218.815      154.221       82.090    47879.983    23784.072     6738.749       12.129        3.920      405.231       81.901        0.041      338.709       11.541      858.297
04/27/2014  12:53:00     -398.476     -286.513      -27.986      201.160      141.940       77.939    40465.171    20146.930     6074.532       15.416        3.334      490.788       95.675        0.038      338.887       11.841      858.230
04/27/2014  12:54:00     -351.246     -379.042      -31.288      180.108      155.556       82.650    32438.996    24197.576     6830.984       16.573        3.173      516.766       67.726        0.017      339.114       12.222      858.219
04/27/2014  12:55:00     -471.438     -338.347       -6.442      230.837      196.965       99.324    53285.847    38795.384     9865.251       21.934        5.097      580.287      110.683        0.036      339.412       12.723      858.215
04/27/2014  12:56:00     -627.862     -385.401       -5.843      274.886      225.154      123.807    75562.069    50694.114    15328.189       34.215        7.079      736.712      136.947        0.035      339.121       12.235      858.223
04/27/2014  12:57:00     -484.426     -244.590      -10.896      280.155      238.626      130.200    78486.639    56942.150    16952.095       22.347        7.619      542.672      137.362        0.064      339.380       12.671      858.290
04/27/2014  12:58:00     -650.977     -252.178      -14.405      289.257      223.994      119.279    83669.587    50173.441    14227.546       31.779        7.404      698.115      138.434        0.039      338.976       11.990      858.350
04/27/2014  12:59:00     -497.370     -309.361       -1.967      249.387      170.134      112.886    62193.801    28945.660    12743.357       22.346        5.194      585.731      128.453        0.048      338.966       11.974      858.338
04/27/2014  13:00:00     -382.641     -274.784      -12.168      220.733      174.049       97.888    48723.273    30293.069     9582.158       15.532        4.430      471.085       94.279        0.040      339.133       12.256      858.336
04/27/2014  13:01:00     -482.100     -219.932       -7.483      259.401      212.889      116.386    67288.688    45321.549    13545.807       20.348        6.308      529.896      137.614        0.067      339.237       12.429      858.347
04/27/2014  13:02:00     -629.869     -355.503      -39.248      356.478      267.244      136.839   127076.450    71419.447    18724.797       37.090       10.861      723.268      174.081        0.058      339.090       12.183      858.327
04/27/2014  13:03:00     -759.530     -308.815      -44.034      235.658      242.470      109.493    55534.840    58791.557    11988.688       40.023        6.316      819.910      123.372        0.023      338.799       11.694      858.387
04/27/2014  13:04:00     -224.463      -88.356      -13.370      199.733      182.788       54.995    39893.181    33411.325     3024.467        6.733        3.816      241.227       53.487        0.049      339.255       12.462      858.361
04/27/2014  13:05:00     -486.535     -192.675      -19.408      297.168      223.634      123.182    88309.041    50012.162    15173.741       21.383        7.675      523.297      147.448        0.079      339.075       12.157      858.192
04/27/2014  13:06:00     -620.994     -338.408        0.660      260.904      224.841      119.359    68071.078    50553.676    14246.575       31.649        6.644      707.216      136.312        0.037      339.008       12.044      858.215
04/27/2014  13:07:00     -611.802     -232.745      -24.457      205.679      243.723       98.305    42303.746    59401.093     9663.948       27.020        5.568      654.577       91.444        0.020      338.850       11.778      858.203
04/27/2014  13:08:00     -480.558     -271.276      -32.074      211.820      199.724       81.834    44867.873    39889.869     6696.749       19.849        4.573      551.839       82.992        0.023      339.177       12.328      858.161
04/27/2014  13:09:00     -280.861     -205.863       27.644      283.708      167.395      101.602    80490.368    28021.191    10322.949       12.041        5.942      348.228      120.389        0.120      339.518       12.903      858.200
04/27/2014  13:10:00     -522.830     -216.821      -15.794      307.183      235.040      105.006    94361.152    55243.612    11026.212       24.059        8.032      566.006      105.810        0.035      339.319       12.568      858.211
04/27/2014  13:11:00     -716.362     -418.713      -30.169      302.087      253.919      124.174    91256.603    64475.000    15419.233       43.024        8.558      829.756      115.440        0.019      338.731       11.578      858.224
04/27/2014  13:12:00     -482.201     -214.909      -36.344      187.651      154.639       79.875    35212.797    23913.349     6380.002       17.275        3.275      527.924       75.902        0.021      338.806       11.704      858.262
04/27/2014  13:13:00     -442.802     -146.931       -1.130      290.262      219.777      100.331    84252.025    48301.980    10066.220       18.011        7.131      466.543      128.569        0.076      339.176       12.329      858.281
04/27/2014  13:14:00     -393.200       -8.964       18.171      257.732      174.789      108.120    66425.579    30551.172    11689.959       13.182        5.433      393.302      107.793        0.075      339.359       12.635      858.250
04/27/2014  13:15:00     -408.031     -268.765       -3.711      206.367      179.623      102.272    42587.204    32264.286    10459.497       16.201        4.266      488.594      108.166        0.049      339.230       12.418      858.301
04/27/2014  13:16:00     -306.092     -170.367       -8.771      212.022      135.168       88.981    44953.490    18270.338     7917.564        9.695        3.557      350.310      105.165        0.090      339.702       13.214      858.350
04/27/2014  13:17:00     -700.449     -122.153      -35.541      216.940      185.272      109.166    47062.836    34325.657    11917.279       30.004        4.665      711.020      109.199        0.024      339.050       12.114      858.386
04/27/2014  13:18:00     -696.476     -282.832      -31.668      190.404      245.828      105.282    36253.774    60431.335    11084.337       33.690        5.388      751.713      112.204        0.022      339.041       12.100      858.386
04/27/2014  13:19:00     -475.440     -241.063      -11.921      296.461      219.299      103.405    87888.892    48092.030    10692.500       21.546        7.334      533.062      130.994        0.060      339.259       12.467      858.403
04/27/2014  13:20:00     -398.172      -14.383       -9.172      243.992      159.424       94.848    59532.103    25416.039     8996.145       12.637        4.697      398.432      106.679        0.072      339.493       12.861      858.428
04/27/2014  13:21:00     -621.294     -204.203      -20.636      287.488      177.307       98.260    82649.536    31437.720     9654.956       27.591        6.187      653.992      122.568        0.035      339.029       12.081      858.413
04/27/2014  13:22:00     -391.800     -220.125        5.351      282.535      148.533       99.537    79826.051    22062.182     9907.627       15.687        5.590      449.402      121.812        0.073      339.141       12.269      858.441
04/27/2014  13:23:00     -316.582     -117.684        1.135      269.815      110.883       65.585    72799.901    12294.948     4301.436       10.172        4.470      337.747       93.600        0.077      339.207       12.380      858.507
04/27/2014  13:24:00     -233.016     -185.660       -5.797      185.819      125.867       72.175    34528.850    15842.442     5209.243        7.218        2.779      297.936       68.350        0.053      339.356       12.631      858.500
04/27/2014  13:25:00     -309.332     -206.036       -1.329      187.216      168.531       83.773    35049.972    28402.658     7017.856       10.429        3.524      371.668       93.607        0.063      339.556       12.967      858.463
04/27/2014  13:26:00     -169.260     -316.828       23.449      139.250      228.825       73.347    19390.611    52360.744     5379.794       10.334        3.857      359.206       70.394        0.038      339.505       12.882      858.502
04/27/2014  13:27:00     -205.422     -195.537       15.061      176.014      140.719       80.840    30980.941    19801.977     6535.152        6.898        2.866      283.607       70.455        0.062      339.069       12.149      858.441
04/27/2014  13:28:00     -267.648     -246.649        7.012      180.766      135.826       74.200    32676.272    18448.610     5505.577        9.456        2.832      363.966       69.193        0.036      339.237       12.431      858.495
04/27/2014  13:29:00     -314.370     -168.077        4.975      171.608      193.555      102.827    29449.250    37463.646    10573.325       10.228        3.874      356.481      104.390        0.086      339.328       12.584      858.489
04/27/2014  13:30:00     -642.793     -273.211      -13.216      319.391      212.573      127.968   102010.327    45187.145    16375.763       32.576        8.179      698.447      145.746        0.044      339.079       12.165      858.426
04/27/2014  13:31:00     -553.732     -366.180      -21.980      267.698      218.335      115.551    71662.441    47670.250    13351.943       28.691        6.634      663.857      131.026        0.039      338.871       11.814      858.468
04/27/2014  13:32:00     -395.770     -170.058      -17.500      256.748      153.695       86.595    65919.411    23622.257     7498.613       14.143        4.852      430.759      108.018        0.063      339.256       12.462      858.515
04/27/2014  13:33:00     -446.486     -225.014      -16.466      244.219      159.775       92.542    59642.872    25527.957     8563.932       17.197        4.687      499.981      109.649        0.048      339.095       12.190      858.511
04/27/2014  13:34:00     -269.766     -166.612       12.320      167.589      120.965       84.609    28086.069    14632.638     7158.701        7.527        2.494      317.070       89.073        0.079      339.481       12.842      858.512
04/27/2014  13:35:00     -502.524     -272.591        7.863      308.801      200.044      111.272    95358.078    40017.429    12381.423       23.730        7.388      571.696      119.331        0.044      339.073       12.154      858.522
04/27/2014  13:36:00     -434.573     -200.522       -3.056      245.454      217.112      105.443    60247.447    47137.664    11118.222       17.376        5.925      478.605      122.277        0.065      339.137       12.262      858.495
04/27/2014  13:37:00     -421.512     -236.208      -18.174      224.453      179.432       86.970    50379.360    32195.960     7563.754       16.195        4.507      483.184       97.287        0.041      339.143       12.273      858.504
04/27/2014  13:38:00     -331.513     -159.699       -5.001      260.431      142.860      100.186    67824.444    20409.121    10037.236       11.683        4.914      367.974      132.815        0.130      339.307       12.548      858.498
04/27/2014  13:39:00     -381.194     -157.873        4.963      198.581      176.449       84.144    39434.478    31134.415     7080.211       12.394        3.882      412.593       85.623        0.043      339.374       12.661      858.485
04/27/2014  13:40:00     -435.818      -25.030      -27.298      210.912      158.861       81.804    44484.071    25236.936     6691.855       13.385        3.821      436.536      100.013        0.052      339.073       12.153      858.480
04/27/2014  13:41:00     -442.973     -234.702       -2.268      241.908      184.616       79.261    58519.600    34083.158     6282.241       17.508        4.944      501.308       88.652        0.031      339.071       12.152      858.419
04/27/2014  13:42:00     -414.897     -275.782        3.873      194.629      179.108       90.676    37880.465    32079.756     8222.185       16.318        3.909      498.192       92.281        0.034      339.067       12.143      858.391
04/27/2014  13:43:00     -317.639     -172.683       10.557      215.145      156.758       95.008    46287.541    24572.950     9026.501       10.534        3.994      361.544      109.492        0.092      339.418       12.734      858.397
04/27/2014  13:44:00     -341.510     -226.659      -12.879      208.574      151.069       82.828    43503.170    22821.928     6860.467       12.066        3.659      409.882       96.261        0.055      339.500       12.872      858.423
04/27/2014  13:45:00     -381.490     -359.512      -20.312      265.705      212.114      111.282    70599.052    44992.226    12383.753       20.156        6.399      524.198      100.553        0.037      339.247       12.447      858.427
04/27/2014  13:46:00     -395.327     -279.295      -17.196      218.864      200.286      101.605    47901.243    40114.463    10323.520       16.644        4.917      484.034      102.612        0.045      338.859       11.794      858.449
04/27/2014  13:47:00     -359.650     -267.726        6.102      176.979      171.420       80.351    31321.423    29384.960     6456.223       13.410        3.358      448.358       84.044        0.035      338.874       11.819      858.473
04/27/2014  13:48:00     -310.768     -217.558        7.321      201.133      190.928       98.769    40454.502    36453.480     9755.229       11.530        4.333      379.352      116.709        0.095      339.432       12.758      858.515
04/27/2014  13:49:00     -405.337     -270.697        3.900      228.513      167.621      112.459    52218.408    28096.848    12647.113       16.526        4.648      487.416      133.227        0.075      339.481       12.841      858.495
04/27/2014  13:50:00     -412.943      -78.914       -5.497      210.283      207.548       94.598    44219.096    43076.366     8948.856       13.649        4.812      420.416      101.060        0.058      339.370       12.654      858.561
04/27/2014  13:51:00     -246.543       -3.865        9.005      211.944      133.263       76.414    44920.187    17758.974     5839.147        6.469        3.426      246.573       91.126        0.137      339.736       13.271      858.627
04/27/2014  13:52:00     -313.262      -58.205       -6.561      203.517      180.187       82.659    41419.192    32467.253     6832.505        9.113        4.036      318.624      100.832        0.100      339.268       12.483      858.634
04/27/2014  13:53:00     -415.101     -212.376      -16.219      236.912      139.820       81.907    56127.126    19549.495     6708.679       15.001        4.119      466.275      112.938        0.059      339.299       12.534      858.663
04/27/2014  13:54:00     -346.276     -293.407      -10.099      211.328      176.566       97.960    44659.617    31175.644     9596.226       14.575        4.272      453.867       76.759        0.029      339.231       12.420      858.649
04/27/2014  13:55:00     -467.249     -345.361        5.086      290.442      207.535      127.525    84356.833    43070.854    16262.538       24.063        7.185      581.030      147.586        0.065      339.166       12.311      858.647
04/27/2014  13:56:00     -512.078     -225.446       10.731      257.215      166.149       90.696    66159.658    27605.427     8225.682       20.756        5.100      559.508      114.529        0.042      339.477       12.834      858.630
04/27/2014  13:57:00     -583.305     -303.107      -21.034      281.358      198.910      106.568    79162.511    39565.334    11356.664       28.130        6.504      657.358      120.418        0.034      339.221       12.402      858.695
04/27/2014  13:58:00     -415.519     -196.920       -8.655      202.585      166.109       91.054    41040.858    27592.138     8290.746       14.420        3.846      459.819      114.931        0.062      338.938       11.928      858.728
04/27/2014  13:59:00     -300.859     -220.877       -6.698      240.200      231.826      114.512    57696.238    53743.268    13113.105       13.193        6.228      373.233      131.457        0.124      339.419       12.735      858.670
04/27/2014  14:00:00     -415.205     -235.711        7.674      249.687      166.068      105.067    62343.605    27578.590    11039.079       16.447        5.048      477.446       92.678        0.038      339.092       12.185      858.671
04/27/2014  14:01:00     -567.509     -327.811      -12.039      306.969      219.886      119.654    94229.765    48349.774    14316.981       29.325        7.845      655.383      138.536        0.045      339.013       12.053      858.636
04/27/2014  14:02:00     -522.738     -338.294      -19.140      242.281      190.217      106.991    58700.259    36182.483    11447.173       24.718        5.316      622.654      102.259        0.027      339.082       12.169      858.598
04/27/2014  14:03:00     -314.385     -216.710       11.953      274.274      185.318      107.075    75225.963    34342.622    11465.060       13.346        6.052      381.839      120.326        0.099      339.413       12.726      858.586
04/27/2014  14:04:00     -399.359     -306.908      -18.126      222.521      196.207      110.557    49515.712    38497.365    12222.829       17.710        5.012      503.667      116.554        0.054      339.219       12.398      858.590
04/27/2014  14:05:00     -358.936     -356.666       13.671      253.225      187.745      111.072    64122.965    35248.028    12336.894       18.395        5.585      506.010      108.393        0.046      339.260       12.468      858.590
04/27/2014  14:06:00     -634.208     -308.202      -17.868      258.039      235.532      112.470    66583.899    55475.385    12649.532       31.609        6.735      705.130      125.264        0.032      339.039       12.096      858.606
04/27/2014  14:07:00     -530.240     -295.041      -12.665      275.411      195.620      117.568    75851.067    38267.325    13822.174       24.813        6.397      606.798      132.332        0.048      339.102       12.203      858.623
04/27/2014  14:08:00     -414.372     -268.373      -31.345      203.910      162.511       85.183    41579.120    26409.666     7256.222       15.996        3.762      493.689       76.969        0.024      339.041       12.102      858.591
04/27/2014  14:09:00     -324.688     -309.782       12.451      233.330      187.503      104.749    54442.880    35157.503    10972.456       15.104        5.029      448.762      129.796        0.084      339.372       12.659      858.656
04/27/2014  14:10:00     -492.626     -253.670       -8.558      267.074      208.206      112.057    71328.440    43349.703    12556.671       21.714        6.362      554.102      115.771        0.044      338.948       11.944      858.639
04/27/2014  14:11:00     -379.917     -132.067      -15.143      228.361      164.664       82.028    52148.600    27114.070     6728.642       12.398        4.300      402.217       95.331        0.056      339.092       12.187      858.662
04/27/2014  14:12:00     -380.026     -210.987        1.330      261.118      174.457       92.288    68182.752    30435.194     8516.987       14.801        5.357      434.667      122.763        0.080      339.348       12.616      858.645
04/27/2014  14:13:00     -270.977     -138.000      -11.047      231.302      128.300       82.039    53500.598    16460.988     6730.320        8.463        3.835      304.093       95.797        0.099      339.178       12.332      858.667
04/27/2014  14:14:00     -110.098      -48.783       48.661      154.256      146.301       81.610    23794.767    21404.060     6660.250        3.435        2.593      120.421       81.750        0.461      339.652       13.131      858.638
04/27/2014  14:15:00     -390.858     -171.120       -8.132      210.844      263.091      107.482    44455.348    69216.672    11552.394       15.365        6.261      426.676      118.995        0.078      339.362       12.640      858.592
04/27/2014  14:16:00     -384.438     -295.256      -19.088      139.787      148.157       85.534    19540.544    21950.438     7316.128       14.206        2.440      484.736       84.849        0.031      339.327       12.581      858.630
04/27/2014  14:17:00     -365.230     -336.845        1.091      214.114      204.637      101.305    45844.938    41876.480    10262.629       17.240        4.899      496.847      114.021        0.053      339.122       12.236      858.632
04/27/2014  14:18:00     -352.342     -256.213        3.068      194.706      170.970       82.581    37910.470    29230.730     6819.650       13.187        3.698      435.649       89.600        0.042      339.210       12.385      858.672
04/27/2014  14:19:00     -185.773     -132.907       18.475      182.212      128.709       79.231    33201.133    16565.892     6277.523        5.427        2.802      228.421       83.658        0.134      339.500       12.873      858.704
04/27/2014  14:20:00     -128.939     -149.363       27.163      107.961      123.512       52.830    11655.621    15255.273     2790.971        3.468        1.485      197.318       48.574        0.061      339.326       12.580      858.658
04/27/2014  14:21:00     -231.793      -68.248       12.529      193.010      147.725       82.869    37252.782    21822.689     6867.321        6.223        3.297      241.632       89.875        0.138      339.650       13.128      858.642
04/27/2014  14:22:00     -403.927     -135.214      -10.028      221.435      214.108       94.634    49033.418    45842.295     8955.607       14.267        5.192      425.958      107.869        0.064      339.487       12.852      858.741
04/27/2014  14:23:00     -404.071      -90.248        0.061      136.613      197.141       74.353    18663.192    38864.419     5528.431       11.722        3.153      414.027       71.173        0.030      339.606       13.051      858.760
04/27/2014  14:24:00     -560.684        6.298      -36.093      230.871      198.159       96.920    53301.563    39266.803     9393.489       20.881        5.098      560.719      114.801        0.042      339.362       12.640      858.748
04/27/2014  14:25:00     -433.957      -96.689       -6.880      315.599      276.774      115.001    99602.699    76603.844    13225.214       19.354        9.472      444.598      140.181        0.099      339.458       12.803      858.699
04/27/2014  14:26:00     -366.377     -211.438        4.969      233.050      162.376       93.966    54312.110    26365.859     8829.574       13.422        4.475      423.011      120.825        0.082      339.552       12.960      858.766
04/27/2014  14:27:00     -264.592     -168.469      -17.824      172.193      151.288       87.522    29650.274    22887.926     7660.143        7.944        3.010      313.673      100.317        0.102      339.485       12.847      858.783
04/27/2014  14:28:00     -303.564     -175.557        9.593      239.605      217.110      109.773    57410.783    47136.867    12050.160       11.981        5.830      350.672      121.556        0.120      339.467       12.818      858.752
04/27/2014  14:29:00     -430.563     -317.011      -14.370      245.464      192.175      109.386    60252.410    36931.168    11965.307       19.760        5.457      534.678      121.055        0.051      339.046       12.110      858.695
04/27/2014  14:30:00     -353.094     -172.313      -14.414      209.311      155.476       76.008    43810.897    24172.638     5777.163       11.415        3.688      392.896       72.991        0.035      339.196       12.360      858.688
04/27/2014  14:31:00     -237.913      -50.508       -0.246      203.493      136.148       79.380    41409.409    18536.284     6301.250        6.269        3.312      243.215       95.009        0.153      339.366       12.648      858.669
04/27/2014  14:32:00     -308.804      -66.967      -15.022      191.049      105.458       73.039    36499.607    11121.484     5334.665        7.650        2.648      315.982       73.819        0.055      339.317       12.564      858.682
04/27/2014  14:33:00     -204.403     -121.932       13.815      172.161      110.433       69.386    29639.558    12195.554     4814.412        5.173        2.332      238.009       81.232        0.116      339.637       13.104      858.696
04/27/2014  14:34:00     -259.386     -116.589       22.931      223.893      147.645      100.886    50128.046    21798.971    10178.075        8.174        4.105      284.384      104.264        0.134      339.818       13.409      858.709
04/27/2014  14:35:00     -321.943     -135.162      -19.550      276.617      179.651       89.427    76516.893    32274.452     7997.136       11.952        5.839      349.165      105.948        0.092      339.663       13.148      858.675
04/27/2014  14:36:00     -523.410     -232.209      -20.667      250.817      170.207       96.028    62909.393    28970.547     9221.300       21.468        5.055      572.607      105.233        0.034      339.159       12.298      858.748
04/27/2014  14:37:00     -394.164      -20.741      -25.008      287.276      135.432       92.055    82527.730    18341.720     8474.178       13.286        5.467      394.710      124.479        0.099      339.171       12.319      858.674
04/27/2014  14:38:00     -407.321      -75.309       -3.315      194.699      199.631       89.952    37907.712    39852.639     8091.386       12.870        4.293      414.224      100.765        0.059      339.389       12.686      858.614
04/27/2014  14:39:00     -285.149     -220.310        3.753      233.745      168.361       80.069    54636.665    28345.451     6411.093       10.961        4.470      360.342       42.623        0.014      339.524       12.913      858.686
04/27/2014  14:40:00     -249.630     -184.647       14.289      184.338      149.884       90.111    33980.319    22465.146     8120.014        8.058        3.228      310.498      105.770        0.116      339.312       12.556      858.710
04/27/2014  14:41:00     -330.261     -217.239       -1.777      178.337      159.537       78.442    31804.058    25452.137     6153.071       10.983        3.170      395.304       88.758        0.050      339.447       12.782      858.740
04/27/2014  14:42:00     -340.022     -300.703       -5.317      195.147      185.313      109.476    38082.207    34341.003    11985.047       14.522        4.220      453.913      119.636        0.069      339.537       12.936      858.718
04/27/2014  14:43:00     -234.755     -133.346        2.179      194.335      144.526       79.785    37766.239    20887.779     6365.587        6.894        3.251      269.984       77.500        0.082      339.805       13.386      858.755
04/27/2014  14:44:00     -388.018     -204.996       -5.929      270.498      147.443      104.742    73169.223    21739.326    10970.799       14.923        5.294      438.840      121.137        0.076      339.349       12.617      858.757
04/27/2014  14:45:00     -448.284     -230.862      -18.632      308.459      238.944      126.943    95146.936    57094.292    16114.511       21.145        8.418      504.238      148.543        0.087      339.281       12.503      858.734
04/27/2014  14:46:00     -389.793      -59.864      -11.674      196.523      138.242       81.584    38621.409    19110.879     6655.890       11.001        3.219      394.363       91.073        0.053      339.293       12.525      858.748
04/27/2014  14:47:00     -358.825     -144.593       -5.525      188.770      127.455       70.239    35634.242    16244.898     4933.490       10.324        2.841      386.863       71.562        0.034      339.101       12.200      858.716
04/27/2014  14:48:00     -313.822     -171.003       -9.344      125.746      115.892       57.729    15811.952    13430.888     3332.607        8.019        1.629      357.388       59.496        0.028      339.093       12.188      858.646
04/27/2014  14:49:00     -137.337      -94.129       17.228      136.116      117.902       54.164    18527.639    13900.908     2933.771        3.168        1.768      166.499       61.645        0.137      339.381       12.673      858.591
04/27/2014  14:50:00     -320.938     -132.167        6.557      227.636      152.252       93.714    51818.241    23180.752     8782.260       10.213        4.189      347.087      108.207        0.097      339.295       12.528      858.624
04/27/2014  14:51:00     -360.043     -180.817        4.140      217.776      143.067       96.834    47426.513    20468.265     9376.812       11.979        3.864      402.897      116.296        0.083      339.237       12.430      858.625
04/27/2014  14:52:00     -430.259     -260.731       -7.711      239.958      206.679       92.060    57579.605    42716.398     8475.054       18.094        5.439      503.093      110.625        0.048      339.165       12.309      858.623
04/27/2014  14:53:00     -523.632     -236.655      -29.137      199.729      160.602       74.188    39891.871    25792.970     5503.895       20.110        3.559      574.627       82.253        0.020      338.904       11.871      858.612
04/27/2014  14:54:00     -591.544     -316.262      -26.437      262.205      192.838      102.034    68751.715    37186.681    10410.850       28.347        5.817      670.780      117.747        0.031      338.961       11.964      858.518
04/27/2014  14:55:00     -473.397     -237.842       -8.016      237.536      181.287       93.290    56423.387    32864.909     8703.066       18.935        4.900      529.786      111.257        0.044      339.169       12.315      858.460
04/27/2014  14:56:00     -500.089     -378.346       -5.481      261.010      206.816      120.004    68126.476    42772.701    14400.940       25.926        6.265      627.084      133.715        0.045      339.314       12.559      858.453
04/27/2014  14:57:00     -498.376     -368.962       11.375      306.322      251.166      137.199    93832.874    63084.498    18823.450       28.016        8.787      620.090      169.993        0.075      338.920       11.896      858.410
04/27/2014  14:58:00     -570.477     -240.874       -1.574      282.202      201.527      112.635    79637.911    40613.226    12686.734       25.818        6.647      619.245      126.875        0.042      339.084       12.174      858.443
04/27/2014  14:59:00     -563.027     -285.279      -20.225      298.498      266.981      120.021    89101.327    71279.062    14404.921       28.675        8.739      631.176      147.458        0.055      338.986       12.006      858.481
04/27/2014  15:00:00     -624.199     -432.514      -42.410      310.609      227.902      115.316    96478.110    51939.512    13297.845       37.007        8.086      759.404      130.458        0.030      338.896       11.855      858.489
04/27/2014  15:01:00     -326.979     -197.679       -1.919      219.209      160.568       79.483    48052.722    25782.228     6317.499       11.306        4.008      382.090       76.128        0.040      339.167       12.312      858.519
04/27/2014  15:02:00     -371.778     -276.548       22.893      262.376      166.847      109.044    68841.139    27838.008    11890.520       16.187        5.428      463.354      134.156        0.084      339.122       12.237      858.506
04/27/2014  15:03:00     -375.367     -298.211        4.084      202.995      215.950      105.937    41206.809    46634.338    11222.714       16.444        4.953      479.406      118.540        0.061      339.119       12.232      858.508
04/27/2014  15:04:00     -347.136     -270.175       -7.484      243.205      150.493       96.230    59148.803    22648.152     9260.138       14.229        4.553      439.884      119.755        0.074      339.101       12.200      858.508
04/27/2014  15:05:00     -372.072     -215.819       11.556      223.986      172.217       95.502    50169.920    29658.789     9120.690       13.703        4.447      430.134       88.512        0.042      339.245       12.444      858.541
04/27/2014  15:06:00      -94.897     -216.569        7.133      116.568      187.135       64.943    13588.139    35019.326     4217.639        5.438        2.641      236.448       83.281        0.124      339.162       12.304      858.494
04/27/2014  15:07:00     -206.286     -249.466        0.875      148.405      157.204       79.183    22024.102    24713.131     6269.925        7.889        2.650      323.709       76.292        0.056      339.100       12.200      858.439
04/27/2014  15:08:00     -105.755     -139.469       -8.766      153.333      117.768       75.901    23510.998    13869.301     5761.032        3.692        2.157      175.030       36.417        0.043      339.528       12.920      858.385
04/27/2014  15:09:00     -279.777     -204.748        8.840      173.974      141.390       78.159    30267.004    19991.197     6108.795        8.831        2.818      346.694       63.057        0.033      339.641       13.110      858.413
04/27/2014  15:10:00     -467.760     -302.481      -21.837      285.503      203.923      109.288    81511.714    41584.700    11943.950       22.288        6.752      557.041      124.537        0.050      339.189       12.350      858.410
04/27/2014  15:11:00     -595.316     -372.266      -24.051      251.425      228.794      133.658    63214.712    52346.619    17864.425       31.347        6.671      702.128      130.286        0.034      339.016       12.058      858.393
04/27/2014  15:12:00     -482.205     -261.718      -10.611      285.072      255.231      120.582    81265.844    65142.708    14540.081       23.101        8.047      548.651      149.029        0.074      339.082       12.169      858.425
04/27/2014  15:13:00     -461.053     -254.992       -3.432      256.121      162.608       98.228    65597.968    26441.271     9648.692       18.962        5.084      526.869      120.212        0.052      339.142       12.269      858.501
04/27/2014  15:14:00     -392.679     -141.100       25.464      294.581      160.256      107.765    86778.014    25681.853    11613.309       14.939        6.204      417.260      148.611        0.127      339.250       12.451      858.554
04/27/2014  15:15:00      -76.490      -18.646       14.192      111.036       87.793       60.925    12328.975     7707.556     3711.844        1.507        1.187       78.730       53.796        0.467      339.510       12.892      858.538
04/27/2014  15:16:00     -115.435       11.018        8.506      112.724       87.334       56.029    12706.777     7627.272     3139.258        1.849        1.174      115.960       51.918        0.200      339.470       12.822      858.444
04/27/2014  15:17:00     -103.000      -99.042        4.084       84.487      102.144       53.260     7137.978    10433.395     2836.587        2.042        1.020      142.893       52.406        0.135      339.519       12.905      858.384
04/27/2014  15:18:00     -192.628     -171.442       -3.949      126.704       99.630       58.807    16053.954     9926.191     3458.205        4.797        1.472      257.872       65.845        0.065      339.353       12.625      858.379
04/27/2014  15:19:00     -269.437     -157.833      -17.637      178.064      100.067       61.507    31706.938    10013.364     3783.082        7.165        2.275      312.262       63.052        0.041      339.428       12.754      858.408
04/27/2014  15:20:00     -489.423     -180.309      -16.791      293.976      189.215      105.330    86421.701    35802.235    11094.399       20.280        6.666      521.580      138.680        0.071      339.147       12.279      858.376
04/27/2014  15:21:00     -265.313     -241.701       24.915      249.116      207.976       94.201    62059.008    43253.966     8873.905       12.179        5.709      358.902      122.159        0.116      339.132       12.253      858.421
04/27/2014  15:22:00     -349.689     -250.097       10.639      212.178      159.453      100.473    45019.438    25425.146    10094.741       13.273        4.027      429.920      106.427        0.061      339.110       12.217      858.407
04/27/2014  15:23:00     -368.289     -303.847       -2.768      202.171      175.784       89.647    40873.059    30899.985     8036.617       15.387        3.990      477.451       98.005        0.042      339.077       12.162      858.400
04/27/2014  15:24:00     -362.397     -271.634      -11.212      221.897      190.164       89.803    49238.198    36162.405     8064.503       14.934        4.673      452.898       92.335        0.042      339.043       12.102      858.405
04/27/2014  15:25:00     -357.654     -287.600        3.788      226.628      207.349      101.160    51360.092    42993.657    10233.312       15.759        5.229      458.945      116.574        0.065      339.123       12.237      858.430
04/27/2014  15:26:00     -339.653     -408.139      -16.380      207.309      213.548      110.714    42977.117    45602.607    12257.571       19.150        5.042      530.982       91.288        0.030      339.104       12.205      858.445
04/27/2014  15:27:00     -590.883     -400.367       -9.476      237.280      181.942      118.610    56301.741    33102.950    14068.262       30.648        5.174      713.748      124.520        0.030      338.851       11.780      858.446
04/27/2014  15:28:00     -405.729     -255.795        3.917      218.854      174.618      105.725    47897.121    30491.483    11177.807       15.980        4.478      479.632      102.151        0.045      338.968       11.976      858.434
04/27/2014  15:29:00     -459.362     -320.275      -12.493      227.526      160.170      101.890    51768.255    25654.405    10381.505       20.076        4.390      559.991      115.976        0.043      338.994       12.020      858.433
04/27/2014  15:30:00     -370.431     -457.185      -27.016      177.803      179.202       88.441    31613.880    32113.203     7821.810       20.924        3.577      588.419       90.206        0.024      338.920       11.895      858.389
04/27/2014  15:31:00     -452.842     -202.851       -7.739      207.274      187.698      108.411    42962.323    35230.629    11752.903       16.809        4.497      496.200      111.573        0.051      339.109       12.215      858.377
04/27/2014  15:32:00     -330.595     -250.453       20.819      286.232      167.605       97.144    81928.979    28091.290     9437.035       14.593        5.973      414.753      119.730        0.083      339.282       12.506      858.370
04/27/2014  15:33:00     -376.433     -129.854      -24.344      183.380      188.060       85.248    33628.129    35366.393     7267.231       11.769        3.813      398.201       68.693        0.030      339.007       12.042      858.384
04/27/2014  15:34:00     -304.796     -139.724       15.296      228.198      194.694       87.293    52074.146    37905.623     7620.019       10.511        4.880      335.296       97.627        0.085      339.381       12.672      858.371
04/27/2014  15:35:00     -683.766     -335.759      -28.149      182.188      169.727       96.069    33192.497    28807.319     9229.195       32.613        3.561      761.755       85.434        0.013      338.978       11.993      858.308
04/27/2014  15:36:00     -396.240     -167.192       -7.045      218.914      176.365       82.011    47923.312    31104.623     6725.826       13.536        4.288      430.069       85.984        0.040      339.147       12.278      858.330
04/27/2014  15:37:00     -280.945     -230.444        7.860      230.145      263.118       84.262    52966.598    69231.209     7100.025       13.067        6.465      363.366      108.043        0.088      339.270       12.485      858.325
04/27/2014  15:38:00     -416.857     -142.480      -10.083      240.991      216.126      101.707    58076.454    46710.664    10344.415       15.463        5.757      440.534       99.054        0.051      339.398       12.700      858.329
04/27/2014  15:39:00     -560.109     -164.572      -10.808      234.779      192.824      106.412    55121.385    37181.156    11323.424       22.225        5.181      583.786      123.564        0.045      339.395       12.696      858.353
04/27/2014  15:40:00     -659.848     -267.397      -46.093      235.723      205.855       98.601    55565.164    42376.255     9722.148       30.832        5.383      711.969       99.645        0.020      339.093       12.188      858.409
04/27/2014  15:41:00     -565.429     -131.022      -43.496      294.121      199.289      105.663    86507.317    39715.972    11164.733       23.805        6.869      580.411      130.735        0.051      339.270       12.484      858.420
04/27/2014  15:42:00     -652.184     -280.997      -18.723      232.029      205.054       96.177    53837.640    42047.190     9249.999       30.487        5.257      710.143       83.651        0.014      338.976       11.991      858.461
04/27/2014  15:43:00     -437.494     -234.763        4.636      245.473      167.977       85.066    60256.878    28216.297     7236.306       17.110        4.785      496.502       95.521        0.037      339.053       12.120      858.451
04/27/2014  15:44:00     -312.994     -234.529      -12.823      194.081      156.391       92.779    37667.433    24458.135     8607.853       11.192        3.537      391.113       83.919        0.046      339.170       12.317      858.392
04/27/2014  15:45:00     -240.161     -148.410       17.322      178.171      112.418       70.582    31744.896    12637.698     4981.769        6.467        2.468      282.317       74.815        0.070      339.251       12.453      858.342
04/27/2014  15:46:00     -457.072     -276.389      -14.312      291.917      224.327      100.374    85215.552    50322.400    10075.016       21.553        7.281      534.140      129.011        0.058      339.299       12.534      858.338
04/27/2014  15:47:00     -409.334     -252.332       -5.037      251.410      207.353      112.085    63207.045    42995.169    12563.041       17.498        5.938      480.860      133.161        0.077      339.128       12.246      858.361
04/27/2014  15:48:00     -433.410     -227.996       -0.906      194.432      171.398       94.024    37803.620    29377.247     8840.542       15.791        3.801      489.721       92.059        0.035      339.136       12.260      858.362
04/27/2014  15:49:00     -502.486     -330.401      -14.064      234.903      179.145      107.886    55179.221    32092.809    11639.324       23.036        4.946      601.379      111.192        0.034      339.015       12.055      858.367
04/27/2014  15:50:00     -464.445     -315.646       -9.040      208.057      148.505      105.186    43287.509    22053.715    11064.155       19.590        3.820      561.553      121.035        0.046      338.955       11.955      858.320
04/27/2014  15:51:00     -352.784     -179.141       -2.737      173.881      134.005       82.504    30234.604    17957.308     6806.849       10.577        2.750      395.661       77.971        0.039      339.270       12.486      858.318
04/27/2014  15:52:00     -542.063     -361.812      -23.181      244.024      172.491      108.012    59547.521    29753.228    11666.538       26.310        5.048      651.721      127.596        0.038      339.158       12.297      858.272
04/27/2014  15:53:00     -411.018     -231.103       17.139      248.534      162.419       97.479    61769.072    26379.920     9502.084       16.013        4.883      471.534      115.806        0.060      339.169       12.315      858.309
04/27/2014  15:54:00     -328.356     -259.121       26.233      249.384      175.337      115.942    62192.257    30743.210    13442.562       14.099        5.319      418.284      131.428        0.099      339.284       12.510      858.304
04/27/2014  15:55:00     -238.551     -123.992        6.398      179.559      133.705       80.942    32241.370    17877.148     6551.624        6.448        2.834      268.851       94.874        0.125      339.325       12.578      858.359
04/27/2014  15:56:00     -337.144     -128.607       11.249      188.505      161.048       84.941    35534.211    25936.508     7214.965        9.950        3.434      360.840      102.642        0.081      339.344       12.610      858.371
04/27/2014  15:57:00     -425.789     -267.885      -11.810      207.223      179.249       96.524    42941.407    32130.107     9316.951       16.878        4.219      503.049      116.554        0.054      339.085       12.174      858.304
04/27/2014  15:58:00     -321.516     -201.340       -1.086      125.271       95.927       64.616    15692.938     9201.948     4175.284        8.649        1.454      379.355       56.161        0.022      339.371       12.656      858.290
04/27/2014  15:59:00     -251.247     -186.065        7.228      240.989      168.032       98.163    58075.724    28234.662     9636.001        9.685        4.797      312.642      108.973        0.121      339.408       12.719      858.291
04/27/2014  16:00:00     -461.443     -184.666       -1.329      203.795      127.365       98.474    41532.216    16221.921     9697.070       15.723        3.373      497.022      100.199        0.041      339.159       12.298      858.261
04/27/2014  16:01:00     -244.192     -190.621       -9.059      147.194      154.139       66.595    21666.091    23758.901     4434.862        7.294        2.493      309.783       78.978        0.065      339.483       12.845      858.278
04/27/2014  16:02:00     -423.934     -138.972       -5.286      363.251      138.219       98.129   131951.476    19104.596     9629.381       17.984        8.034      446.131      146.828        0.108      339.407       12.718      858.278
04/27/2014  16:03:00     -393.264     -135.141      -24.919      183.194      181.514       87.767    33559.945    32947.437     7703.118       12.386        3.711      415.836       73.587        0.031      339.240       12.435      858.250
04/27/2014  16:04:00     -394.075     -248.994        7.128      239.892      188.924      104.809    57548.114    35692.244    10984.948       16.076        5.211      466.148      122.077        0.069      339.281       12.505      858.218
04/27/2014  16:05:00     -508.760     -366.550        8.650      248.053      206.810      105.276    61530.144    42770.327    11083.039       25.430        5.769      627.053      123.476        0.039      338.995       12.022      858.238
04/27/2014  16:06:00     -411.632     -168.047        3.742      224.608      183.025       95.122    50448.972    33498.323     9048.288       14.533        4.650      444.613      106.360        0.057      339.079       12.164      858.320
04/27/2014  16:07:00     -363.919     -306.812        3.354      202.423      150.760      100.172    40975.185    22728.460    10034.509       15.015        3.687      475.995       98.578        0.043      339.081       12.166      858.302
04/27/2014  16:08:00     -351.030     -153.960       -3.910      226.455      142.273       91.493    51281.771    20241.659     8370.968       11.340        3.995      383.309       86.690        0.051      339.195       12.360      858.299
04/27/2014  16:09:00     -409.470     -275.132       -8.108      288.870      239.588      115.772    83445.775    57402.445    13403.151       19.881        7.713      493.318      150.478        0.093      339.234       12.425      858.288
04/27/2014  16:10:00     -466.134     -277.977      -16.088      247.701      207.065      103.241    61355.968    42875.996    10658.688       20.483        5.745      542.727      100.056        0.034      339.208       12.382      858.273
04/27/2014  16:11:00     -602.345     -272.060       -9.390      263.433      230.153      107.448    69396.928    52970.329    11545.068       28.539        6.696      660.936      126.972        0.037      338.856       11.789      858.275
04/27/2014  16:12:00     -330.259     -173.246       -2.240      194.786      162.363       90.149    37941.460    26361.805     8126.843       10.575        3.622      372.941       88.014        0.056      339.268       12.483      858.307
04/27/2014  16:13:00     -373.959      -64.064        2.144      201.925      153.629      100.848    40773.625    23601.850    10170.256       10.924        3.727      379.407       98.206        0.067      339.395       12.696      858.304
04/27/2014  16:14:00     -537.094     -221.571       -4.666      272.068      219.680      100.478    74021.210    48259.230    10095.850       23.495        6.619      581.002      109.562        0.036      339.352       12.623      858.297
04/27/2014  16:15:00     -658.975     -195.670        0.288      277.545      237.744      110.699    77031.150    56522.043    12254.222       30.914        7.290      687.411      131.861        0.037      338.981       11.997      858.276
04/27/2014  16:16:00     -245.380     -132.640       12.812      174.807      188.264       74.885    30557.339    35443.513     5607.771        7.477        3.580      278.935       76.801        0.076      339.243       12.439      858.311
04/27/2014  16:17:00     -340.267     -231.222       27.421      233.119      160.282       92.588    54344.474    25690.215     8572.611       12.928        4.430      411.394      110.781        0.073      339.082       12.170      858.312
04/27/2014  16:18:00     -440.716     -248.551       -2.922      263.062      220.049      122.542    69201.516    48421.444    15016.452       19.430        6.632      505.973      136.680        0.073      339.148       12.279      858.315
04/27/2014  16:19:00     -496.859     -303.891        8.083      285.712      201.632      115.512    81631.544    40655.459    13342.978       23.743        6.781      582.424      146.683        0.063      338.912       11.882      858.325
04/27/2014  16:20:00     -193.072     -200.376        9.546      166.961      156.407       82.436    27875.876    24463.130     6795.710        6.831        2.957      278.258       89.902        0.104      339.317       12.566      858.375
04/27/2014  16:21:00     -259.347     -116.217        7.172      187.398      168.021       98.810    35118.019    28231.092     9763.442        7.695        3.656      284.196       96.966        0.116      339.455       12.797      858.361
04/27/2014  16:22:00     -543.040     -228.955      -16.558      233.396      193.558       90.945    54473.712    37464.644     8271.016       22.388        5.010      589.332       91.745        0.024      339.002       12.035      858.291
04/27/2014  16:23:00     -444.146     -147.861      -16.658      195.902      215.253       99.399    38377.487    46333.673     9880.086       15.698        4.730      468.112      103.849        0.049      339.111       12.218      858.249
04/27/2014  16:24:00     -360.036      -61.925       13.149      227.830      150.099       81.166    51906.730    22529.786     6587.980       10.731        4.051      365.322       99.825        0.075      339.310       12.552      858.259
04/27/2014  16:25:00     -358.662     -131.076       -2.294      196.310      192.063       81.585    38537.617    36888.365     6656.044       11.394        4.104      381.863       91.536        0.057      339.251       12.454      858.245
04/27/2014  16:26:00     -408.159      -73.863      -15.462      203.104      179.523       90.347    41251.244    32228.514     8162.550       12.695        4.082      414.789       98.390        0.056      339.341       12.605      858.240
04/27/2014  16:27:00     -110.243      -65.821       26.558      131.555      125.369       69.400    17306.740    15717.427     4816.327        2.751        1.892      128.398       72.199        0.316      339.583       13.016      858.251
04/27/2014  16:28:00     -133.020     -156.644       17.171      132.956      153.950       83.828    17677.399    23700.526     7027.059        4.546        2.420      205.503       51.463        0.063      339.473       12.828      858.222
04/27/2014  16:29:00     -279.634     -254.502        6.338      172.743      193.205      100.191    29840.079    37328.239    10038.171       11.009        3.860      378.109       94.653        0.063      339.383       12.675      858.222
04/27/2014  16:30:00     -377.743     -197.158       -3.124      223.843      178.085      101.354    50105.743    31714.372    10272.695       13.681        4.605      426.100       93.699        0.048      339.076       12.158      858.218
04/27/2014  16:31:00     -506.229     -337.895      -10.485      221.571      169.366      102.480    49093.844    28684.770    10502.071       22.940        4.414      608.639      109.733        0.033      338.919       11.894      858.190
04/27/2014  16:32:00     -192.132     -171.065       24.927      189.179      146.779       82.404    35788.842    21543.943     6790.441        6.545        3.206      257.251      100.328        0.152      339.230       12.419      858.296
04/27/2014  16:33:00     -550.296     -370.269       -8.768      260.218      184.867      106.492    67713.175    34175.626    11340.652       27.659        5.661      663.269      112.961        0.029      338.957       11.957      858.341
04/27/2014  16:34:00     -483.578     -384.457       -7.171      293.597      216.119      119.261    86199.012    46707.613    14223.135       26.439        7.356      617.782      144.173        0.054      338.978       11.994      858.422
04/27/2014  16:35:00     -136.944     -198.718       30.305      165.832      159.108       99.812    27500.391    25315.433     9962.523        6.096        3.139      241.335      102.687        0.181      339.089       12.182      858.451
04/27/2014  16:36:00     -377.344     -179.028       -5.733      226.615      189.975       91.300    51354.323    36090.523     8335.758       13.511        4.789      417.660      112.957        0.073      339.087       12.177      858.469
04/27/2014  16:37:00     -355.329     -246.631        5.904      200.589      184.153       86.235    40235.844    33912.373     7436.526       13.434        4.079      432.534       96.791        0.050      339.158       12.296      858.467
04/27/2014  16:38:00     -409.627      -58.351      -12.700      188.276      148.552       83.241    35447.823    22067.744     6929.063       11.789        3.222      413.762       94.484        0.052      339.136       12.260      858.377
04/27/2014  16:39:00     -497.262     -254.920       -8.860      263.323      221.606       97.388    69339.234    49109.164     9484.512       22.011        6.397      558.797      106.694        0.036      339.199       12.366      858.403
04/27/2014  16:40:00     -450.930      -96.718      -38.154      215.676      154.929       78.420    46516.050    24002.892     6149.742       14.539        3.833      461.186       88.557        0.037      339.084       12.171      858.454
04/27/2014  16:41:00     -412.708     -227.894      -13.800      203.164      167.122       90.779    41275.683    27929.804     8240.797       14.993        3.872      471.448       96.470        0.042      338.980       11.997      858.440
04/27/2014  16:42:00     -482.468     -340.120      -16.599      248.736      217.909      102.175    61869.562    47484.385    10439.754       23.424        5.990      590.302      107.321        0.033      338.912       11.883      858.369
04/27/2014  16:43:00     -626.237     -297.973      -22.989      289.375      241.745      122.067    83738.122    58440.621    14900.466       31.925        7.854      693.513      143.408        0.043      338.782       11.665      858.327
04/27/2014  16:44:00     -571.626     -301.313      -37.992      293.966      244.191      129.655    86415.795    59629.464    16810.418       29.089        8.143      646.178      128.389        0.039      338.718       11.557      858.341
04/27/2014  16:45:00     -355.925     -174.089       -2.292      243.779      201.816      108.589    59428.112    40729.622    11791.621       13.445        5.597      396.219      130.787        0.109      338.769       11.643      858.369
04/27/2014  16:46:00     -350.532     -238.748      -11.292      215.673      172.281      100.201    46514.803    29680.615    10040.317       13.310        4.312      424.115       93.084        0.048      338.935       11.922      858.408
04/27/2014  16:47:00     -382.243     -383.345       -5.374      249.742      279.422      118.207    62371.059    78076.410    13972.948       22.372        7.721      541.353      128.562        0.056      338.983       12.003      858.396
04/27/2014  16:48:00     -392.522     -252.581        7.385      230.160      201.379      110.213    52973.520    40553.670    12146.885       16.178        5.284      466.766      117.643        0.064      339.001       12.031      858.420
04/27/2014  16:49:00     -469.423     -273.098        4.713      287.130      197.515       97.917    82443.449    39012.271     9587.646       21.298        6.552      543.085      115.308        0.045      338.849       11.776      858.364
04/27/2014  16:50:00     -400.780     -232.665        0.624      293.670      197.717      105.276    86241.894    39092.018    11083.130       17.556        6.821      463.420      137.575        0.088      338.941       11.931      858.319
04/27/2014  16:51:00     -494.292     -351.011       -1.071      251.353      194.756      107.368    63178.090    37930.042    11527.812       24.006        5.632      606.246      109.283        0.032      338.899       11.863      858.356
04/27/2014  16:52:00     -517.032     -296.272        0.151      212.701      126.177       98.173    45241.637    15920.549     9638.017       21.294        3.540      595.902      106.754        0.032      338.840       11.762      858.386
04/27/2014  16:53:00     -346.132     -315.011       -6.665      235.705      184.829      103.217    55556.685    34161.579    10653.806       15.971        5.019      468.016      113.619        0.059      338.984       12.003      858.437
04/27/2014  16:54:00     -359.067     -233.946       -4.884      213.636      238.984      107.466    45640.539    57113.316    11548.922       14.897        5.715      428.556      119.561        0.078      339.040       12.098      858.479
04/27/2014  16:55:00     -509.136     -229.344      -20.701      265.544      217.812      104.630    70513.845    47442.234    10947.343       22.055        6.445      558.407      117.081        0.044      338.892       11.850      858.414
04/27/2014  16:56:00     -314.732     -297.107        4.027      234.902      249.920      107.953    55178.826    62460.017    11653.922       15.829        6.465      432.816      105.309        0.059      338.962       11.967      858.424
04/27/2014  16:57:00     -625.673     -339.219      -13.295      217.333      224.436      109.260    47233.723    50371.320    11937.696       30.811        5.477      711.714      114.816        0.026      338.869       11.810      858.399
04/27/2014  16:58:00     -408.434     -292.710       -0.475      271.281      173.524      112.959    73593.375    30110.670    12759.773       18.446        5.823      502.491      143.154        0.081      338.979       11.996      858.412
04/27/2014  16:59:00     -355.753     -273.515       -6.320      223.914      212.373      102.117    50137.598    45102.117    10427.876       15.352        5.283      448.743      114.821        0.065      338.996       12.024      858.406
04/27/2014  17:00:00     -492.405     -322.454      -16.236      224.476      203.675      106.385    50389.633    41483.443    11317.840       22.493        5.160      588.591      103.029        0.031      338.874       11.818      858.376
04/27/2014  17:01:00     -415.457     -407.399       -0.336      271.461      223.652      133.283    73690.809    50020.423    17764.456       24.000        7.074      581.875      123.123        0.045      338.787       11.673      858.356
04/27/2014  17:02:00     -462.156     -316.407        7.956      236.414      200.945       99.797    55891.581    40379.032     9959.356       20.998        5.311      560.091      114.108        0.042      338.876       11.823      858.409
04/27/2014  17:03:00     -582.202     -354.646      -28.740      210.424      167.934      104.964    44278.085    28201.666    11017.546       27.451        4.175      681.714       97.436        0.020      338.679       11.492      858.455
04/27/2014  17:04:00     -314.102     -202.999       13.532      234.311      178.345      108.449    54901.613    31806.799    11761.193       11.924        4.923      373.990      125.190        0.112      338.784       11.669      858.441
04/27/2014  17:05:00     -298.935     -156.592        6.644      173.382      179.080       90.731    30061.384    32069.726     8232.041        9.213        3.518      337.466       98.323        0.085      338.852       11.781      858.459
04/27/2014  17:06:00     -362.191     -260.822        6.857      250.428      199.702       93.002    62714.188    39880.837     8649.295       15.523        5.562      446.330       93.058        0.043      338.891       11.847      858.455
04/27/2014  17:07:00     -485.345     -304.190        6.538      273.335      209.968      127.283    74712.083    44086.500    16200.994       23.154        6.750      572.793      139.364        0.059      338.742       11.597      858.395
04/27/2014  17:08:00     -422.905     -341.144        5.224      259.516      197.601       98.434    67348.771    39046.032     9689.201       20.565        5.804      543.349      136.797        0.063      338.692       11.514      858.403
04/27/2014  17:09:00     -399.144     -158.402      -16.173      182.428      185.816       92.935    33279.948    34527.555     8636.973       13.054        3.822      429.426      104.890        0.060      338.739       11.592      858.436
04/27/2014  17:10:00     -308.395     -159.296       -3.767      200.235      194.933       78.526    40094.044    37998.993     6166.310       10.236        4.213      347.106       78.845        0.052      338.844       11.768      858.426
04/27/2014  17:11:00     -354.863     -230.223      -15.028      171.809      163.702       82.629    29518.235    26798.490     6827.592       12.114        3.157      423.002       91.542        0.047      338.681       11.493      858.422
04/27/2014  17:12:00     -350.461     -275.229       11.527      216.062      148.307       94.425    46682.907    21995.098     8916.127       13.814        3.880      445.617       97.632        0.048      338.693       11.515      858.401
04/27/2014  17:13:00     -384.689     -249.254       -4.647      200.243      130.164       67.621    40097.288    16942.759     4572.662       13.586        3.081      458.381       67.633        0.022      338.738       11.590      858.409
04/27/2014  17:14:00     -245.427     -183.999        9.926      178.427      152.861       84.865    31836.127    23366.597     7202.081        7.828        3.120      306.741       95.036        0.096      338.788       11.673      858.444
04/27/2014  17:15:00     -217.242     -150.992       10.416      111.703      122.580       71.701    12477.613    15025.747     5140.975        5.137        1.632      264.562       55.617        0.044      339.025       12.073      858.445
04/27/2014  17:16:00     -198.322      -47.149        9.938      172.282      133.343       74.033    29680.925    17780.397     5480.908        4.729        2.647      203.849       86.441        0.180      339.269       12.483      858.471
04/27/2014  17:17:00     -466.277     -258.905      -29.296      171.991      158.889       98.645    29581.032    25245.700     9730.869       17.492        3.228      533.335      100.189        0.035      338.900       11.864      858.528
04/27/2014  17:18:00     -127.934     -185.645        2.876      122.473      190.895       51.599    14999.697    36440.891     2662.412        5.246        2.705      225.458       61.553        0.075      339.133       12.255      858.541
04/27/2014  17:19:00     -375.786     -157.101      -22.714      170.132      160.447       83.803    28944.865    25743.348     7023.017       11.405        3.086      407.303       91.623        0.051      339.115       12.224      858.562
04/27/2014  17:20:00     -442.681     -275.834      -19.473      217.619      167.151      103.115    47357.933    27939.360    10632.652       17.916        4.296      521.585      115.271        0.049      339.069       12.149      858.579
04/27/2014  17:21:00     -290.531     -111.169        2.592      246.668      175.408       91.540    60845.303    30767.970     8379.637        9.836        5.000      311.073      115.075        0.137      339.121       12.234      858.630
04/27/2014  17:22:00     -364.293      -45.071      -10.537      177.474      124.920       85.829    31497.059    15605.002     7366.597        9.465        2.723      367.071       79.268        0.047      339.079       12.163      858.605
04/27/2014  17:23:00     -489.606      -19.221      -30.820      171.287      132.339       68.233    29339.147    17513.616     4655.767       14.626        2.575      489.983       80.136        0.027      339.037       12.092      858.575
04/27/2014  17:24:00     -412.885      -28.852      -11.689      157.112      146.418       78.010    24684.053    21438.320     6085.597       11.182        2.610      413.892       81.066        0.038      339.156       12.295      858.563
04/27/2014  17:25:00     -237.332     -182.303       -3.835      129.523      125.327       60.867    16776.121    15706.928     3704.816        6.287        1.809      299.267       59.035        0.039      339.052       12.119      858.589
04/27/2014  17:26:00     -166.593     -103.888       15.315      145.285      115.652       67.607    21107.743    13375.340     4570.687        3.891        1.953      196.331       78.666        0.161      339.187       12.345      858.595
04/27/2014  17:27:00     -258.216     -152.483       -5.201      175.579      107.876       70.318    30828.075    11637.252     4944.553        6.867        2.370      299.878       79.890        0.071      339.231       12.419      858.622
04/27/2014  17:28:00     -193.527     -189.182       28.667      182.704      166.990       77.467    33380.909    27885.660     6001.185        7.065        3.363      270.634       98.949        0.134      339.138       12.264      858.634
04/27/2014  17:29:00     -239.789      -29.427        5.326      203.829      130.567       74.079    41546.432    17047.645     5487.656        6.122        3.204      241.588       90.196        0.139      339.358       12.635      858.654
04/27/2014  17:30:00     -324.726      -33.881      -19.715      161.697      118.527       67.001    26145.855    14048.566     4489.089        7.582        2.234      326.489       66.867        0.042      339.392       12.690      858.656
04/27/2014  17:31:00     -237.589      -53.377      -10.997      192.025      155.528       97.989    36873.417    24189.094     9601.892        6.503        3.533      243.511      107.707        0.196      339.173       12.321      858.684
04/27/2014  17:32:00     -172.531      -37.018      -12.111      123.507      124.347       72.738    15254.012    15462.201     5290.766        3.364        1.800      176.457       67.136        0.145      339.166       12.312      858.725
04/27/2014  17:33:00     -409.647       -5.388      -42.126      113.212      137.747       68.680    12816.894    18974.128     4716.953       10.305        1.825      409.682       46.118        0.013      339.059       12.131      858.774
04/27/2014  17:34:00     -411.930     -145.719      -22.002      156.807      112.506       79.629    24588.316    12657.600     6340.765       11.749        2.179      436.944       86.600        0.039      339.153       12.288      858.771
04/27/2014  17:35:00     -574.929     -211.335      -21.913      194.179      169.683       92.965    37705.595    28792.404     8642.516       22.540        3.757      612.540       94.320        0.024      338.848       11.775      858.773
04/27/2014  17:36:00     -337.815      -70.514      -15.988      225.716      148.920       98.443    50947.887    22177.129     9691.001       10.106        4.141      345.096      112.507        0.106      338.953       11.952      858.768
04/27/2014  17:37:00     -403.521     -211.907       -5.400      229.317      215.210       96.563    52586.218    46315.422     9324.502       15.797        5.411      455.778      111.234        0.060      338.867       11.806      858.730
04/27/2014  17:38:00     -605.580      -22.944      -34.115      178.279      167.334       89.863    31783.333    28000.611     8075.327       21.812        3.393      606.015       92.390        0.023      338.814       11.717      858.699
04/27/2014  17:39:00     -384.758     -136.004      -20.359      151.254      158.514       73.983    22877.804    25126.747     5473.424       11.020        2.674      408.088       67.962        0.028      338.936       11.922      858.725
04/27/2014  17:40:00     -255.458     -310.911      -12.126      169.254      163.078       96.798    28647.078    26594.351     9369.771       11.333        3.231      402.399       81.433        0.041      338.752       11.615      858.782
04/27/2014  17:41:00     -350.310     -239.982      -20.466      187.943      154.524       71.029    35322.499    23877.682     5045.061       12.247        3.212      424.628       72.694        0.029      338.753       11.616      858.822
04/27/2014  17:42:00     -398.773     -182.024      -11.048      186.909      131.172       82.744    34935.126    17206.073     6846.593       12.562        2.949      438.353       80.309        0.034      338.761       11.628      858.849
04/27/2014  17:43:00     -309.944     -143.539      -15.840      155.541      130.260       59.944    24192.949    16967.705     3593.297        8.083        2.238      341.569       81.756        0.057      338.861       11.798      858.850
04/27/2014  17:44:00     -266.685      -29.123       -4.754      170.990      147.799       71.465    29237.490    21844.613     5107.281        6.408        2.809      268.270       86.284        0.103      339.034       12.088      858.844
04/27/2014  17:45:00      -94.665      -79.349       31.240      165.372      125.532       78.432    27347.781    15758.358     6151.624        3.274        2.463      123.522       95.192        0.594      339.119       12.231      858.819
04/27/2014  17:46:00     -241.425     -112.926      -10.795      151.801       91.221       51.905    23043.483     8321.220     2694.127        5.260        1.703      266.530       54.872        0.042      339.098       12.196      858.813
04/27/2014  17:47:00     -187.000     -135.766      -13.012      125.046       71.949       53.359    15636.579     5176.676     2847.230        3.861        1.183      231.088       56.491        0.060      339.102       12.202      858.800
04/27/2014  17:48:00     -196.783     -211.897       -2.059      146.219      135.257       67.837    21379.947    18294.470     4601.898        6.394        2.214      289.178       82.584        0.082      338.868       11.810      858.799
04/27/2014  17:49:00     -300.642     -234.187      -22.105      131.924      104.785       76.069    17403.938    10979.825     5786.544        8.994        1.709      381.090       87.364        0.053      338.892       11.850      858.841
04/27/2014  17:50:00     -303.998      -17.822       -5.331      160.958      138.859       75.274    25907.538    19281.791     5666.188        7.180        2.543      304.520       74.993        0.061      338.971       11.983      858.837
04/27/2014  17:51:00     -209.968     -117.098        2.395      168.321      160.606       82.722    28331.892    25794.226     6842.901        5.937        3.048      240.414       75.404        0.098      338.852       11.783      858.806
04/27/2014  17:52:00     -217.886     -126.922        6.093      174.701      178.376       90.532    30520.613    31818.094     8196.052        6.706        3.527      252.157       96.893        0.148      338.840       11.763      858.741
04/27/2014  17:53:00     -481.471     -109.371      -25.815      132.201      130.033       69.800    17476.998    16908.673     4872.044       14.184        1.963      493.737       59.312        0.014      338.620       11.393      858.762
04/27/2014  17:54:00     -390.890     -208.790      -25.723      152.737      171.709       71.138    23328.648    29483.970     5060.658       12.745        2.894      443.157       70.350        0.025      338.697       11.521      858.812
04/27/2014  17:55:00     -237.039     -161.956       -4.825      175.641      137.302       76.861    30849.601    18851.722     5907.601        6.901        2.780      287.084       92.040        0.103      338.802       11.698      858.839
04/27/2014  17:56:00     -266.624     -142.658       -2.863      126.214      117.031       67.476    15930.022    13696.192     4552.949        6.281        1.709      302.390       66.202        0.048      338.805       11.703      858.848
04/27/2014  17:57:00     -166.909     -148.564       -8.433      179.329      134.725       88.114    32158.861    18150.900     7764.068        5.403        2.904      223.450       83.089        0.138      338.880       11.830      858.863
04/27/2014  17:58:00     -364.043      -74.621       -4.381      202.988      117.894       67.777    41203.961    13898.917     4593.683        9.889        2.985      371.612       84.293        0.051      338.785       11.670      858.916
04/27/2014  17:59:00     -331.373       14.692      -27.328      220.211      129.046       73.690    48493.030    16652.780     5430.274        9.066        3.529      331.698       98.358        0.088      338.807       11.707      858.924
04/27/2014  18:00:00     -305.347      -25.243      -32.014      145.683      136.996       64.926    21223.619    18767.793     4215.353        6.954        2.210      306.389       76.670        0.063      338.800       11.695      858.959
04/27/2014  18:01:00     -296.840      -21.313       -9.032      144.321      138.320       65.231    20828.628    19132.396     4255.089        6.642        2.211      297.605       60.111        0.041      338.786       11.671      858.977
04/27/2014  18:02:00     -251.827     -175.697       -4.308      162.572      136.102       72.473    26429.788    18523.880     5252.350        7.225        2.510      307.061       92.383        0.091      338.653       11.448      858.995
04/27/2014  18:03:00     -209.195      -80.639      -17.378      100.053      105.411       55.709    10010.624    11111.386     3103.526        3.739        1.211      224.199       43.372        0.037      338.689       11.508      859.011
04/27/2014  18:04:00     -274.394      -49.636       -1.509      168.676      127.421       70.793    28451.490    16236.042     5011.587        6.372        2.485      278.847       87.241        0.098      338.755       11.620      859.054
04/27/2014  18:05:00     -400.370     -199.071        0.622      187.458      157.094       84.105    35140.599    24678.588     7073.593       13.340        3.345      447.131       82.609        0.034      338.612       11.378      859.088
04/27/2014  18:06:00     -392.650     -290.484      -20.092      193.200      134.743       92.036    37326.346    18155.573     8470.699       15.144        3.198      488.421       89.306        0.033      338.457       11.116      859.082
04/27/2014  18:07:00     -468.200     -260.193       -5.951      202.492      177.800       96.537    41002.906    31612.922     9319.307       18.442        4.097      535.642       98.493        0.034      338.461       11.124      859.061
04/27/2014  18:08:00     -481.360     -316.844      -20.634      208.538      199.364      100.258    43488.058    39745.899    10051.673       21.289        4.664      576.279      116.399        0.041      338.404       11.029      859.063
04/27/2014  18:09:00     -246.079     -211.918       -4.205      234.196      173.411      120.154    54847.963    30071.330    14437.006       10.240        4.968      324.753      145.784        0.202      338.484       11.163      859.044
04/27/2014  18:10:00     -319.913     -233.438      -17.794      163.843      153.945       94.978    26844.497    23699.202     9020.891       10.835        2.978      396.028       90.248        0.052      338.450       11.105      859.053
04/27/2014  18:11:00     -502.142     -110.580      -19.376      202.728      139.044       81.104    41098.582    19333.243     6577.812       16.587        3.350      514.174       86.919        0.029      338.510       11.207      859.076
04/27/2014  18:12:00     -364.989      -57.352       -9.611      214.860      139.785       84.170    46164.949    19539.746     7084.627       10.468        3.639      369.467      105.504        0.082      338.568       11.306      859.075
04/27/2014  18:13:00     -448.975     -106.350      -13.596      166.669      107.258       74.493    27778.502    11504.181     5549.223       12.894        2.242      461.399       74.132        0.026      338.408       11.037      859.083
04/27/2014  18:14:00     -319.935     -173.618      -14.359      162.157      143.130       93.591    26294.761    20486.062     8759.264        9.411        2.777      364.008       92.688        0.065      338.533       11.245      859.049
04/27/2014  18:15:00     -474.014     -171.948      -27.181      163.427      121.513       71.120    26708.224    14765.418     5058.091       15.075        2.327      504.237       76.209        0.023      338.402       11.024      859.074
04/27/2014  18:16:00     -371.971     -184.218      -26.539      175.348      130.499       69.952    30746.966    17030.070     4893.307       11.283        2.634      415.089       79.157        0.036      338.417       11.052      859.097
04/27/2014  18:17:00     -429.653     -147.273      -19.563      168.713      144.332       88.516    28464.214    20831.682     7835.015       13.189        2.857      454.193       86.978        0.037      338.468       11.137      859.074
04/27/2014  18:18:00     -414.397     -174.266      -11.372      245.159      165.987       98.547    60102.968    27551.563     9711.573       14.978        4.868      449.548      119.915        0.071      338.458       11.119      859.075
04/27/2014  18:19:00     -371.245     -116.331       -6.172      198.797      140.576       85.359    39520.167    19761.733     7286.198       10.897        3.328      389.044       98.345        0.064      338.535       11.248      859.049
04/27/2014  18:20:00     -357.149      -78.929       -1.810      214.781       99.102       75.578    46130.911     9821.207     5711.973        9.771        3.083      365.766       83.997        0.053      338.517       11.219      859.063
04/27/2014  18:21:00     -370.589     -147.608      -25.585      144.982      139.330       73.582    21019.759    19412.792     5414.241       10.280        2.292      398.904       71.514        0.032      338.550       11.273      859.071
04/27/2014  18:22:00     -274.291      -28.203      -10.668       99.896       98.179       51.907     9979.196     9639.037     2694.331        4.922        1.116      275.737       35.902        0.017      338.688       11.506      859.134
04/27/2014  18:23:00     -227.933     -129.576      -17.293      140.483       97.791       61.251    19735.525     9562.995     3751.646        5.104        1.653      262.190       56.784        0.047      338.675       11.485      859.185
04/27/2014  18:24:00     -331.456      -81.523       -9.385      195.046      120.510       70.396    38042.955    14522.630     4955.539        8.705        2.876      341.335       87.520        0.066      338.587       11.338      859.234
04/27/2014  18:25:00     -309.140     -151.076        4.278      225.761      154.657       83.350    50968.047    23918.700     6947.286       10.011        4.092      344.081      106.349        0.096      338.577       11.320      859.304
04/27/2014  18:26:00     -509.839     -221.489      -11.036      182.716      141.340       85.297    33385.188    19977.050     7275.628       18.486        3.032      555.871       89.002        0.026      338.431       11.073      859.337
04/27/2014  18:27:00     -403.679     -248.020      -14.657      180.526      157.128       93.363    32589.633    24689.251     8716.729       14.533        3.300      473.783      102.566        0.047      338.432       11.077      859.361
04/27/2014  18:28:00     -318.748     -229.020       -2.548      180.497      140.077       93.509    32579.027    19621.680     8743.873       10.749        3.047      392.493       95.416        0.059      338.466       11.133      859.368
04/27/2014  18:29:00     -301.538     -218.357      -12.845      166.335      136.601       77.944    27667.214    18659.879     6075.201        9.558        2.620      372.297       84.713        0.052      338.457       11.118      859.378
04/27/2014  18:30:00     -312.215     -194.641       -3.760      142.124      124.270       76.646    20199.176    15443.012     5874.681        8.844        2.076      367.918       86.902        0.056      338.440       11.088      859.351
04/27/2014  18:31:00     -218.255      -95.841       -7.258      138.778      112.720       54.894    19259.357    12705.731     3013.352        4.592        1.749      238.371       67.948        0.081      338.610       11.376      859.391
04/27/2014  18:32:00     -204.009     -171.808        7.467      143.091      186.627       82.744    20474.904    34829.526     6846.558        6.666        3.108      266.716       83.168        0.097      338.673       11.480      859.433
04/27/2014  18:33:00     -346.442     -222.480        6.725      177.573      155.215       82.718    31532.036    24091.653     6842.232       11.600        3.123      411.728       86.994        0.045      338.473       11.145      859.432
04/27/2014  18:34:00     -324.356     -197.449       27.924      190.875      168.428       93.648    36433.354    28368.046     8769.872       10.926        3.679      379.727      101.421        0.071      338.492       11.176      859.427
04/27/2014  18:35:00     -293.911     -262.355        0.494      205.263      153.493       79.338    42132.934    23560.001     6294.496       11.359        3.599      393.972       96.853        0.060      338.525       11.233      859.364
04/27/2014  18:36:00     -366.554     -248.822        9.690      233.138      186.559      110.381    54353.313    34804.422    12183.860       14.883        5.067      443.028      137.136        0.096      338.534       11.246      859.297
04/27/2014  18:37:00     -479.386     -156.805      -19.957      206.052      138.122      107.854    42457.504    19077.711    11632.388       16.397        3.658      504.380      118.744        0.055      338.511       11.209      859.303
04/27/2014  18:38:00     -388.036      -62.850      -22.058      179.458      142.636       85.550    32205.161    20345.156     7318.788       10.743        2.993      393.093       88.461        0.051      338.596       11.351      859.363
04/27/2014  18:39:00     -499.717     -101.682      -31.724      168.229      173.353       75.451    28301.155    30051.312     5692.855       16.254        3.202      509.957       78.686        0.024      338.563       11.296      859.438
04/27/2014  18:40:00     -406.901      -55.521      -25.454      152.950      126.381       76.442    23393.696    15972.116     5843.454       10.725        2.260      410.672       78.691        0.037      338.578       11.321      859.478
04/27/2014  18:41:00     -454.133     -140.939      -20.839      211.675      135.017       83.058    44806.367    18229.466     6898.692       14.822        3.497      475.501      103.347        0.047      338.472       11.144      859.508
04/27/2014  18:42:00     -319.257     -184.006        2.869      203.879      202.961      101.967    41566.506    41193.266    10397.342       11.446        4.658      368.488      110.960        0.091      338.487       11.168      859.503
04/27/2014  18:43:00     -361.606     -234.135       -4.548      179.406      171.764       84.818    32186.507    29502.953     7194.121       12.723        3.444      430.788       91.837        0.045      338.412       11.042      859.522
04/27/2014  18:44:00     -156.236      -36.094        3.258      109.774       84.303       45.987    12050.223     7106.953     2114.818        2.349        1.064      160.351       46.588        0.084      338.682       11.498      859.594
04/27/2014  18:45:00     -256.977        1.373       -5.651      138.464      120.694       61.241    19172.168    14567.145     3750.506        5.177        1.874      256.981       67.255        0.068      338.744       11.599      859.693
04/27/2014  18:46:00     -358.293     -102.650      -10.668      199.430      136.122       75.410    39772.384    18529.261     5686.700       10.149        3.199      372.707       85.000        0.052      338.517       11.218      859.696
04/27/2014  18:47:00     -336.913      -63.076      -36.721      143.360      140.273       74.730    20552.170    19676.653     5584.512        8.232        2.291      342.767       69.429        0.041      338.475       11.148      859.668
04/27/2014  18:48:00     -479.097     -115.035      -23.492      166.687      142.506       84.370    27784.595    20307.958     7118.374       14.925        2.761      492.714       80.708        0.027      338.370       10.971      859.665
04/27/2014  18:49:00     -283.724     -100.661        4.437      160.074      111.222       64.183    25623.788    12370.440     4119.521        6.637        2.106      301.051       79.517        0.070      338.421       11.058      859.702
04/27/2014  18:50:00     -137.167      -86.923       14.811      164.589      140.995       73.319    27089.690    19879.497     5375.684        3.946        2.617      162.390       76.604        0.223      338.455       11.118      859.673
04/27/2014  18:51:00     -292.704      -79.047      -10.339      176.151      142.533       76.020    31029.346    20315.766     5778.984        7.457        2.856      303.189       78.188        0.067      338.355       10.948      859.634
04/27/2014  18:52:00     -274.349      -44.417        3.638      245.336      138.151       86.805    60189.599    19085.610     7535.114        8.201        4.341      277.922      113.193        0.166      338.374       10.979      859.647
04/27/2014  18:53:00     -244.204       14.717      -11.025      114.617       95.911       56.099    13137.021     9198.956     3147.053        4.272        1.274      244.647       61.874        0.064      338.490       11.173      859.714
04/27/2014  18:54:00     -207.864      -95.688        0.298      115.425       70.481       47.449    13322.818     4967.536     2251.425        3.645        1.027      228.831       52.597        0.053      338.495       11.181      859.803
04/27/2014  18:55:00     -287.588      -57.757      -15.349      148.780      109.423       72.606    22135.358    11973.488     5271.632        6.282        1.969      293.331       68.693        0.055      338.412       11.042      859.843
04/27/2014  18:56:00     -175.048      -21.835        1.100      163.567      118.579       67.808    26754.149    14060.990     4597.952        3.826        2.271      176.404       69.982        0.157      338.382       10.995      859.818
04/27/2014  18:57:00      -74.857      -58.397       -0.234      149.014      110.017       65.919    22205.120    12103.781     4345.318        2.383        1.933       94.941       63.510        0.447      338.360       10.957      859.805
04/27/2014  18:58:00     -333.760      -39.337      -11.988      216.722      196.791       94.665    46968.447    38726.841     8961.399       10.385        4.733      336.070       83.201        0.061      338.260       10.788      859.806
04/27/2014  18:59:00     -320.069      -87.061        1.683      166.715      166.531       78.765    27793.873    27732.599     6203.855        8.587        3.087      331.699       84.987        0.066      338.227       10.732      859.822
04/27/2014  19:00:00     -522.184     -139.808       -7.746      180.255      170.474       88.731    32491.919    29061.338     7873.152       18.084        3.471      540.576       93.446        0.030      338.099       10.517      859.913
04/27/2014  19:01:00     -414.428     -133.978      -23.948      197.465      142.482       83.295    38992.402    20301.031     6938.006       12.824        3.312      435.546       96.843        0.049      338.115       10.544      859.989
04/27/2014  19:02:00     -412.926      -53.314      -22.441      229.045      215.358       90.154    52461.618    46379.203     8127.799       14.039        5.348      416.353      112.235        0.073      338.153       10.608      860.020
04/27/2014  19:03:00     -393.053      -73.650      -18.031      276.900      129.500       81.423    76673.695    16770.266     6629.685       13.014        5.004      399.893      116.295        0.085      338.086       10.497      859.987
04/27/2014  19:04:00     -233.879      -55.717       11.610      162.382       98.333       70.411    26367.848     9669.434     4957.727        4.946        2.050      240.424       84.778        0.124      338.137       10.582      859.879
04/27/2014  19:05:00     -189.742      -72.530        0.438      123.583      108.282       54.200    15272.819    11724.901     2937.688        3.559        1.497      203.132       51.358        0.064      338.177       10.649      859.798
04/27/2014  19:06:00     -406.397      -60.343      -21.152      176.248      131.020       75.448    31063.307    17166.178     5692.406       11.157        2.696      410.852       79.059        0.037      338.103       10.524      859.753
04/27/2014  19:07:00     -307.748     -171.735        3.009      198.535      159.940       98.134    39416.275    25580.882     9630.214        9.940        3.731      352.423      104.030        0.087      338.064       10.458      859.760
04/27/2014  19:08:00     -367.083       62.405      -21.461      184.302      136.641       73.246    33967.320    18670.864     5364.951        9.854        2.900      372.350       65.278        0.031      338.152       10.607      859.776
04/27/2014  19:09:00     -485.648      -67.756       -5.493      271.820      139.193       87.082    73885.884    19374.678     7583.207       17.064        5.042      490.351       98.166        0.040      338.050       10.436      859.778
04/27/2014  19:10:00     -500.791     -199.754      -15.565      184.230      142.895       91.443    33940.536    20418.869     8361.839       17.682        3.136      539.160       87.323        0.026      337.992       10.339      859.717
04/27/2014  19:11:00     -294.435      -68.278        3.337      158.136      125.222       76.130    25007.016    15680.535     5795.824        6.891        2.324      302.248       86.274        0.081      338.045       10.427      859.749
04/27/2014  19:12:00     -348.581     -115.743       -5.735      194.822      118.547       67.951    37955.784    14053.284     4617.352        9.577        2.831      367.294       83.827        0.052      338.021       10.387      859.737
04/27/2014  19:13:00     -312.201     -102.405       -2.197      148.452      116.892       66.980    22038.038    13663.812     4486.310        7.407        2.009      328.567       70.836        0.046      338.050       10.436      859.753
04/27/2014  19:14:00     -397.920      -59.128      -13.238      227.118      164.229       87.859    51582.483    26971.317     7719.175       12.412        4.314      402.289       94.481        0.055      338.007       10.361      859.788
04/27/2014  19:15:00     -239.924      -37.395      -20.430      125.621      105.061       53.751    15780.713    11037.710     2889.220        4.454        1.485      242.821       47.292        0.038      338.082       10.488      859.837
04/27/2014  19:16:00     -344.103     -156.000      -10.545      170.655      126.071       85.328    29122.989    15893.869     7280.791        9.757        2.615      377.814       82.325        0.047      337.970       10.301      859.873
04/27/2014  19:17:00     -340.529      -71.512        0.836      199.550      132.468       84.675    39820.244    17547.747     7169.822        9.279        3.227      347.957      104.965        0.091      337.950       10.267      859.927
04/27/2014  19:18:00     -320.807      -73.276       -4.665      174.924      142.013       79.189    30598.409    20167.727     6270.913        8.266        2.852      329.069      103.359        0.099      337.954       10.275      859.971
04/27/2014  19:19:00     -395.350     -115.801      -26.885      201.684      138.698       78.010    40676.478    19237.096     6085.611       11.820        3.300      411.961       87.081        0.045      337.971       10.301      859.985
04/27/2014  19:20:00     -252.254      -87.950       -2.221      129.983      103.924       62.541    16895.489    10800.295     3911.427        5.148        1.580      267.146       63.464        0.056      337.993       10.339      859.996
04/27/2014  19:21:00     -435.305     -251.769      -26.165      195.835      144.587       89.361    38351.424    20905.268     7985.302       16.039        3.362      502.870       86.653        0.030      337.887       10.161      859.985
04/27/2014  19:22:00     -363.348     -117.896       -5.326      176.360      163.507       80.679    31102.961    26734.662     6509.065       10.514        3.217      381.996       94.693        0.061      337.899       10.182      860.010
04/27/2014  19:23:00     -325.921      -26.962        3.881      190.359      122.177       65.040    36236.451    14927.239     4230.227        8.117        2.770      327.034       86.943        0.071      338.010       10.368      860.070
04/27/2014  19:24:00     -245.106      -43.286       -0.765      165.997      104.907       75.175    27554.886    11005.556     5651.311        5.307        2.211      248.898       83.705        0.113      337.908       10.196      860.129
04/27/2014  19:25:00     -430.212     -172.487      -36.531      217.574      135.447       90.512    47338.624    18345.942     8192.359       14.501        3.694      463.502      104.499        0.051      337.900       10.183      860.169
04/27/2014  19:26:00     -304.842      -96.003      -21.688      225.186      209.335       75.287    50708.524    43820.984     5668.149       10.139        5.010      319.602       90.179        0.080      337.871       10.134      860.170
04/27/2014  19:27:00     -302.018     -166.733       -7.975      176.274      146.122       79.479    31072.461    21351.765     6316.924        8.890        2.937      344.985       83.381        0.058      337.856       10.110      860.143
04/27/2014  19:28:00     -251.993     -195.539       -3.924      145.054      112.875       66.141    21040.696    12740.664     4374.632        6.995        1.908      318.961       78.111        0.060      337.799       10.014      860.094
04/27/2014  19:29:00     -217.054      -73.639       -9.544      157.962       87.676       53.572    24952.120     7687.020     2869.948        4.406        1.775      229.206       58.190        0.064      337.864       10.125      860.063
04/27/2014  19:30:00     -361.977      -73.488      -12.226      194.306      143.199       80.920    37754.761    20505.870     6547.983       10.068        3.240      369.361       87.547        0.056      337.794       10.006      860.028
04/27/2014  19:31:00     -443.750     -184.418      -19.453      135.242      131.112       72.731    18290.416    17190.452     5289.823       13.603        2.039      480.546       63.461        0.017      337.734        9.905      860.043
04/27/2014  19:32:00     -295.567      -54.056      -11.616      147.570      115.831       66.434    21776.771    13416.776     4413.431        6.500        1.980      300.470       72.135        0.058      337.797       10.010      860.069
04/27/2014  19:33:00     -271.654      -57.394       -7.281      164.792      126.755       70.413    27156.369    16066.801     4958.016        6.265        2.409      277.650       79.153        0.081      337.800       10.015      860.116
04/27/2014  19:34:00     -364.148      -42.142      -35.676      131.761      128.987       70.377    17360.954    16637.723     4952.953        8.729        1.948      366.579       69.035        0.035      337.742        9.918      860.163
04/27/2014  19:35:00     -264.432     -109.485        3.236      163.482      115.936       66.653    26726.245    13441.116     4442.647        6.326        2.231      286.201       84.921        0.088      337.766        9.959      860.169
04/27/2014  19:36:00     -460.588     -214.090      -24.379      155.991      144.266       81.717    24333.273    20812.561     6677.712       15.519        2.591      507.913       78.639        0.024      337.695        9.839      860.183
04/27/2014  19:37:00     -235.612      -73.373       -7.606      145.987      124.621       70.492    21312.334    15530.501     4969.090        5.137        2.091      246.772       66.867        0.073      337.748        9.929      860.193
04/27/2014  19:38:00     -217.300       32.509       -2.315      172.168      134.832       58.802    29641.891    18179.723     3457.631        4.977        2.564      219.718       70.025        0.102      337.793       10.005      860.215
04/27/2014  19:39:00     -132.552      -81.603       23.969      130.943      112.633       73.622    17146.108    12686.224     5420.141        3.002        1.763      155.657       79.750        0.262      337.739        9.916      860.228
04/27/2014  19:40:00     -148.872     -148.468       -0.292      108.940      113.127       62.501    11867.920    12797.668     3906.339        3.638        1.429      210.251       61.779        0.086      337.723        9.888      860.233
04/27/2014  19:41:00     -150.198     -127.212       -2.960       91.586      149.923       57.013     8388.052    22476.977     3250.499        3.643        1.706      196.831       70.905        0.130      337.776        9.977      860.277
04/27/2014  19:42:00     -315.151     -210.717      -26.525      164.598       94.437       79.688    27092.616     8918.310     6350.193        9.338        2.118      379.106       85.236        0.051      337.682        9.819      860.310
04/27/2014  19:43:00     -360.145     -186.761      -32.837      119.439       84.649       56.597    14265.601     7165.496     3203.181        9.514        1.232      405.690       40.057        0.010      337.645        9.756      860.344
04/27/2014  19:44:00     -220.443      -14.824       -8.124      104.194      121.292       52.768    10856.429    14711.798     2784.500        3.861        1.418      220.941       49.675        0.051      337.717        9.877      860.357
04/27/2014  19:45:00     -208.727       20.203       -3.422      110.349       61.795       44.772    12176.895     3818.593     2004.496        3.099        0.900      209.703       45.402        0.047      337.776        9.976      860.340
04/27/2014  19:46:00     -114.283      -12.241        0.007       90.718       47.822       40.518     8229.708     2286.969     1641.728        1.268        0.608      114.937       50.269        0.191      337.850       10.102      860.323
04/27/2014  19:47:00     -189.141      -36.761       -3.401      123.467       87.086       47.350    15244.009     7584.057     2242.058        3.110        1.254      192.680       55.523        0.083      337.796       10.009      860.315
04/27/2014  19:48:00     -151.608     -113.747        6.809      155.845      157.324       74.096    24287.710    24750.994     5490.213        4.524        2.726      189.534       81.887        0.187      337.649        9.765      860.312
04/27/2014  19:49:00     -337.274     -201.401       -3.262      155.868      148.299       80.961    24294.924    21992.475     6554.690       10.357        2.642      392.831       83.473        0.045      337.586        9.657      860.290
04/27/2014  19:50:00     -366.269     -154.569      -27.067      151.146      165.833       78.419    22845.127    27500.730     6149.603       10.763        2.825      397.548       88.116        0.049      337.590        9.663      860.292
04/27/2014  19:51:00     -254.586     -130.899       -6.568      103.045      102.520       52.777    10618.252    10510.251     2785.456        5.295        1.196      286.267       54.369        0.036      337.596        9.673      860.313
04/27/2014  19:52:00     -323.873      -86.971      -26.619      114.719       94.880       51.560    13160.480     9002.208     2658.463        6.899        1.241      335.347       62.490        0.035      337.568        9.625      860.347
04/27/2014  19:53:00     -313.199      -22.223       -3.365      134.006       90.370       62.794    17957.599     8166.819     3943.059        6.433        1.503      313.986       66.050        0.044      337.611        9.698      860.398
04/27/2014  19:54:00     -179.273      -14.476       -5.152      123.359       89.019       45.594    15217.478     7924.315     2078.831        2.879        1.261      179.856       41.749        0.054      337.623        9.718      860.421
04/27/2014  19:55:00     -166.759     -136.276      -21.022       94.408       72.486       42.877     8912.949     5254.154     1838.474        3.141        0.800      215.360       39.967        0.034      337.578        9.643      860.409
04/27/2014  19:56:00      -75.760      -12.969       12.335       71.254       49.552       36.918     5077.108     2455.390     1362.942        0.748        0.445       76.862       27.404        0.127      337.729        9.899      860.389
04/27/2014  19:57:00     -163.279       -9.414       -6.140       90.828       52.427       46.762     8249.745     2748.595     2186.731        1.998        0.659      163.550       44.678        0.075      337.629        9.730      860.393
04/27/2014  19:58:00      -71.748      -35.068       15.709       79.010       41.144       32.535     6242.595     1692.818     1058.526        0.781        0.450       79.859       43.509        0.297      337.562        9.618      860.402
04/27/2014  19:59:00      -56.881      -14.305       10.640       44.702       32.743       33.530     1998.297     1072.119     1124.235        0.387        0.210       58.652       28.557        0.237      337.546        9.593      860.422
04/27/2014  20:00:00     -104.779      -52.900       -1.069       90.670       52.356       43.383     8221.096     2741.156     1882.091        1.331        0.642      117.376       55.084        0.220      337.576        9.643      860.445
04/27/2014  20:01:00     -173.473      -89.706       -2.427       86.504       66.736       45.195     7483.015     4453.660     2042.602        2.606        0.699      195.295       43.891        0.051      337.508        9.526      860.471
04/27/2014  20:02:00      -97.649      -75.231       -5.833       88.918       75.237       43.873     7906.400     5660.640     1924.843        1.536        0.775      123.268       42.527        0.119      337.528        9.564      860.472
04/27/2014  20:03:00     -195.679      -48.960      -15.502       86.834       70.346       43.796     7540.197     4948.561     1918.048        2.766        0.720      201.711       45.953        0.052      337.603        9.686      860.492
04/27/2014  20:04:00     -114.222      -37.896        0.824       81.661       65.662       35.828     6668.509     4311.551     1283.667        1.337        0.613      120.345       36.357        0.091      337.568        9.628      860.523
04/27/2014  20:05:00     -117.025     -103.629        9.871       91.526       59.249       42.058     8377.003     3510.453     1768.856        1.909        0.683      156.313       49.211        0.099      337.546        9.591      860.547
04/27/2014  20:06:00     -302.224      -76.818        0.326      163.201       98.142       63.072    26634.507     9631.888     3978.038        6.873        2.012      311.834       60.396        0.038      337.490        9.496      860.554
04/27/2014  20:07:00     -153.893      -28.762        1.373      102.881       69.943       44.007    10584.460     4891.954     1936.635        2.096        0.871      156.558       44.202        0.080      337.493        9.502      860.540
04/27/2014  20:08:00     -150.262     -140.433       -1.626      136.019       93.549       48.055    18501.190     8751.345     2309.272        3.593        1.478      205.670       62.059        0.091      337.511        9.531      860.525
04/27/2014  20:09:00     -231.038     -181.046       -0.953      145.575      120.677       68.043    21192.132    14562.964     4629.898        6.326        2.019      293.523       67.947        0.054      337.424        9.385      860.471
04/27/2014  20:10:00     -222.761     -173.410       -3.410      139.197      108.030       69.268    19375.680    11670.571     4798.102        5.777        1.792      282.300       78.568        0.077      337.445        9.419      860.476
04/27/2014  20:11:00     -110.591      -88.203        2.369       51.721       82.327       43.084     2675.089     6777.811     1856.256        1.566        0.565      141.458       37.323        0.070      337.511        9.534      860.530
04/27/2014  20:12:00     -169.793      -54.221      -10.635       91.663       53.598       33.678     8402.157     2872.719     1134.239        2.214        0.620      178.240       35.403        0.039      337.499        9.512      860.603
04/27/2014  20:13:00     -295.631      -76.449      -14.297      101.198       77.418       44.716    10241.119     5993.519     1999.533        5.584        0.912      305.355       40.258        0.017      337.478        9.474      860.650
04/27/2014  20:14:00     -129.557      -93.796       13.333      124.001       83.705       56.406    15376.226     7006.555     3181.658        2.566        1.278      159.946       57.216        0.128      337.503        9.519      860.699
04/27/2014  20:15:00     -227.723     -111.501      -10.024      103.220       82.878       48.320    10654.441     6868.779     2334.810        4.212        0.993      253.555       51.324        0.041      337.439        9.410      860.746
04/27/2014  20:16:00     -182.461      -47.013        3.706      148.988       65.859       49.845    22197.553     4337.414     2484.553        3.226        1.451      188.420       64.789        0.118      337.451        9.431      860.789
04/27/2014  20:17:00     -166.942     -117.111       -6.354       70.986       55.252       34.836     5039.050     3052.770     1213.529        2.546        0.465      203.923       35.110        0.030      337.418        9.375      860.812
04/27/2014  20:18:00      -96.649      -49.421       -0.997       84.752       61.844       44.573     7182.850     3824.671     1986.720        1.239        0.650      108.552       49.691        0.210      337.474        9.472      860.838
04/27/2014  20:19:00     -136.734      -28.547       -5.346       67.401       49.213       35.137     4542.951     2421.904     1234.640        1.387        0.410      139.682       34.576        0.061      337.508        9.526      860.871
04/27/2014  20:20:00     -223.527     -107.596       -1.282      123.593       82.268       43.231    15275.261     6768.019     1868.954        4.272        1.196      248.075       54.223        0.048      337.458        9.442      860.932
04/27/2014  20:21:00     -135.730     -119.520       -6.632      105.395      106.786       48.095    11108.196    11403.198     2313.146        2.878        1.241      180.852       50.356        0.078      337.405        9.355      860.968
04/27/2014  20:22:00     -131.126     -101.685      -13.612       59.071       67.375       44.756     3489.336     4539.390     2003.135        1.887        0.502      165.934       40.848        0.061      337.384        9.320      860.929
04/27/2014  20:23:00     -146.946     -139.864        0.763       77.456       65.969       46.284     5999.439     4351.897     2142.202        2.682        0.625      202.867       47.017        0.054      337.443        9.418      860.911
04/27/2014  20:24:00     -172.588     -153.806       -5.627      102.346       61.547       47.950    10474.727     3787.991     2299.172        3.501        0.828      231.177       46.098        0.040      337.433        9.400      860.901
04/27/2014  20:25:00     -147.492     -125.066       -2.675      100.287       52.747       26.617    10057.564     2782.254      708.482        2.547        0.677      193.379       37.344        0.037      337.427        9.392      860.872
04/27/2014  20:26:00     -148.447     -147.667       -7.731       80.374       78.521       41.370     6459.911     6165.502     1711.477        2.912        0.717      209.385       39.995        0.036      337.418        9.376      860.869
04/27/2014  20:27:00     -220.449      -94.247       -1.171      110.398       68.957       38.960    12187.636     4755.014     1517.911        3.797        0.923      239.751       41.261        0.030      337.384        9.318      860.874
04/27/2014  20:28:00     -211.233      -63.108        5.972      109.285       83.266       50.292    11943.283     6933.267     2529.329        3.502        1.070      220.459       55.031        0.062      337.380        9.313      860.855
04/27/2014  20:29:00     -190.411     -177.898       -6.407       84.797       71.352       53.907     7190.479     5091.111     2905.923        4.156        0.759      260.584       53.817        0.043      337.403        9.350      860.840
04/27/2014  20:30:00     -154.215     -129.408       -9.893       85.716       71.224       46.459     7347.289     5072.880     2158.443        2.760        0.729      201.318       45.898        0.052      337.412        9.366      860.811
04/27/2014  20:31:00     -138.022      -74.606        6.061       66.948       57.293       38.917     4482.057     3282.521     1514.514        1.696        0.464      156.895       34.615        0.049      337.365        9.288      860.798
04/27/2014  20:32:00     -158.448     -163.033        1.068       89.744       82.763       52.712     8053.927     6849.654     2778.507        3.468        0.884      227.345       43.775        0.037      337.390        9.329      860.807
04/27/2014  20:33:00     -126.493     -262.791        9.641      119.491      105.506       40.821    14278.206    11131.435     1666.347        5.611        1.354      291.650       44.158        0.023      337.389        9.327      860.785
04/27/2014  20:34:00     -167.383     -132.596      -10.482      104.724       76.413       54.182    10967.067     5839.011     2935.693        3.272        0.987      213.538       27.437        0.017      337.411        9.364      860.771
04/27/2014  20:35:00     -198.323     -114.374        2.657      148.787      116.865       69.556    22137.538    13657.416     4838.021        4.652        2.032      228.940       82.833        0.131      337.335        9.239      860.814
04/27/2014  20:36:00     -321.595     -154.476       -6.872      134.784      117.409       70.181    18166.646    13784.804     4925.387        8.210        1.844      356.772       70.556        0.039      337.360        9.278      860.852
04/27/2014  20:37:00     -177.739     -111.519        6.863      128.966       99.931       54.915    16632.303     9986.298     3015.666        3.685        1.482      209.828       65.376        0.097      337.338        9.243      860.853
04/27/2014  20:38:00     -130.882      -35.599        8.075       85.214       72.943       41.531     7261.496     5320.631     1724.814        1.638        0.715      135.637       39.129        0.083      337.411        9.366      860.823
04/27/2014  20:39:00     -313.512     -156.941       -8.663      150.355       89.894       58.302    22606.580     8080.929     3399.153        7.853        1.704      350.600       57.666        0.027      337.364        9.285      860.812
04/27/2014  20:40:00     -247.101     -141.691        0.603      115.520       82.234       56.841    13344.874     6762.361     3230.924        5.223        1.167      284.843       64.082        0.051      337.364        9.284      860.821
04/27/2014  20:41:00     -296.670     -126.796       -3.615      191.564      150.158       70.235    36696.794    22547.505     4932.910        8.413        3.209      322.630       86.562        0.072      337.336        9.239      860.806
04/27/2014  20:42:00     -265.998     -100.562      -11.111      170.913      101.117       60.300    29211.388    10224.731     3636.088        6.202        2.154      284.372       80.885        0.081      337.362        9.283      860.828
04/27/2014  20:43:00     -186.012     -109.975        4.949      118.060       97.190       48.038    13938.125     9445.814     2307.663        3.620        1.285      216.090       47.922        0.049      337.319        9.211      860.874
04/27/2014  20:44:00     -137.939     -107.473       -4.626      112.902       79.676       50.102    12746.937     6348.216     2510.202        2.610        1.080      174.865       39.372        0.051      337.343        9.251      860.920
04/27/2014  20:45:00     -150.242      -81.134        3.140       97.743       77.664       48.136     9553.683     6031.757     2317.063        2.353        0.895      170.749       50.243        0.087      337.390        9.331      860.947
04/27/2014  20:46:00     -256.567      -49.568      -14.093      110.057      113.736       55.706    12112.622    12935.776     3103.145        4.831        1.408      261.311       62.465        0.057      337.354        9.269      860.945
04/27/2014  20:47:00     -177.446      -98.164        5.126      129.100      105.609       56.827    16666.839    11153.278     3229.355        3.609        1.552      202.788       73.207        0.130      337.352        9.266      860.954
04/27/2014  20:48:00     -215.637      -76.657       -2.812      119.695       74.205       48.854    14326.897     5506.336     2386.677        3.730        1.111      228.858       61.982        0.073      337.297        9.172      860.980
04/27/2014  20:49:00     -117.598      -55.916       10.931      103.034       83.695       48.963    10616.087     7004.770     2397.352        1.854        1.001      130.215       54.805        0.177      337.323        9.217      861.000
04/27/2014  20:50:00     -233.878      -99.809       -3.940      116.496       86.662       54.746    13571.430     7510.301     2997.142        4.437        1.204      254.284       57.328        0.051      337.270        9.127      861.017
04/27/2014  20:51:00     -199.294      -89.332       -7.105       99.482       80.630       56.071     9896.604     6501.190     3143.975        3.364        0.977      218.399       57.466        0.069      337.261        9.113      861.032
04/27/2014  20:52:00     -145.902      -92.486        6.172      124.438       89.515       71.591    15484.836     8013.015     5125.255        2.925        1.431      172.745       81.056        0.220      337.214        9.037      861.022
04/27/2014  20:53:00     -221.331      -73.205       -2.414      102.355      117.929       57.102    10476.503    13907.227     3260.691        4.099        1.382      233.123       48.858        0.044      337.239        9.077      861.003
04/27/2014  20:54:00     -264.457     -141.343      -10.074      122.442       89.291       57.782    14992.083     7972.794     3338.755        5.816        1.315      299.859       61.067        0.041      337.213        9.032      860.993
04/27/2014  20:55:00     -218.237     -147.958      -11.391      156.099      113.695       56.381    24366.845    12926.450     3178.777        5.505        2.024      263.664       62.302        0.056      337.217        9.041      860.973
04/27/2014  20:56:00     -257.817     -177.291       -9.613      178.642      126.521       72.434    31913.122    16007.616     5246.719        7.557        2.658      312.892       77.169        0.061      337.190        8.994      860.956
04/27/2014  20:57:00     -174.439      -29.771       12.270      131.592       89.878       71.325    17316.370     8078.010     5087.202        3.097        1.524      176.961       69.706        0.155      337.218        9.044      860.971
04/27/2014  20:58:00     -294.607     -149.753      -17.448      141.660       95.502       56.855    20067.614     9120.598     3232.516        7.097        1.621      330.483       58.459        0.031      337.200        9.011      861.002
04/27/2014  20:59:00     -184.552     -102.122       -5.224      139.957      113.757       53.823    19587.925    12940.627     2896.866        3.996        1.771      210.923       60.950        0.084      337.204        9.018      861.049
04/27/2014  21:00:00     -239.772      -32.777        0.221      133.575      100.157       62.955    17842.216    10031.474     3963.328        4.519        1.592      242.001       60.323        0.062      337.263        9.116      861.054
04/27/2014  21:01:00     -163.841      -68.420        6.245      138.648       93.373       52.489    19223.153     8718.541     2755.119        3.112        1.535      177.553       62.953        0.126      337.216        9.039      861.054
04/27/2014  21:02:00     -315.378     -140.171      -20.851      179.633      147.226       71.259    32268.160    21675.557     5077.791        8.927        2.951      345.125       62.708        0.033      337.173        8.967      861.082
04/27/2014  21:03:00     -352.590     -203.209      -15.244      170.592      131.149       70.204    29101.748    17200.069     4928.656       10.853        2.562      406.956       70.776        0.030      337.129        8.892      861.123
04/27/2014  21:04:00     -298.827     -148.120       -8.560      136.523      117.659       72.197    18638.406    13843.540     5212.339        7.449        1.885      333.522       75.068        0.051      337.138        8.906      861.172
04/27/2014  21:05:00     -373.107      -87.265      -12.163      127.713      101.348       67.679    16310.682    10271.368     4580.450        8.906        1.558      383.177       63.110        0.027      337.084        8.815      861.233
04/27/2014  21:06:00     -325.795      -17.291      -10.762      192.664      104.007       81.073    37119.415    10817.547     6572.832        8.052        2.725      326.253      106.520        0.107      337.107        8.855      861.240
04/27/2014  21:07:00     -381.666      -31.243      -14.534      221.255      123.684       69.665    48953.812    15297.656     4853.206       10.797        3.455      382.942       90.982        0.056      337.138        8.906      861.236
04/27/2014  21:08:00     -404.252     -113.304       -3.372      182.134      123.533       76.460    33172.871    15260.462     5846.196       11.526        2.714      419.830       93.238        0.049      337.093        8.831      861.226
04/27/2014  21:09:00     -283.668     -106.217        3.567      147.249      127.080       71.259    21682.258    16149.223     5077.859        6.733        2.145      302.902       73.394        0.059      337.089        8.823      861.234
04/27/2014  21:10:00     -196.926      -62.029       -8.271      167.496       99.613       57.829    28055.041     9922.769     3344.219        4.200        2.066      206.465       68.481        0.110      337.113        8.866      861.229
04/27/2014  21:11:00     -362.502      -85.302       -2.488      173.622      124.988       68.177    30144.491    15621.927     4648.097        9.454        2.521      372.403       88.182        0.056      337.048        8.757      861.220
04/27/2014  21:12:00     -379.985     -136.012       -9.038      161.431      113.447       70.813    26059.911    12870.293     5014.539       10.345        2.197      403.593       61.678        0.023      337.043        8.748      861.228
04/27/2014  21:13:00     -546.311     -142.425      -28.248      154.630      120.996       68.007    23910.491    14640.057     4624.900       18.135        2.159      564.571       71.036        0.016      336.997        8.669      861.233
04/27/2014  21:14:00     -447.073      -92.976      -12.352      149.844      127.698       73.180    22453.287    16306.850     5355.297       12.638        2.206      456.638       71.933        0.025      337.006        8.686      861.250
04/27/2014  21:15:00     -429.980      -88.650      -22.757      167.061      114.893       70.138    27909.350    13200.393     4919.276       11.964        2.301      439.024       67.275        0.023      337.034        8.732      861.245
04/27/2014  21:16:00     -362.167     -116.002      -16.253      177.474      130.431       79.443    31496.913    17012.367     6311.261        9.984        2.741      380.292       86.956        0.052      337.014        8.699      861.215
04/27/2014  21:17:00     -330.104     -105.562       -6.370      201.407      143.820       72.304    40564.715    20684.092     5227.841        9.330        3.324      346.572       86.544        0.062      337.033        8.730      861.206
04/27/2014  21:18:00     -436.807      -77.867      -25.947      148.978      114.370       74.927    22194.441    13080.569     5614.124       11.920        2.044      443.694       69.421        0.024      337.027        8.720      861.191
04/27/2014  21:19:00     -248.927      -86.127       -4.554      119.568      107.448       61.814    14296.574    11545.170     3821.013        4.953        1.483      263.406       62.254        0.056      337.039        8.741      861.213
04/27/2014  21:20:00     -292.756      -63.515      -15.857      137.910       75.803       65.698    19019.101     5746.112     4316.252        5.953        1.454      299.567       42.357        0.020      337.071        8.794      861.184
04/27/2014  21:21:00     -487.155      -73.144      -26.950      152.584      117.575       80.760    23281.802    13823.964     6522.174       14.350        2.181      492.615       90.487        0.034      336.947        8.587      861.175
04/27/2014  21:22:00     -335.650      -69.175       -3.988      177.604      124.122       85.042    31543.348    15406.220     7232.067        8.581        2.709      342.705       93.754        0.075      336.961        8.610      861.138
04/27/2014  21:23:00     -390.633      -75.545       -5.481      194.602      140.292       76.909    37869.843    19681.884     5915.065       11.089        3.173      397.871       83.314        0.044      336.917        8.538      861.101
04/27/2014  21:24:00     -398.296      -55.266      -10.427      214.390      150.772       92.042    45963.060    22732.191     8471.797       11.947        3.858      402.112      104.799        0.068      336.961        8.609      861.060
04/27/2014  21:25:00     -446.529     -134.232       -2.427      245.927      179.351      113.202    60479.895    32166.892    12814.610       16.142        5.273      466.269      117.494        0.063      336.929        8.559      861.003
04/27/2014  21:26:00     -521.203     -192.508      -15.221      254.991      198.779      103.925    65020.379    39512.970    10800.418       21.212        5.767      555.619      115.919        0.044      336.949        8.590      860.960
04/27/2014  21:27:00     -406.555     -150.889      -13.781      154.111      193.472       89.817    23750.162    37431.539     8067.006       12.873        3.462      433.652       84.971        0.038      336.959        8.606      860.971
04/27/2014  21:28:00     -466.432     -122.753      -22.918      211.508      155.208       87.081    44735.485    24089.417     7583.169       15.477        3.820      482.315       95.294        0.039      336.932        8.562      860.981
04/27/2014  21:29:00     -459.531      -74.421       -8.001      177.858      138.626       86.604    31633.359    19217.188     7500.332       13.755        2.918      465.519       88.400        0.036      336.912        8.529      860.970
04/27/2014  21:30:00     -518.942      -53.549      -20.444      264.604      179.606       99.443    70015.144    32258.293     9888.827       19.235        5.608      521.697      120.752        0.054      336.926        8.551      860.919
04/27/2014  21:31:00     -270.770     -138.784       -0.089      228.074      150.134       98.153    52017.653    22540.170     9634.028        8.837        4.210      304.266       95.728        0.099      336.917        8.536      860.883
04/27/2014  21:32:00     -470.474     -213.858      -29.510      225.524      178.504      105.561    50861.068    31863.591    11143.184       18.089        4.693      516.799      105.674        0.042      336.886        8.485      860.827
04/27/2014  21:33:00     -436.817     -136.795      -11.865      244.665      159.324       86.769    59860.750    25384.090     7528.832       15.120        4.639      457.736       96.871        0.045      336.861        8.443      860.856
04/27/2014  21:34:00     -255.008     -121.715       -0.601      190.424      161.245       94.294    36261.114    25999.823     8891.439        7.548        3.558      282.567       96.604        0.117      336.876        8.469      860.835
04/27/2014  21:35:00     -115.695      -52.755       25.484      260.456      132.059      100.563    67837.471    17439.525    10112.819        5.609        4.769      127.155      115.203        0.821      336.871        8.461      860.804
04/27/2014  21:36:00     -286.831      -92.277      -12.451      188.950      132.243       81.899    35701.998    17488.197     6707.464        7.541        2.995      301.309       95.559        0.101      336.855        8.432      860.805
04/27/2014  21:37:00     -422.531     -147.527        1.523      253.487      167.701      113.903    64255.744    28123.690    12973.838       15.281        5.268      447.545      138.798        0.096      336.805        8.351      860.799
04/27/2014  21:38:00     -429.277      -77.401       -2.058      191.000      160.765      104.767    36480.902    25845.300    10976.193       13.177        3.665      436.199       94.641        0.047      336.821        8.376      860.807
04/27/2014  21:39:00     -488.036     -194.934      -22.037      196.879      167.367       83.598    38761.509    28011.706     6988.626       17.520        3.688      525.527       93.292        0.032      336.797        8.336      860.874
04/27/2014  21:40:00     -414.723     -107.094       -5.929      200.348      162.091       86.202    40139.259    26273.523     7430.866       12.866        3.692      428.327       90.396        0.045      336.802        8.345      860.920
04/27/2014  21:41:00     -102.710      -78.365       31.096      181.169      134.249       99.863    32822.229    18022.704     9972.539        3.923        3.041      129.191      101.481        0.617      336.842        8.414      860.921
04/27/2014  21:42:00     -246.522      -12.474        1.494      208.177      149.486       77.674    43337.622    22346.172     6033.268        6.631        3.586      246.837       84.394        0.117      336.830        8.392      860.964
04/27/2014  21:43:00      -85.693      -89.921       43.745      169.606      138.748       89.310    28766.144    19250.968     7976.201        3.666        2.800      124.214       87.906        0.501      336.800        8.344      861.010
04/27/2014  21:44:00     -318.422      -99.494       -2.359      241.938      195.916       90.187    58533.891    38383.270     8133.723       10.815        5.253      333.604      107.993        0.105      336.777        8.305      861.073
04/27/2014  21:45:00     -244.057      -79.693       -9.888      168.333      118.172       87.262    28335.844    13964.728     7614.688        5.795        2.496      256.739       87.651        0.117      336.814        8.365      861.115
04/27/2014  21:46:00     -284.156      -65.770        1.614      218.303      114.784       81.649    47656.192    13175.302     6666.553        7.627        3.375      291.669      111.530        0.146      336.804        8.349      861.167
04/27/2014  21:47:00     -359.238      -63.495      -35.335      191.425      227.486       86.223    36643.451    51749.906     7434.365       11.506        4.791      364.806       96.083        0.069      336.804        8.348      861.196
04/27/2014  21:48:00     -378.366     -177.985      -10.705      193.033      161.902       83.470    37261.600    26212.110     6967.312       12.268        3.522      418.138       78.343        0.035      336.786        8.318      861.219
04/27/2014  21:49:00     -153.761      -60.766        6.857      129.448      112.915       58.745    16756.707    12749.694     3450.928        3.016        1.648      165.333       66.198        0.160      336.804        8.350      861.274
04/27/2014  21:50:00     -227.869      -37.928       -2.011      154.400       67.787       44.127    23839.442     4595.021     1947.223        4.187        1.519      231.003       54.226        0.055      336.759        8.275      861.314
04/27/2014  21:51:00     -173.171     -144.085        2.175      160.018      130.216       70.218    25605.906    16956.099     4930.635        4.911        2.375      225.274       80.458        0.128      336.788        8.321      861.343
04/27/2014  21:52:00     -182.214       12.979        2.208      121.571      101.136       60.619    14779.544    10228.418     3674.604        3.102        1.434      182.676       62.402        0.117      336.827        8.389      861.366
04/27/2014  21:53:00      -88.565      -10.889       13.042      100.306       70.177       45.582    10061.317     4924.756     2077.693        1.259        0.853       89.231       55.147        0.382      336.804        8.350      861.397
04/27/2014  21:54:00     -273.685       29.980      -18.886      157.602      146.282       66.286    24838.354    21398.431     4393.792        6.338        2.532      275.323       52.662        0.037      336.767        8.287      861.432
04/27/2014  21:55:00     -189.355      -15.542        3.426      136.215      117.965       77.053    18554.394    13915.711     5937.233        3.725        1.920      189.991       68.787        0.131      336.776        8.302      861.457
04/27/2014  21:56:00      -68.709      -25.867       11.017       58.369       65.877       33.082     3406.909     4339.767     1094.415        0.717        0.442       73.417       20.008        0.074      336.758        8.275      861.497
04/27/2014  21:57:00     -144.896      -61.925       -1.079      152.954      101.582       62.147    23394.931    10318.818     3862.238        3.120        1.879      157.574       90.747        0.332      336.758        8.274      861.529
04/27/2014  21:58:00     -102.271        6.535        6.903       84.554       68.494       42.942     7149.307     4691.421     1843.976        1.211        0.684      102.480       46.534        0.206      336.768        8.292      861.518
04/27/2014  21:59:00     -165.128      -82.069      -12.711       64.608       89.651       45.514     4174.200     8037.257     2071.524        2.422        0.714      184.398       38.481        0.044      336.732        8.230      861.534
04/27/2014  22:00:00     -118.785      -31.021        3.778      112.092       75.434       40.796    12564.625     5690.246     1664.275        1.750        0.996      122.769       48.987        0.159      336.751        8.262      861.592
04/27/2014  22:01:00     -139.345      -45.768        9.496      108.181       86.979       40.951    11703.045     7565.312     1676.954        2.127        1.047      146.668       35.802        0.060      336.695        8.169      861.658
04/27/2014  22:02:00     -355.043      -24.971      -26.992      148.382       92.955       65.158    22017.198     8640.580     4245.512        8.115        1.745      355.920       58.045        0.027      336.719        8.208      861.704
04/27/2014  22:03:00     -357.490      -26.310      -15.454      154.195      118.347       67.896    23776.155    14006.035     4609.885        8.555        2.120      358.456       73.944        0.043      336.675        8.134      861.701
04/27/2014  22:04:00     -388.325     -123.026      -21.688      124.229      119.173       76.041    15432.896    14202.232     5782.306       10.090        1.771      407.347       61.926        0.023      336.624        8.049      861.694
04/27/2014  22:05:00     -105.654      -26.192       22.922      120.428       76.200       50.024    14502.878     5806.495     2502.410        1.759        1.141      108.852       57.040        0.275      336.634        8.069      861.690
04/27/2014  22:06:00     -280.054      -87.793      -17.713      116.983       84.005       49.075    13685.111     7056.797     2408.388        5.480        1.158      293.492       48.648        0.027      336.675        8.133      861.705
04/27/2014  22:07:00     -334.529     -192.928      -11.572      104.146       94.116       51.320    10846.312     8857.879     2633.736        8.580        1.117      386.175       42.439        0.012      336.624        8.049      861.714
04/27/2014  22:08:00     -295.210     -136.580        2.625      136.989      122.509       71.109    18765.853    15008.341     5056.434        7.231        1.942      325.274       67.905        0.044      336.591        7.994      861.718
04/27/2014  22:09:00     -265.543      -41.093      -15.671      151.572       85.522       61.522    22974.144     7314.030     3784.906        5.325        1.704      268.704       68.001        0.064      336.636        8.071      861.739
04/27/2014  22:10:00     -229.694     -150.157      -10.456      117.812       89.487       53.443    13879.567     8007.957     2856.192        5.007        1.237      274.421       54.380        0.039      336.619        8.040      861.755
04/27/2014  22:11:00     -128.398     -116.104        5.934      132.590       89.475       60.328    17580.138     8005.849     3639.437        2.961        1.461      173.107       76.460        0.195      336.617        8.038      861.763
04/27/2014  22:12:00     -153.622      -70.232       10.130      124.001       87.660       56.023    15376.139     7684.298     3138.540        2.741        1.310      168.915       55.037        0.106      336.597        8.005      861.806
04/27/2014  22:13:00     -223.589      -87.092       -2.843      151.089      121.998       49.913    22827.804    14883.403     2491.297        4.889        2.010      239.952       64.839        0.073      336.585        7.985      861.828
04/27/2014  22:14:00     -174.562     -108.978      -11.165       66.892       65.858       40.374     4474.523     4337.237     1630.071        2.646        0.522      205.786       27.861        0.018      336.597        8.005      861.856
04/27/2014  22:15:00     -273.541      -11.365      -17.239       93.977       77.025       60.188     8831.754     5932.911     3622.538        4.682        0.919      273.777       52.989        0.037      336.612        8.028      861.869
04/27/2014  22:16:00     -259.285     -123.093       -2.340      112.853       96.230       57.896    12735.907     9260.163     3351.904        5.386        1.267      287.020       53.595        0.035      336.543        7.912      861.874
04/27/2014  22:17:00     -259.087      -71.677       -1.721      180.219       85.072       64.599    32478.969     7237.232     4172.967        5.807        2.194      268.819       86.831        0.104      336.499        7.840      861.891
04/27/2014  22:18:00     -112.884      -30.888        2.443       82.636       58.434       42.133     6828.636     3414.503     1775.231        1.286        0.601      117.033       41.199        0.124      336.518        7.873      861.900
04/27/2014  22:19:00     -157.944       -5.363       14.415      111.713       91.389       62.856    12479.740     8352.009     3950.862        2.498        1.239      158.035       59.394        0.141      336.521        7.877      861.910
04/27/2014  22:20:00     -187.794      -87.438        3.977      113.986      107.038       55.768    12992.796    11457.183     3110.047        3.524        1.378      207.152       54.755        0.070      336.506        7.851      861.915
04/27/2014  22:21:00     -220.145     -106.158       24.828      176.479      108.423       76.209    31144.980    11755.511     5807.878        5.452        2.435      244.404       90.424        0.137      336.479        7.805      861.920
04/27/2014  22:22:00     -270.797      -79.511       -5.187      156.615      148.945       76.603    24528.129    22184.644     5868.085        6.612        2.629      282.228       82.590        0.086      336.498        7.838      861.935
04/27/2014  22:23:00     -281.801      -42.891       -0.262      174.445      121.211       76.164    30431.048    14692.116     5800.899        6.608        2.546      285.047       75.618        0.070      336.493        7.828      861.937
04/27/2014  22:24:00     -264.734      -59.909      -17.352      128.288       88.033       58.787    16457.742     7749.754     3455.863        5.081        1.383      271.428       67.377        0.062      336.531        7.893      861.952
04/27/2014  22:25:00     -131.357     -166.568       -5.812      137.542      112.355       77.448    18917.784    12623.613     5998.230        4.128        1.877      212.131       80.982        0.146      336.483        7.812      861.930
04/27/2014  22:26:00     -235.728      -95.434       -3.958      103.650       68.969       47.200    10743.403     4756.682     2227.848        4.121        0.886      254.314       55.822        0.048      336.427        7.717      861.925
04/27/2014  22:27:00     -228.356       52.051      -14.602      120.186       67.752       48.142    14444.748     4590.281     2317.669        3.821        1.068      234.214       57.608        0.060      336.487        7.816      861.929
04/27/2014  22:28:00     -146.118      -54.396       -8.290      109.443       74.022       44.196    11977.808     5479.208     1953.312        2.189        0.971      155.915       46.851        0.090      336.477        7.804      861.926
04/27/2014  22:29:00     -179.383     -121.202        3.433      107.028       87.492       52.621    11454.988     7654.803     2768.993        3.437        1.094      216.490       59.274        0.075      336.416        7.700      861.928
04/27/2014  22:30:00     -253.687     -193.215      -13.846       87.415       77.747       51.612     7641.445     6044.617     2663.776        5.911        0.817      318.888       37.908        0.014      336.394        7.661      861.930
04/27/2014  22:31:00     -106.475      -68.483        1.348       72.494       56.689       31.076     5255.380     3213.659      965.701        1.273        0.472      126.597       29.921        0.056      336.421        7.711      861.942
04/27/2014  22:32:00     -122.468      -13.594        6.667       91.844       78.699       48.163     8435.285     6193.559     2319.651        1.608        0.847      123.221       44.342        0.129      336.499        7.840      861.966
04/27/2014  22:33:00     -197.359      -66.446       -1.309      102.718       76.629       40.856    10551.085     5871.968     1669.218        3.073        0.905      208.244       51.919        0.062      336.320        7.540      861.979
04/27/2014  22:34:00      -52.648      -16.844       15.612       57.055       52.681       35.174     3255.247     2775.267     1237.236        0.528        0.363       55.277       31.716        0.329      336.375        7.633      861.989
04/27/2014  22:35:00     -144.339      -35.289        0.950       58.887       76.662       46.214     3467.670     5877.056     2135.770        1.678        0.574      148.590       36.720        0.061      336.472        7.794      861.989
04/27/2014  22:36:00     -346.869      -82.263      -21.452      133.426       88.181       58.500    17802.564     7775.935     3422.266        7.827        1.450      356.490       63.750        0.032      336.323        7.546      861.974
04/27/2014  22:37:00     -292.820      -17.286      -20.870      122.386      113.191       60.294    14978.383    12812.285     3635.409        5.895        1.571      293.330       63.379        0.047      336.345        7.580      861.963
04/27/2014  22:38:00     -257.891      -97.792       -4.524       85.009       89.529       51.591     7226.590     8015.468     2661.597        4.699        0.895      275.810       44.385        0.026      336.313        7.527      861.960
04/27/2014  22:39:00     -235.474      -70.323       -3.472      102.582      106.720       53.917    10523.099    11389.134     2907.088        4.261        1.241      245.751       56.480        0.053      336.307        7.517      861.955
04/27/2014  22:40:00     -343.512      -14.182      -24.528      109.794       82.048       47.976    12054.730     6731.952     2301.665        6.994        1.054      343.804       51.355        0.022      336.315        7.530      861.911
04/27/2014  22:41:00     -168.612       -9.347        5.763       81.380       68.606       51.471     6622.697     4706.780     2649.284        2.126        0.699      168.871       42.437        0.063      336.373        7.629      861.869
04/27/2014  22:42:00     -247.011     -120.000      -14.399      112.186      107.837       63.568    12585.652    11628.835     4040.936        5.193        1.413      274.616       53.035        0.037      336.306        7.515      861.843
04/27/2014  22:43:00     -172.212      -37.462        5.143      118.232      116.404       58.308    13978.689    13549.811     3399.784        3.100        1.546      176.239       68.455        0.151      336.339        7.572      861.832
04/27/2014  22:44:00     -224.563      -47.584      -17.123       86.162       65.381       39.077     7423.891     4274.679     1527.007        3.310        0.661      229.550       36.794        0.026      336.323        7.543      861.847
04/27/2014  22:45:00     -313.485      -80.526      -10.696       93.381       85.666       46.341     8719.927     7338.602     2147.493        6.154        0.910      323.662       44.138        0.019      336.260        7.439      861.849
04/27/2014  22:46:00     -175.947      -40.802        4.868      115.663       70.882       36.964    13378.001     5024.249     1366.368        2.620        0.988      180.616       46.988        0.068      336.247        7.419      861.860
04/27/2014  22:47:00     -323.440      -55.447        1.149      159.213       98.548       62.030    25348.937     9711.690     3847.772        7.329        1.945      328.158       81.191        0.061      336.258        7.435      861.861
04/27/2014  22:48:00     -200.346      -61.476       -3.959      113.448      101.193       55.861    12870.356    10240.012     3120.484        3.508        1.312      209.566       50.720        0.059      336.272        7.459      861.864
04/27/2014  22:49:00     -188.258      -65.363       -1.626      120.080       88.064       45.340    14419.270     7755.250     2055.730        3.197        1.212      199.282       47.370        0.057      336.229        7.390      861.874
04/27/2014  22:50:00     -237.491       -7.834      -14.198      103.689       66.972       48.057    10751.437     4485.305     2309.467        3.710        0.877      237.620       51.670        0.047      336.229        7.387      861.872
04/27/2014  22:51:00     -214.495      -48.420       -3.353      109.315       82.230       46.568    11949.771     6761.817     2168.574        3.462        1.044      219.892       52.307        0.057      336.218        7.370      861.855
04/27/2014  22:52:00     -289.270     -106.827      -10.698      150.033       84.905       55.108    22510.040     7208.869     3036.837        6.397        1.638      308.365       68.835        0.050      336.245        7.416      861.843
04/27/2014  22:53:00     -224.983      -37.165       -4.895      118.052       77.860       52.706    13936.172     6062.186     2777.966        3.739        1.139      228.032       64.882        0.081      336.219        7.372      861.861
04/27/2014  22:54:00     -307.004      -49.925      -14.984      136.856       78.513       51.927    18729.618     6164.315     2696.395        6.227        1.380      311.037       61.355        0.039      336.228        7.386      861.894
04/27/2014  22:55:00     -387.605      -81.034      -17.773      148.626      110.557       56.388    22089.805    12222.884     3179.624        9.730        1.875      395.985       60.645        0.023      336.268        7.452      861.916
04/27/2014  22:56:00     -427.858      -72.922      -14.963      131.241       78.736       52.721    17224.155     6199.327     2779.494       10.740        1.310      434.027       54.103        0.016      336.273        7.459      861.921
04/27/2014  22:57:00     -118.565      -36.602       18.217      139.428       70.796       52.691    19440.069     5012.099     2776.309        2.147        1.361      124.086       69.687        0.315      336.247        7.420      861.910
04/27/2014  22:58:00     -180.049      -34.388       -0.795      112.041       75.010       47.523    12553.191     5626.567     2258.407        2.702        1.022      183.304       51.295        0.078      336.228        7.388      861.917
04/27/2014  22:59:00     -236.128      -43.832       -3.888      113.200       89.178       44.377    12814.308     7952.706     1969.288        4.021        1.137      240.161       47.534        0.039      336.216        7.365      861.942
04/27/2014  23:00:00     -366.041      -16.452      -14.039      154.919      110.723       60.308    23999.874    12259.591     3637.063        8.717        1.995      366.410       72.991        0.040      336.243        7.411      861.959
04/27/2014  23:01:00     -291.908      -40.441      -25.190      127.722       86.764       47.439    16312.879     7527.938     2250.448        5.678        1.305      294.696       49.812        0.029      336.241        7.409      861.977
04/27/2014  23:02:00     -280.773      -74.111       -7.162      132.653      105.552       63.263    17596.822    11141.311     4002.163        5.855        1.637      290.389       72.957        0.063      336.235        7.398      861.985
04/27/2014  23:03:00     -259.206      -59.266       -6.407      116.986      115.516       68.633    13685.840    13344.028     4710.452        5.123        1.587      265.895       59.929        0.051      336.213        7.359      862.004
04/27/2014  23:04:00     -241.103      -45.718      -14.971      101.360       95.450       55.473    10273.824     9110.616     3077.229        4.145        1.123      245.399       53.853        0.048      336.198        7.335      862.027
04/27/2014  23:05:00     -342.017     -115.610       -3.480      130.119      126.289       63.243    16930.976    15948.922     3999.663        8.361        1.844      361.028       56.154        0.024      336.184        7.311      862.025
04/27/2014  23:06:00     -278.445      -81.021       -7.520      140.259       98.293       51.891    19672.526     9661.453     2692.654        5.808        1.601      289.993       53.501        0.034      336.176        7.299      862.006
04/27/2014  23:07:00     -204.608      -46.112        2.405      147.598      115.193       65.281    21785.227    13269.464     4261.577        4.165        1.966      209.739       60.899        0.084      336.187        7.318      861.983
04/27/2014  23:08:00     -268.471      -24.231       -9.538      121.847       86.010       55.691    14846.622     7397.727     3101.475        4.905        1.267      269.562       52.446        0.038      336.151        7.257      861.991
04/27/2014  23:09:00     -337.696      -37.710      -13.196      159.603       85.828       61.052    25473.157     7366.387     3727.367        7.609        1.828      339.795       76.950        0.051      336.159        7.270      862.032
04/27/2014  23:10:00     -228.156      -77.251       -1.582      142.671      130.969       71.647    20354.974    17152.790     5133.294        5.032        2.132      240.879       78.221        0.105      336.167        7.284      862.051
04/27/2014  23:11:00     -403.314      -70.589      -40.898      178.522      107.595       71.147    31870.275    11576.656     5061.867       10.890        2.425      409.445       79.652        0.038      336.185        7.314      862.024
04/27/2014  23:12:00     -368.935      -84.624      -15.507      175.460      140.873       73.518    30786.293    19845.119     5404.904        9.976        2.802      378.516       65.762        0.030      336.175        7.297      861.981
04/27/2014  23:13:00     -301.009      -67.594       -6.105      177.597      153.299       68.330    31540.704    23500.625     4668.975        7.745        2.986      308.505       78.450        0.065      336.189        7.320      861.953
04/27/2014  23:14:00     -305.263      -25.571        4.376      208.437      146.312       76.221    43445.986    21407.220     5809.651        8.225        3.533      306.332       94.711        0.096      336.214        7.364      861.919
04/27/2014  23:15:00     -324.603     -115.314      -20.487      137.481       98.121       62.513    18901.110     9627.676     3907.919        7.575        1.622      344.477       67.751        0.039      336.216        7.366      861.931
04/27/2014  23:16:00     -354.422      -29.141       -4.098      196.505       97.528       67.052    38614.378     9511.761     4495.970        8.954        2.631      355.618       73.473        0.043      336.185        7.314      861.941
04/27/2014  23:17:00     -280.547      -26.492        6.204      139.684      114.162       65.528    19511.662    13032.950     4293.957        5.814        1.842      281.795       72.399        0.066      336.164        7.280      861.949
04/27/2014  23:18:00     -389.770      -60.249      -18.109      132.396       99.126       77.901    17528.607     9825.958     6068.503        9.464        1.671      394.399       78.580        0.040      336.166        7.282      861.944
04/27/2014  23:19:00     -345.011      -44.873       -6.685      202.881      113.963       69.234    41160.510    12987.615     4793.359        9.000        2.947      347.917       89.624        0.066      336.142        7.243      861.922
04/27/2014  23:20:00     -246.494      -39.530        0.448      116.295      117.882       59.013    13524.554    13896.119     3482.571        4.661        1.545      249.644       54.043        0.047      336.168        7.287      861.891
04/27/2014  23:21:00     -286.562       28.945       -9.113      144.191      109.093       68.924    20791.174    11901.265     4750.502        6.023        1.872      288.020       74.528        0.067      336.132        7.225      861.875
04/27/2014  23:22:00     -329.659      -58.060       -5.754      137.979      128.072       64.624    19038.202    16402.446     4176.273        7.584        1.981      334.733       63.934        0.036      336.137        7.233      861.858
04/27/2014  23:23:00     -378.957      -80.403      -14.911      129.640      120.120       61.533    16806.473    14428.725     3786.268        9.265        1.751      387.392       59.430        0.024      336.165        7.279      861.876
04/27/2014  23:24:00     -267.658      -21.364      -13.607      136.377       98.344       66.253    18598.713     9671.519     4389.416        5.246        1.633      268.509       62.432        0.054      336.138        7.235      861.904
04/27/2014  23:25:00     -355.087      -41.643      -18.251      118.592       98.336       61.550    14064.118     9669.906     3788.368        7.783        1.376      357.521       60.141        0.028      336.161        7.273      861.901
04/27/2014  23:26:00     -297.270        3.111      -12.324      109.770       91.103       62.849    12049.428     8299.804     3950.059        5.641        1.215      297.286       65.348        0.048      336.135        7.229      861.884
04/27/2014  23:27:00     -229.697      -35.090       -7.114      155.002      106.512       56.031    24025.652    11344.705     3139.507        4.627        1.925      232.362       71.400        0.094      336.131        7.224      861.893
04/27/2014  23:28:00     -239.156      -70.386       -2.116      152.474      104.183       60.001    23248.180    10854.051     3600.116        4.992        1.885      249.299       79.033        0.101      336.137        7.234      861.893
04/27/2014  23:29:00     -252.003      -52.357      -16.114      142.131       83.102       57.994    20201.353     6906.001     3363.317        4.848        1.524      257.385       58.910        0.052      336.151        7.259      861.880
04/27/2014  23:30:00     -300.035      -46.435      -16.405      119.188       80.572       51.900    14205.819     6491.852     2693.619        5.791        1.170      303.607       57.305        0.036      336.159        7.272      861.892
04/27/2014  23:31:00     -276.523      -40.666       -8.578      139.639      113.865       57.103    19499.084    12965.193     3260.781        5.695        1.786      279.497       64.717        0.054      336.141        7.240      861.887
04/27/2014  23:32:00     -344.653      -92.239       -5.712      140.217      103.476       65.918    19660.854    10707.383     4345.174        8.101        1.736      356.782       75.488        0.045      336.142        7.242      861.856
04/27/2014  23:33:00     -255.131      -57.187       -5.473      141.309      110.022       51.768    19968.257    12104.833     2679.882        5.157        1.738      261.462       56.386        0.047      336.145        7.248      861.839
04/27/2014  23:34:00     -265.668      -57.277       -8.154       91.735       97.529       45.730     8415.235     9511.855     2091.257        4.697        1.001      271.772       43.716        0.026      336.108        7.186      861.851
04/27/2014  23:35:00     -288.888      -92.530      -20.267      119.933      100.056       54.528    14384.035    10011.161     2973.342        5.989        1.368      303.345       49.994        0.027      336.126        7.216      861.858
04/27/2014  23:36:00     -265.636      -34.614      -13.999      103.159       89.260       55.726    10641.691     7967.388     3105.351        4.683        1.086      267.881       58.995        0.048      336.098        7.169      861.854
04/27/2014  23:37:00     -274.292      -68.506        0.117      129.495      122.682       53.723    16768.916    15050.941     2886.137        5.731        1.735      282.717       53.510        0.036      336.114        7.195      861.840
04/27/2014  23:38:00     -300.828      -43.474      -16.795      170.419       97.014       61.890    29042.765     9411.739     3830.317        6.747        2.114      303.953       72.627        0.057      336.099        7.171      861.838
04/27/2014  23:39:00     -285.518      -65.116      -16.049      135.558      103.666       51.984    18375.871    10746.573     2702.307        5.892        1.591      292.849       62.903        0.046      336.084        7.145      861.842
04/27/2014  23:40:00     -346.832      -53.470       -5.434      169.927      129.268       65.201    28875.155    16710.246     4251.168        8.650        2.492      350.929       82.490        0.055      336.072        7.126      861.846
04/27/2014  23:41:00     -346.793      -37.477      -16.065      163.492       82.489       59.061    26729.697     6804.478     3488.221        7.947        1.851      348.813       74.816        0.046      336.093        7.159      861.853
04/27/2014  23:42:00     -327.551      -92.540      -22.630      105.009       99.789       55.947    11026.960     9957.792     3130.060        7.024        1.206      340.372       60.815        0.032      336.068        7.119      861.857
04/27/2014  23:43:00     -360.152      -15.189      -29.650      146.552       84.904       51.623    21477.628     7208.686     2664.889        8.108        1.568      360.472       70.428        0.038      336.048        7.086      861.862
04/27/2014  23:44:00     -380.613      -83.356      -28.382      111.813       96.134       60.956    12502.191     9241.798     3715.658        8.903        1.273      389.634       59.742        0.024      336.038        7.069      861.855
04/27/2014  23:45:00     -296.484      -78.636      -10.952      150.533       92.522       51.111    22660.202     8560.372     2612.349        6.401        1.692      306.735       50.135        0.027      336.022        7.042      861.860
04/27/2014  23:46:00     -354.327      -67.911      -11.189      146.702       83.517       56.830    21521.361     6975.024     3229.701        8.100        1.586      360.776       59.680        0.027      336.056        7.098      861.866
04/27/2014  23:47:00     -249.163      -50.609       -7.958      148.406       66.333       50.692    22024.257     4400.066     2569.636        4.684        1.450      254.251       66.028        0.067      336.055        7.099      861.877
04/27/2014  23:48:00     -268.447     -101.736       -9.847      106.474       96.276       54.336    11336.716     9269.049     2952.439        5.303        1.178      287.078       55.509        0.037      336.016        7.032      861.882
04/27/2014  23:49:00     -265.254      -44.996       -7.239      136.575       63.964       50.227    18652.767     4091.366     2522.707        4.885        1.263      269.043       58.839        0.048      336.014        7.029      861.855
04/27/2014  23:50:00     -265.005      -47.243      -13.815      143.202      138.149       68.405    20506.876    19085.055     4679.191        5.845        2.214      269.183       80.344        0.089      336.003        7.010      861.812
04/27/2014  23:51:00     -194.181      -62.389        4.122      115.214      106.872       60.276    13274.272    11421.646     3633.204        3.497        1.416      203.957       56.766        0.077      336.003        7.011      861.802
04/27/2014  23:52:00     -171.452      -86.651       10.382       95.522      102.819       51.139     9124.525    10571.688     2615.150        2.966        1.116      192.104       47.188        0.060      336.035        7.065      861.815
04/27/2014  23:53:00     -245.048      -89.290       -0.862      130.475      109.975       62.519    17023.700    12094.453     3908.622        5.052        1.651      260.808       73.230        0.079      336.031        7.057      861.838
04/27/2014  23:54:00     -233.628     -101.257        4.813      121.709      108.924       63.001    14813.008    11864.453     3969.126        4.775        1.532      254.628       44.344        0.030      336.059        7.105      861.857
04/27/2014  23:55:00     -148.737      -96.741       -2.494      120.488       92.643       62.000    14517.456     8582.638     3843.943        2.921        1.347      177.430       60.377        0.116      336.087        7.151      861.888
04/27/2014  23:56:00     -223.966     -131.784       -1.184      156.792      126.048       70.478    24583.835    15888.019     4967.086        5.647        2.272      259.861       73.448        0.080      336.103        7.177      861.903
04/27/2014  23:57:00     -260.770      -28.236      -11.441      118.391      101.054       58.161    14016.343    10211.929     3382.681        4.826        1.381      262.294       51.018        0.038      336.096        7.165      861.901
04/27/2014  23:58:00     -185.686      -72.259       -3.327       90.360      105.439       51.378     8164.873    11117.462     2639.662        3.081        1.096      199.251       54.084        0.074      336.103        7.177      861.903
04/27/2014  23:59:00     -215.062     -104.802        2.357      128.921      103.941       56.079    16620.505    10803.698     3144.812        4.390        1.528      239.239       52.207        0.048      336.115        7.195      861.926
